[[[{"header":{"parameterUnit":"kt","parameterCategory":2,"dx":1,"dy":1,"la1":29.587661999999998,"la2":31.0,"lo1":-88.76705300000003,"lo2":-86.6583820000003,"nx":115,"ny":88,"refTime":"2022-10-31T00:00:00:Z","depth":0,"parameterNumber":1,"parameterNumberName":"U-component_of_WINDS"},"data":[7.5194,7.7563,7.911,8.0206,8.0958,8.0985,8.1001,8.1018,8.1096,8.1001,8.1032,8.1001,8.1001,8.0969,8.1001,8.1017,8.1096,8.1032,8.0969,8.1049,8.1303,8.1508,8.1681,8.1822,8.187,8.1744,8.1602,8.1744,8.2197,8.1885,8.1854,8.2475,8.249,8.2659,8.2934,8.3268,8.3598,8.3851,8.4176,8.4455,8.4644,8.4705,8.4734,8.4835,8.4864,8.528,8.5605,8.577,8.5853,8.5728,8.5488,8.5432,8.5765,8.636,8.6823,8.7377,8.7798,8.8142,8.8206,8.8389,8.8464,8.8618,8.9006,9.0177,9.1635,9.3113,9.3817,9.4411,9.5377,9.6372,9.7272,9.7351,9.7412,9.7089,9.6896,9.6233,9.5488,9.4861,9.4187,9.3653,9.337,9.3417,9.3496,9.3826,9.3826,9.3905,9.4184,9.4292,9.4523,9.4444,9.4414,9.487,9.5342,9.5195,9.5156,9.8759,10.0925,10.1729,10.2452,10.3422,10.4013,10.4013,10.4013,10.4013,10.4013,10.4013,10.4013,10.4013,10.4499,10.5444,10.6311,10.7274,10.8745,10.9479,10.9324,7.5521,7.7954,8.0146,8.1384,8.1635,8.146,8.1476,8.1666,8.1682,8.1587,8.1413,8.1619,8.1571,8.1539,8.1556,8.1508,8.1429,8.1334,8.1697,8.1838,8.165,8.1822,8.2026,8.2197,8.2104,8.1917,8.1744,8.2088,8.2537,8.2166,8.2088,8.2613,8.2828,8.2934,8.3268,8.3583,8.3775,8.3982,8.4294,8.4527,8.4571,8.46,8.4716,8.4993,8.5265,8.5605,8.5858,8.6076,8.6341,8.63,8.6292,8.6347,8.6728,8.693,8.739,8.7641,8.8077,8.8193,8.8291,8.8291,8.8291,8.8278,8.8379,8.9216,9.0623,9.1783,9.262,9.3411,9.4431,9.545,9.6556,9.7135,9.7183,9.7103,9.6962,9.6687,9.5822,9.4993,9.424,9.348,9.3448,9.3542,9.3965,9.4628,9.4722,9.468,9.4757,9.4833,9.4831,9.4722,9.4674,9.5016,9.5293,9.533,9.5277,9.7456,9.9494,10.0429,10.1662,10.3011,10.4013,10.4013,10.4013,10.4013,10.4013,10.4013,10.4013,10.4225,10.5212,10.6175,10.6859,10.7578,10.8958,10.9613,10.9613,7.5399,7.7437,7.9782,8.1201,8.1745,8.1713,8.1729,8.1807,8.1823,8.1854,8.2026,8.2072,8.1979,8.176,8.1776,8.1682,8.1682,8.165,8.1932,8.2119,8.1995,8.2166,8.2336,8.249,8.2367,8.2429,8.2306,8.2275,8.2645,8.2413,8.2336,8.2751,8.3056,8.3254,8.3405,8.3851,8.4085,8.4085,8.4545,8.4676,8.4629,8.4947,8.5133,8.5119,8.5545,8.6057,8.6333,8.672,8.6944,8.7057,8.7024,8.7244,8.7111,8.7377,8.7628,8.7837,8.8103,8.8291,8.8291,8.8291,8.8291,8.8291,8.8325,8.8325,8.9711,9.0616,9.1454,9.2144,9.315,9.4511,9.5618,9.6621,9.6783,9.7166,9.7202,9.7216,9.671,9.5873,9.5093,9.4471,9.4379,9.4364,9.4044,9.4691,9.4919,9.4863,9.4726,9.4741,9.4907,9.4919,9.4947,9.5109,9.5204,9.5259,9.5368,9.6665,9.8243,9.9425,10.0641,10.2074,10.3455,10.3701,10.4013,10.4013,10.4013,10.4013,10.4306,10.4659,10.5504,10.6577,10.7289,10.7927,10.8772,10.9613,10.9613,7.6095,7.7397,7.9193,8.0554,8.1573,8.187,8.1995,8.2072,8.2104,8.2274,8.246,8.2413,8.2197,8.1901,8.1932,8.1917,8.1932,8.1932,8.201,8.2243,8.2259,8.2351,8.2521,8.269,8.2751,8.2812,8.2797,8.269,8.2659,8.2552,8.2552,8.2828,8.2995,8.3313,8.3538,8.3805,8.425,8.4425,8.4676,8.4734,8.4748,8.5137,8.5379,8.5318,8.5779,8.6341,8.6701,8.7178,8.7582,8.7674,8.7641,8.7417,8.6984,8.743,8.7628,8.7706,8.8044,8.8206,8.8291,8.8291,8.8291,8.8291,8.8291,8.8291,8.8593,8.9477,9.0274,9.093,9.1929,9.3345,9.4633,9.5576,9.6392,9.6991,9.7496,9.7676,9.7861,9.7051,9.6299,9.5928,9.5742,9.5167,9.4416,9.4448,9.4785,9.48,9.4665,9.4711,9.4876,9.4965,9.498,9.5098,9.5206,9.5257,9.5481,9.6336,9.7241,9.8375,9.8717,10.0564,10.2733,10.3373,10.4013,10.4013,10.4013,10.4013,10.4225,10.485,10.5782,10.6815,10.7621,10.8266,10.908,10.9586,10.9613,7.8436,7.853,7.8799,7.9793,8.102,8.1958,8.2459,8.2721,8.2675,8.2751,8.2705,8.2552,8.2228,8.2088,8.2197,8.2166,8.2119,8.2274,8.2444,8.2736,8.2583,8.2536,8.269,8.2812,8.2812,8.2812,8.2782,8.2736,8.2552,8.2521,8.2598,8.2797,8.2919,8.3206,8.3626,8.3908,8.422,8.453,8.4647,8.4751,8.4777,8.4835,8.4849,8.499,8.5807,8.6587,8.685,8.743,8.8214,8.8214,8.8168,8.8142,8.8,8.8103,8.8116,8.8206,8.8193,8.8291,8.8291,8.8291,8.8291,8.8291,8.8291,8.827,8.8334,8.8889,8.9495,9.0125,9.0645,9.1908,9.3406,9.4474,9.5424,9.6112,9.6834,9.7301,9.7613,9.757,9.6981,9.6766,9.6467,9.5893,9.5098,9.4075,9.4416,9.4431,9.4448,9.468,9.4833,9.4891,9.4995,9.5191,9.5161,9.5134,9.5373,9.5744,9.6503,9.6551,9.6402,9.7984,10.1151,10.273,10.3865,10.4013,10.4013,10.4013,10.4209,10.5133,10.6024,10.708,10.7978,10.8648,10.9108,10.9519,10.9607,7.8719,7.8828,7.9675,8.0337,8.103,8.2124,8.2705,8.2797,8.2812,8.2812,8.2812,8.2705,8.2583,8.246,8.2505,8.2552,8.2398,8.2567,8.2675,8.2797,8.2737,8.2736,8.2751,8.2812,8.2812,8.2812,8.2782,8.2783,8.2689,8.2675,8.2706,8.2828,8.3103,8.3403,8.3686,8.3938,8.4235,8.4396,8.4559,8.4618,8.4878,8.5151,8.5265,8.5605,8.6544,8.6984,8.7211,8.7771,8.8193,8.8278,8.8291,8.8291,8.8291,8.8291,8.8291,8.8291,8.8291,8.8291,8.8291,8.8291,8.8291,8.8291,8.8291,8.8334,8.8449,8.8563,8.8978,8.9377,8.9836,9.0539,9.2006,9.3385,9.4292,9.5208,9.5983,9.678,9.7261,9.7694,9.7694,9.748,9.7096,9.6577,9.5646,9.4536,9.3982,9.4122,9.4292,9.4525,9.4678,9.4828,9.5053,9.5221,9.5131,9.5088,9.5179,9.5481,9.6229,9.6502,9.5867,9.6819,9.9569,10.1684,10.3339,10.3833,10.3964,10.4013,10.4013,10.507,10.6492,10.7371,10.8378,10.8937,10.9412,10.9613,10.9541,7.9678,7.9472,8.0431,8.0856,8.1076,8.226,8.2812,8.2812,8.2812,8.2812,8.2797,8.2721,8.2629,8.2705,8.2674,8.269,8.2705,8.2767,8.2797,8.2797,8.2782,8.2797,8.2812,8.2812,8.2812,8.2812,8.2812,8.2797,8.2766,8.2797,8.2797,8.2828,8.3027,8.3313,8.3628,8.3957,8.4132,8.4308,8.4382,8.4559,8.482,8.5062,8.5393,8.5774,8.6585,8.7098,8.743,8.7987,8.8206,8.8291,8.8291,8.8291,8.8291,8.8291,8.8291,8.8291,8.8291,8.8291,8.8291,8.8291,8.833,8.8373,8.839,8.8517,8.8715,8.8828,8.8858,8.9047,8.9334,9.027,9.1606,9.2501,9.3294,9.4452,9.5662,9.631,9.6817,9.746,9.8409,9.8263,9.8337,9.7677,9.6496,9.5447,9.4884,9.4289,9.4105,9.4369,9.4617,9.4869,9.511,9.5236,9.5224,9.5194,9.5236,9.5281,9.6005,9.6425,9.5862,9.6245,9.8621,10.0701,10.2682,10.3619,10.3751,10.3833,10.4046,10.571,10.7453,10.828,10.8786,10.9256,10.9613,10.9634,10.9567,8.1946,8.0919,8.0856,8.0919,8.1124,8.2419,8.286,8.2812,8.2812,8.2812,8.2797,8.2583,8.2537,8.2475,8.246,8.249,8.2537,8.2736,8.2782,8.2812,8.2812,8.2812,8.2812,8.2812,8.2812,8.2812,8.2812,8.2812,8.2812,8.2812,8.2812,8.2828,8.2889,8.3086,8.3253,8.351,8.3764,8.4058,8.422,8.4396,8.4673,8.4904,8.5361,8.5923,8.653,8.7084,8.7575,8.8,8.8206,8.8317,8.8291,8.8291,8.8291,8.8291,8.8291,8.8291,8.8291,8.8291,8.8291,8.8291,8.8381,8.8614,8.8614,8.8811,8.8969,8.9099,8.9061,8.9061,8.9219,9.0188,9.0899,9.155,9.2202,9.333,9.471,9.5441,9.596,9.7154,9.8244,9.8671,9.8698,9.8364,9.7118,9.6766,9.6194,9.5347,9.4398,9.4661,9.5038,9.5257,9.5173,9.5251,9.5266,9.5266,9.5281,9.5326,9.5745,9.5862,9.5428,9.5727,9.7338,9.9378,10.1649,10.3225,10.3472,10.4027,10.4705,10.6167,10.8046,10.8848,10.9243,10.9613,10.9613,10.9634,10.9634,8.2438,8.1923,8.2075,8.2044,8.2142,8.3521,8.3506,8.2676,8.2736,8.2812,8.2797,8.2721,8.2659,8.2659,8.2675,8.2675,8.2659,8.2782,8.2812,8.2812,8.2812,8.2812,8.2812,8.2812,8.2812,8.2812,8.2812,8.2812,8.2812,8.2812,8.2812,8.2812,8.2812,8.2919,8.2965,8.3056,8.3268,8.369,8.3985,8.4176,8.4615,8.5047,8.5601,8.6209,8.6802,8.7377,8.7837,8.8155,8.8334,8.8411,8.8398,8.8322,8.8377,8.8373,8.8291,8.8291,8.8291,8.8291,8.8291,8.8291,8.8475,8.8794,8.8883,8.9007,8.9219,8.9397,8.9324,8.9287,8.9483,8.9866,9.002,9.018,9.0683,9.1014,9.2233,9.3131,9.3999,9.6044,9.7264,9.7742,9.7848,9.7889,9.7527,9.743,9.7292,9.6043,9.4859,9.5185,9.5569,9.5394,9.5251,9.5266,9.5281,9.5266,9.5281,9.5326,9.5311,9.5266,9.5508,9.576,9.7247,9.8607,10.0828,10.2782,10.3117,10.3704,10.4881,10.6349,10.8004,10.904,10.9506,10.9613,10.9613,10.9613,10.9613,8.2675,8.2476,8.3223,8.335,8.3243,8.3884,8.3868,8.3257,8.2848,8.2736,8.2766,8.2812,8.2812,8.2812,8.2797,8.2797,8.2797,8.2812,8.2812,8.2812,8.2812,8.2812,8.2812,8.2812,8.2812,8.2812,8.2812,8.2812,8.2812,8.2812,8.2812,8.2812,8.2812,8.2812,8.2812,8.2828,8.298,8.336,8.3583,8.3982,8.4597,8.5219,8.5909,8.6809,8.7171,8.7654,8.8168,8.8334,8.8411,8.8411,8.85,8.8411,8.8365,8.8373,8.8291,8.8291,8.8291,8.8291,8.8291,8.8296,8.8487,8.8744,8.896,8.9121,8.9378,8.9689,8.9594,8.9485,8.9677,8.9642,8.9616,8.9783,8.9865,9.014,9.088,9.1723,9.2555,9.4602,9.6083,9.6526,9.7243,9.7323,9.7985,9.8155,9.7849,9.6862,9.6544,9.671,9.6577,9.6207,9.5686,9.5672,9.5449,9.5374,9.5266,9.5296,9.5281,9.5266,9.5508,9.576,9.6767,9.811,9.992,10.1327,10.2246,10.3234,10.4747,10.6267,10.7956,10.9094,10.9439,10.9613,10.9613,10.9613,10.9613,8.2659,8.2616,8.4119,8.459,8.4104,8.3086,8.3445,8.4103,8.3257,8.2786,8.2812,8.2812,8.2812,8.2812,8.2812,8.2812,8.2812,8.2812,8.2812,8.2812,8.2812,8.2812,8.2812,8.2812,8.2812,8.2812,8.2812,8.2812,8.2812,8.2812,8.2812,8.2812,8.2812,8.2812,8.2812,8.2812,8.298,8.3314,8.345,8.4085,8.4799,8.5347,8.6201,8.6971,8.7483,8.7785,8.8219,8.8436,8.8538,8.8513,8.8563,8.8517,8.8403,8.8347,8.8291,8.8304,8.8304,8.8304,8.8304,8.8283,8.8466,8.8782,8.9151,8.9311,8.9507,8.9667,8.9787,8.9787,8.9809,8.9775,8.9775,8.9821,8.9821,9.014,9.0983,9.1723,9.2052,9.3361,9.4432,9.5182,9.607,9.706,9.8031,9.8642,9.816,9.8106,9.81,9.7999,9.7739,9.7258,9.6567,9.6325,9.5886,9.5675,9.5326,9.5311,9.5296,9.5266,9.5359,9.5434,9.6181,9.7077,9.8195,9.9573,10.0885,10.2356,10.4215,10.5945,10.7731,10.9139,10.9437,10.9613,10.9613,10.9613,10.9613,8.2659,8.2491,8.3177,8.3287,8.3337,8.4935,8.4794,8.3539,8.379,8.3773,8.2812,8.2812,8.2812,8.2812,8.2812,8.2812,8.2812,8.2812,8.2812,8.2812,8.2812,8.2812,8.2812,8.2812,8.2812,8.2812,8.2812,8.2812,8.2812,8.2812,8.2812,8.2812,8.2812,8.2812,8.2812,8.2812,8.2858,8.3162,8.3568,8.4352,8.473,8.5699,8.6842,8.7091,8.7766,8.8044,8.8232,8.8513,8.8618,8.8702,8.8728,8.8694,8.8639,8.85,8.833,8.8355,8.8386,8.8436,8.8436,8.8563,8.8907,8.9118,8.9397,8.9667,8.9862,9.0039,9.0097,9.0131,8.9952,8.9821,8.9821,8.9821,8.9821,8.9855,9.0732,9.0983,9.1358,9.1835,9.2884,9.3966,9.5127,9.6185,9.7094,9.7823,9.7656,9.7962,9.8303,9.8695,9.8537,9.8114,9.7474,9.7015,9.6398,9.5867,9.543,9.5416,9.5383,9.5386,9.5371,9.5326,9.5359,9.5547,9.6487,9.8293,9.9996,10.1475,10.2679,10.3621,10.5927,10.8674,10.9367,10.953,10.9543,10.9439,10.9509,8.2659,8.2413,8.2614,8.2958,8.3508,8.4747,8.4512,8.3493,8.3727,8.3397,8.2675,8.2782,8.2812,8.2812,8.2812,8.2812,8.2812,8.2812,8.2812,8.2812,8.2812,8.2812,8.2812,8.2812,8.2812,8.2812,8.2812,8.2812,8.2812,8.2812,8.2812,8.2812,8.2812,8.2812,8.2812,8.2812,8.2812,8.301,8.3372,8.4191,8.4626,8.5932,8.6701,8.7184,8.7948,8.8181,8.8173,8.853,8.8765,8.8878,8.8953,8.8891,8.8803,8.8576,8.8449,8.8416,8.8538,8.8551,8.8525,8.8869,8.9228,8.9463,8.9765,9.0004,9.0087,9.0297,9.0378,9.0308,9.012,8.9918,8.9847,8.9821,8.9821,8.9821,8.9889,8.9957,9.0276,9.0698,9.1609,9.2784,9.3979,9.5177,9.606,9.6876,9.7289,9.7945,9.8746,9.9358,9.9212,9.8908,9.8444,9.7985,9.699,9.6327,9.6582,9.6105,9.5502,9.5487,9.549,9.5531,9.5591,9.5538,9.585,9.7372,9.9072,10.022,10.1064,10.1529,10.3399,10.6432,10.8021,10.8858,10.9218,10.9266,10.9404,8.2613,8.2398,8.2382,8.3273,8.4527,8.3117,8.3352,8.3931,8.3102,8.2726,8.2537,8.269,8.2812,8.2812,8.2812,8.2812,8.2812,8.2812,8.2812,8.2812,8.2812,8.2812,8.2812,8.2812,8.2812,8.2812,8.2812,8.2812,8.2812,8.2812,8.2812,8.2812,8.2812,8.2812,8.2812,8.2812,8.2812,8.2873,8.325,8.4012,8.4814,8.5774,8.6478,8.7443,8.7987,8.8198,8.8011,8.8648,8.9019,8.8857,8.9118,8.9192,8.894,8.8702,8.8652,8.8631,8.8728,8.8765,8.8866,8.9167,8.9424,8.955,8.9838,9.0169,9.0355,9.0529,9.0586,9.0574,9.0273,9.0062,8.9882,8.9821,8.9821,8.9821,8.9821,8.9821,8.9923,9.0208,9.0722,9.1704,9.2802,9.3969,9.4967,9.5396,9.5808,9.7918,9.8919,9.9777,9.9672,9.9669,9.9285,9.8617,9.7573,9.7331,9.765,9.7065,9.6178,9.5886,9.5709,9.5705,9.575,9.5831,9.5841,9.7093,9.7705,9.8827,9.9821,10.0799,10.225,10.4652,10.6279,10.7111,10.7609,10.8212,10.8767,8.2197,8.2398,8.2398,8.2648,8.3085,8.3775,8.365,8.3165,8.3618,8.3384,8.2741,8.269,8.2812,8.2812,8.2812,8.2812,8.2812,8.2812,8.2812,8.2812,8.2812,8.2812,8.2812,8.2812,8.2812,8.2812,8.2812,8.2812,8.2812,8.2812,8.2812,8.2812,8.2812,8.2812,8.2812,8.2812,8.2812,8.2842,8.355,8.4259,8.5072,8.6308,8.7185,8.785,8.839,8.8828,8.8794,8.913,8.929,8.9192,8.9363,8.9375,8.913,8.8869,8.8803,8.8915,8.8919,8.9015,8.9238,8.9446,8.9534,8.9633,8.986,9.0378,9.0644,9.0804,9.0895,9.1009,9.0563,9.0121,8.9848,8.9821,8.9821,8.9821,8.9821,8.9821,8.9855,8.9957,9.0356,9.1065,9.1845,9.2958,9.4083,9.4267,9.5698,9.7923,9.9151,10.001,10.0185,10.0257,9.9817,9.9193,9.8444,9.8302,9.8087,9.7409,9.6734,9.625,9.594,9.5838,9.5827,9.5893,9.6036,9.6033,9.6323,9.7707,9.9619,10.0442,10.1379,10.3413,10.5121,10.5724,10.6244,10.7145,10.7874,8.2057,8.2398,8.2228,8.215,8.2322,8.3196,8.2993,8.2369,8.329,8.318,8.2368,8.2582,8.2812,8.2812,8.2812,8.2812,8.2812,8.2812,8.2812,8.2812,8.2812,8.2812,8.2812,8.2812,8.2812,8.2812,8.2812,8.2812,8.2812,8.2812,8.2812,8.2812,8.2812,8.2812,8.2812,8.2812,8.2812,8.3026,8.346,8.4215,8.5068,8.6135,8.7085,8.766,8.8428,8.8669,8.8794,8.9071,8.9388,8.9424,8.958,8.9522,8.936,8.9155,8.8994,8.9167,8.9213,8.9299,8.9446,8.963,8.9657,8.9729,9.0074,9.0506,9.0849,9.1053,9.1176,9.1166,9.0621,9.0203,8.9906,8.9833,8.9821,8.9821,8.9821,8.9821,8.9821,8.9821,8.9901,9.0336,9.1001,9.2876,9.439,9.5269,9.6928,9.8746,9.9901,10.0343,10.0404,10.0478,10.0128,9.9641,9.9388,9.9195,9.8581,9.7897,9.7319,9.6543,9.6236,9.5911,9.5886,9.6013,9.6185,9.6266,9.7019,9.8066,9.9228,10.0196,10.0755,10.2338,10.4047,10.4176,10.4409,10.5403,10.6695,8.201,8.2274,8.1995,8.1792,8.1854,8.2244,8.2057,8.1634,8.2415,8.2351,8.2041,8.2475,8.2767,8.2812,8.2812,8.2812,8.2812,8.2812,8.2812,8.2812,8.2812,8.2812,8.2812,8.2812,8.2812,8.2812,8.2812,8.2812,8.2812,8.2812,8.2812,8.2812,8.2812,8.2812,8.2812,8.2812,8.2812,8.2812,8.2843,8.3596,8.4897,8.5746,8.6722,8.7594,8.8331,8.8782,8.8823,8.9182,8.9473,8.9531,8.9679,8.9677,8.9517,8.9424,8.9388,8.9446,8.9492,8.9461,8.9449,8.9642,8.9763,8.9765,9.0191,9.0609,9.0827,9.1008,9.1098,9.0781,9.0632,9.032,8.9918,8.9833,8.9823,8.9847,8.9881,8.9821,8.9821,8.9821,8.9821,9.0176,9.0314,9.2235,9.4563,9.6267,9.7896,9.9389,10.05,10.0465,10.0478,10.0478,10.023,10.0115,9.9899,9.9814,9.9324,9.8647,9.789,9.6877,9.6409,9.5966,9.5999,9.6101,9.6339,9.7376,9.8645,9.9733,9.9982,10.0151,10.0396,10.1275,10.2373,10.2675,10.2769,10.3902,10.5242,8.1586,8.1665,8.1776,8.1697,8.1587,8.1823,8.1839,8.1776,8.1979,8.2181,8.229,8.246,8.2629,8.2767,8.2812,8.2812,8.2812,8.2812,8.2812,8.2812,8.2812,8.2812,8.2812,8.2812,8.2812,8.2812,8.2812,8.2812,8.2812,8.2812,8.2812,8.2812,8.2812,8.2812,8.2812,8.2812,8.2812,8.2812,8.2843,8.3477,8.4922,8.6431,8.7744,8.8387,8.8948,8.929,8.9293,8.9582,8.9655,8.9737,8.9773,8.9751,8.9725,8.9522,8.9522,8.9713,8.9737,8.9594,8.958,8.9757,8.9829,8.9832,9.0071,9.025,9.0437,9.0735,9.0962,9.0827,9.0644,9.0355,8.9942,8.9833,8.9906,9.0013,8.993,8.9821,8.9833,8.9821,8.9821,8.9833,8.9869,9.1497,9.4026,9.5892,9.73,9.8757,9.9886,9.9933,10.0478,10.0478,10.0465,10.0417,10.0367,10.0296,9.9927,9.9182,9.806,9.7118,9.6596,9.6285,9.6256,9.6415,9.7383,9.8321,9.9575,10.0158,10.0318,10.0478,10.0478,10.0629,10.101,10.1392,10.1716,10.2653,10.3835,8.1555,8.1459,8.1602,8.146,8.1254,8.1523,8.1665,8.1697,8.1995,8.2259,8.2413,8.2552,8.269,8.2782,8.2812,8.2812,8.2812,8.2812,8.2812,8.2812,8.2812,8.2812,8.2812,8.2812,8.2812,8.2812,8.2812,8.2812,8.2812,8.2812,8.2812,8.2812,8.2812,8.2812,8.2812,8.2812,8.2812,8.2812,8.2858,8.3296,8.4332,8.5784,8.7324,8.8216,8.8919,8.9265,8.9461,8.9606,8.9821,8.9821,8.9821,8.9821,8.9763,8.9703,8.9701,8.9785,8.9809,8.9929,9.0486,8.9983,9.0134,9.035,9.0261,9.0179,9.0157,9.0448,9.0724,9.0678,9.0575,9.0413,9.0026,9.0025,9.005,9.0144,9.012,8.9966,8.9847,8.9833,8.9821,8.9821,9.0044,9.1273,9.3671,9.5208,9.6646,9.79,9.9051,9.9782,10.0443,10.0478,10.0478,10.0441,10.0441,10.0404,10.0222,9.9152,9.7958,9.7275,9.6805,9.67,9.6814,9.7569,9.8422,9.9195,9.9693,10.0345,10.0478,10.0478,10.0478,10.0547,10.0733,10.0871,10.0953,10.1349,10.2511,8.1603,8.1348,8.1412,8.1191,8.0937,8.1349,8.1554,8.1633,8.2166,8.2429,8.2506,8.2644,8.2721,8.2812,8.2812,8.2812,8.2812,8.2812,8.2812,8.2812,8.2812,8.2812,8.2812,8.2812,8.2812,8.2812,8.2812,8.2812,8.2812,8.2812,8.2812,8.2812,8.2812,8.2812,8.2812,8.2812,8.2812,8.2812,8.2828,8.3298,8.4142,8.5292,8.6527,8.8263,8.8819,8.908,8.9228,8.9558,8.9821,8.9821,8.9821,8.9821,8.9787,8.9847,8.9835,8.9835,8.9859,9.0164,9.0822,9.0498,9.0849,9.1019,9.0943,9.0481,9.0071,9.0273,9.0575,9.0598,9.0575,9.0517,9.0262,9.0121,9.0156,9.0192,9.0168,8.9991,8.9847,8.9821,8.9821,8.9845,9.0278,9.112,9.2742,9.4311,9.5964,9.7469,9.8234,9.8835,9.9611,9.9957,10.0247,10.0386,10.042,10.0374,10.0478,9.9238,9.8222,9.7657,9.7472,9.7383,9.7809,9.8608,9.9242,9.977,10.029,10.0478,10.0478,10.0478,10.0478,10.0478,10.0478,10.0512,10.0629,10.0849,10.1804,8.1302,8.0969,8.1301,8.1191,8.0985,8.1524,8.176,8.1807,8.2212,8.2552,8.2721,8.2552,8.2659,8.2782,8.2812,8.2812,8.2812,8.2812,8.267,8.2639,8.2608,8.2576,8.2561,8.2498,8.2435,8.2812,8.2655,8.2781,8.2781,8.2812,8.2812,8.2812,8.2812,8.2812,8.2812,8.2812,8.2812,8.2812,8.2828,8.3311,8.4463,8.5164,8.6472,8.8062,8.8769,8.9056,8.9302,8.9594,8.9821,8.9821,8.9821,8.9821,8.9859,8.9955,9.005,8.9801,8.9979,9.0273,9.0607,9.1029,9.1053,9.0073,9.0943,9.1043,9.0203,9.0249,9.0483,9.0552,9.0552,9.0494,9.0506,9.0226,9.0168,9.0308,9.0108,8.9882,8.9799,8.9821,8.9811,8.9859,9.02,9.1102,9.2448,9.3266,9.5252,9.6906,9.7276,9.7772,9.8593,9.9217,9.9796,10.0086,9.9969,9.9923,10.0374,9.9571,9.8753,9.8321,9.8295,9.8415,9.8753,9.9315,9.9774,10.0347,10.042,10.0478,10.0478,10.0478,10.0478,10.0478,10.0478,10.0478,10.0478,10.0478,10.071,8.1016,8.0889,8.1064,8.1175,8.1191,8.1461,8.1823,8.2166,8.2367,8.2583,8.2751,8.2705,8.2705,8.2812,8.2812,8.2812,8.2812,8.2781,8.2465,8.1898,8.1772,8.1772,8.1694,8.1127,8.1111,8.1709,8.1772,8.2245,8.2655,8.2812,8.2812,8.2812,8.2812,8.2812,8.2812,8.2812,8.2812,8.2812,8.2828,8.3432,8.4565,8.5154,8.6204,8.7562,8.8446,8.8923,8.9204,8.957,8.9785,8.9763,8.9667,8.9677,8.9799,8.9884,9.0108,9.0085,9.0167,9.0215,9.0683,9.1105,9.1095,9.1065,9.0958,9.0531,9.0015,9.0085,9.0308,9.0262,9.032,9.0401,9.0378,9.0168,9.0215,9.0367,9.0296,9.0108,8.9905,8.9833,8.9859,9.0016,9.0226,9.1252,9.1849,9.2054,9.3656,9.5518,9.5969,9.5356,9.6281,9.7888,9.8675,9.9266,9.9265,9.9472,9.9957,9.959,9.8535,9.8711,9.8732,9.9118,9.9447,9.9895,10.0271,10.0098,10.0028,10.0155,10.0478,10.0478,10.0478,10.0478,10.0478,10.0478,10.0478,10.0478,10.0478,8.0857,8.0857,8.0857,8.1048,8.1317,8.1475,8.1822,8.229,8.2367,8.2536,8.2751,8.2736,8.2751,8.2812,8.2812,8.2812,8.2812,8.2371,8.1898,8.0856,8.062,8.0305,7.9692,7.8954,7.9361,8.0667,8.0887,8.1567,8.2529,8.2812,8.2812,8.2812,8.2812,8.2812,8.2812,8.2812,8.2812,8.2812,8.2812,8.3477,8.4521,8.5054,8.5821,8.7104,8.792,8.8496,8.8848,8.9351,8.9606,8.9582,8.9449,8.9388,8.9582,8.9751,8.999,9.019,9.0071,9.042,9.1298,9.1087,9.0986,9.1519,9.1066,9.0309,8.9767,9.0026,9.0063,8.998,9.0063,9.0192,9.025,9.0413,9.0378,9.0297,9.0297,9.0262,8.9918,8.9821,8.9952,9.0133,9.0412,9.0827,9.1313,9.1507,9.2235,9.3842,9.3888,9.3113,9.4338,9.6085,9.7011,9.7811,9.7809,9.783,9.8107,9.7732,9.7773,9.85,9.9053,9.9562,10.0012,10.042,10.0259,10.0028,9.9798,10.0063,10.0455,10.0478,10.0478,10.0478,10.0478,10.0478,10.0478,10.0478,10.0478,8.0857,8.0857,8.0857,8.0889,8.1033,8.1571,8.1838,8.1963,8.2228,8.2521,8.2643,8.2552,8.2583,8.2812,8.2751,8.2797,8.275,8.1929,8.1204,8.0589,7.9629,7.8401,7.7551,7.7079,7.8353,8.0352,8.0824,8.1552,8.2513,8.2812,8.2812,8.2812,8.2812,8.2812,8.2812,8.2812,8.2812,8.2812,8.2812,8.3447,8.4434,8.5001,8.5681,8.6821,8.7443,8.7889,8.8318,8.8832,8.9118,8.9084,8.9068,8.9139,8.9179,8.9596,8.9836,8.9894,9.0037,9.0154,9.0475,9.1256,9.1578,9.1028,9.1453,9.1445,9.0334,9.0087,9.0157,9.0051,9.0145,9.0169,9.0191,9.0215,9.0215,9.0203,9.018,9.0109,8.9882,8.9821,8.9925,9.0135,9.0423,9.0804,9.1165,9.1402,9.1506,9.2813,9.2477,9.2279,9.3365,9.4419,9.5078,9.6085,9.6363,9.6293,9.62,9.6038,9.7044,9.8118,9.8699,9.9434,9.9862,9.99,9.9969,10.0224,10.0155,10.0282,10.0478,10.0478,10.0478,10.0478,10.0478,10.0478,10.0478,10.0478,10.0478,8.0857,8.0857,8.0857,8.1,8.1207,8.1508,8.1682,8.187,8.2041,8.2135,8.2181,8.2135,8.2259,8.2552,8.2583,8.2659,8.2734,8.2245,8.152,8.0746,7.9394,7.7586,7.5994,7.5585,7.6985,7.9392,7.9629,8.0859,8.2498,8.2812,8.2812,8.2812,8.2812,8.2812,8.2812,8.2812,8.2812,8.2812,8.2843,8.3236,8.4142,8.4669,8.5428,8.6192,8.6956,8.7424,8.7837,8.8446,8.8819,8.8832,8.8965,8.9015,8.9015,8.9509,8.9715,8.9592,8.9811,8.9967,9.0104,9.0563,9.069,9.0393,9.0613,9.0563,9.0186,9.0134,9.011,9.0026,9.0087,9.0097,9.0003,8.9955,8.9967,9.0013,8.9991,8.9909,8.9823,8.9821,8.994,9.0201,9.0471,9.0769,9.0849,9.1188,9.1299,9.1367,9.1367,9.1861,9.2436,9.2486,9.3076,9.4369,9.5006,9.5344,9.5414,9.5079,9.5634,9.6859,9.7672,9.8679,9.8871,9.8721,9.8903,9.9316,10.006,10.0478,10.0478,10.0478,10.0478,10.0478,10.0478,10.0478,10.0478,10.0478,10.0478,8.0857,8.0857,8.0857,8.1032,8.127,8.1412,8.157,8.176,8.1744,8.1807,8.1807,8.1791,8.1932,8.2259,8.2367,8.2553,8.2564,8.2326,8.1552,8.0291,7.9384,7.7503,7.5065,7.4594,7.6036,7.845,7.8939,8.0152,8.2655,8.2812,8.2812,8.2812,8.2812,8.2812,8.2812,8.2812,8.2812,8.2812,8.2812,8.3162,8.3805,8.4434,8.5234,8.6123,8.6733,8.7474,8.8505,8.8453,8.8331,8.8352,8.8341,8.8331,8.8652,8.88,8.9046,8.9368,8.9664,8.9833,8.987,9.0107,9.0131,8.9978,9.0212,9.0122,8.9942,9.0028,8.9969,8.993,8.9978,9.0025,8.9847,8.9799,8.9811,8.9811,8.9775,8.9693,8.9679,8.9785,8.9942,9.0216,9.0494,9.0701,9.086,9.1143,9.1367,9.1367,9.1424,9.1687,9.2409,9.2653,9.2724,9.3646,9.404,9.4429,9.4639,9.4199,9.4442,9.5738,9.6339,9.7137,9.7045,9.7276,9.784,9.8206,9.8803,9.9137,9.9506,10.0096,10.0443,10.0478,10.0478,10.0478,10.0478,10.0269,10.0235,8.0857,8.0857,8.0857,8.0873,8.0984,8.127,8.1428,8.1459,8.1459,8.1556,8.1697,8.1555,8.1618,8.1885,8.2197,8.2413,8.2333,8.1698,8.0622,7.9669,7.96,7.8261,7.5128,7.4655,7.5959,7.8218,7.8656,8.0152,8.2513,8.2875,8.2812,8.3033,8.3158,8.2938,8.3237,8.2907,8.3096,8.3096,8.3033,8.3353,8.3843,8.4519,8.5686,8.7414,8.7116,8.7876,8.9576,8.8552,8.7588,8.7494,8.6937,8.6976,8.7786,8.7482,8.7875,8.8907,8.9584,8.9637,8.9766,8.99,9.0144,9.0121,9.0168,9.0157,9.0109,8.9967,8.9859,8.9811,8.9847,8.9847,8.9847,8.9799,8.9775,8.9742,8.9883,8.9747,8.9514,8.9779,9.0249,9.0593,9.0527,9.0586,9.1098,9.1267,9.1367,9.1378,9.1435,9.2109,9.2691,9.262,9.2887,9.3049,9.3221,9.3752,9.4568,9.4094,9.377,9.4441,9.4129,9.451,9.4498,9.5703,9.6663,9.6999,9.7429,9.7658,9.8073,9.8986,9.9576,9.9506,9.9749,10.0374,10.0304,9.9923,9.9853,8.0857,8.0857,8.0857,8.0857,8.0873,8.1016,8.1111,8.108,8.108,8.116,8.1223,8.1128,8.1335,8.1776,8.1979,8.2243,8.2612,8.2294,8.1211,8.0011,8.0432,7.9304,7.7061,7.5948,7.6222,7.72,7.8252,7.9755,8.1583,8.3236,8.4149,8.4353,8.5045,8.5439,8.547,8.5439,8.4998,8.4416,8.4951,8.5171,8.4861,8.5547,8.6472,8.7067,8.6893,8.7303,8.8178,8.7705,8.7702,8.832,8.691,8.5766,8.5643,8.6434,8.6678,8.6724,8.7349,8.8235,8.8315,8.9222,9.0003,9.0144,9.0038,9.0015,9.0121,8.9978,8.9833,8.9821,8.9833,8.987,8.9967,8.9918,8.9642,8.9354,9.0484,9.11,9.0751,9.0999,9.1389,9.1425,9.0926,9.0608,9.0816,9.1043,9.1367,9.14,9.15,9.2101,9.2223,9.2286,9.2406,9.2547,9.3041,9.379,9.4321,9.408,9.3512,9.3082,9.2675,9.2889,9.3102,9.4425,9.5492,9.5862,9.5933,9.6143,9.6265,9.7328,9.8327,9.7934,9.776,9.8084,9.8188,9.8258,9.9576,8.0857,8.0857,8.0857,8.0857,8.0857,8.0857,8.0857,8.0857,8.0857,8.0857,8.0857,8.0857,8.1113,8.1462,8.1682,8.1948,8.2367,8.2535,8.183,8.0597,8.1012,8.0275,7.8438,7.7343,7.6623,7.6586,7.8351,8.0322,8.2337,8.4526,8.5628,8.5769,8.6588,8.706,8.6965,8.7076,8.6794,8.6021,8.6289,8.6463,8.6377,8.6259,8.6797,8.7593,8.708,8.6941,8.727,8.6623,8.6885,8.7967,8.6524,8.5335,8.4825,8.5128,8.5071,8.464,8.5807,8.6564,8.6839,8.781,8.8486,8.8658,8.9079,8.9273,8.9388,8.9694,8.9884,8.9799,8.9882,8.9942,9.0026,8.9943,8.9848,8.957,9.1623,9.2753,9.1958,9.1908,9.2316,9.2482,9.1362,9.0963,9.1471,9.1146,9.1402,9.1389,9.15,9.201,9.2465,9.285,9.2852,9.365,9.3928,9.4743,9.5336,9.5434,9.4571,9.3786,9.3006,9.2712,9.2686,9.3324,9.4159,9.4612,9.4571,9.4591,9.4638,9.5293,9.6418,9.6651,9.635,9.6038,9.5761,9.6917,9.8755,8.0857,8.0857,8.0857,8.0857,8.0857,8.0857,8.0857,8.0857,8.0857,8.0857,8.0857,8.0857,8.0905,8.1032,8.1349,8.1459,8.1634,8.2135,8.1648,8.0663,8.1755,8.0925,7.8755,7.8457,7.7689,7.6563,7.9294,8.2039,8.4416,8.6131,8.706,8.7076,8.7328,8.7611,8.7249,8.7501,8.7553,8.7489,8.6383,8.6569,8.8339,8.6589,8.6879,8.9337,8.7926,8.742,8.8595,8.6012,8.4856,8.5252,8.5148,8.5533,8.5367,8.3702,8.2906,8.4015,8.47,8.5091,8.5354,8.5763,8.6059,8.615,8.7142,8.7895,8.8007,8.9046,8.9799,8.9691,8.9912,9.0133,9.0001,8.9972,9.0102,9.0746,9.2544,9.3518,9.2729,9.2301,9.2493,9.2973,9.2239,9.178,9.3082,9.2524,9.1586,9.1586,9.1711,9.2213,9.3529,9.4149,9.5133,9.6197,9.6356,9.7003,9.7074,9.6673,9.5478,9.4438,9.36,9.2514,9.2533,9.2578,9.346,9.3426,9.3387,9.3384,9.3448,9.382,9.4836,9.4963,9.509,9.4859,9.4813,9.5287,9.731,8.0857,8.0857,8.0857,8.0857,8.0857,8.0857,8.0857,8.0857,8.0857,8.0857,8.0857,8.0857,8.1016,8.1238,8.1364,8.1333,8.1144,8.1729,8.1777,8.148,8.2271,8.199,8.0747,8.0086,7.8868,7.7707,7.8643,8.065,8.3567,8.6808,8.835,8.8476,8.9422,8.9862,8.9862,8.9831,8.9361,8.8816,8.8535,8.871,8.9514,8.8816,8.9364,9.0756,8.9302,8.8365,8.8727,8.5952,8.4619,8.4859,8.3341,8.303,8.434,8.2994,8.1903,8.1693,8.2779,8.3538,8.3741,8.4773,8.5455,8.5625,8.6013,8.6275,8.6446,8.7654,8.8441,8.8864,8.9483,9.0332,9.0334,8.9703,8.9485,9.0481,9.2351,9.3216,9.2523,9.4411,9.518,9.4572,9.4433,9.436,9.3762,9.2318,9.198,9.2835,9.3016,9.3298,9.4293,9.5237,9.6548,9.7183,9.7478,9.9025,9.9943,9.7656,9.567,9.5499,9.4885,9.3306,9.263,9.2619,9.2708,9.239,9.2277,9.2254,9.243,9.2721,9.2807,9.2684,9.3031,9.3493,9.3504,9.3806,9.4836,8.0857,8.0857,8.0857,8.0857,8.0857,8.0857,8.0857,8.0857,8.0857,8.0857,8.0857,8.0857,8.0969,8.1285,8.138,8.1222,8.0937,8.154,8.1823,8.1823,8.1881,8.1769,8.1337,8.0241,7.8882,7.7685,7.8037,8.0154,8.3615,8.7216,8.9294,8.9877,9.0759,9.087,9.0539,9.0885,9.0325,8.8912,8.9043,8.9853,9.0704,8.9775,9.0206,9.1896,8.999,8.8826,8.8826,8.5534,8.3669,8.3559,8.2532,8.1959,8.2176,8.2071,8.1476,8.052,8.132,8.1996,8.2198,8.3115,8.3816,8.3983,8.4283,8.4637,8.5021,8.6161,8.7119,8.737,8.825,8.8957,8.9234,8.9115,8.9063,9.0024,9.2298,9.3801,9.3431,9.4974,9.6397,9.5522,9.5918,9.615,9.4304,9.2492,9.1784,9.2548,9.2833,9.3019,9.3607,9.4876,9.6204,9.7261,9.8306,9.9617,10.1613,9.8704,9.6532,9.6564,9.605,9.4544,9.2638,9.2414,9.2306,9.2059,9.2078,9.2067,9.2012,9.2266,9.2162,9.1972,9.185,9.209,9.1609,9.238,9.3009,8.0935,8.0936,8.1011,8.1134,8.0935,8.0812,8.0765,8.0873,8.0581,8.0673,8.0673,8.072,8.0751,8.0753,8.1102,8.1162,8.0939,8.1262,8.1434,8.1481,8.0651,8.0389,8.0578,7.9133,7.7832,7.6926,7.7851,8.0402,8.4259,8.7343,8.9609,9.0902,9.0885,9.035,8.9515,9.0507,9.0127,8.8408,8.82,8.93,9.1257,8.9189,8.9081,9.1192,8.971,8.8398,8.8064,8.4646,8.1943,8.0618,8.2038,8.1865,7.9758,8.0916,8.1455,8.0619,8.056,8.068,8.0921,8.1066,8.1111,8.1179,8.2364,8.3103,8.327,8.4824,8.5768,8.5701,8.6063,8.6411,8.6808,8.7661,8.8482,8.9038,9.2436,9.3623,9.284,9.3655,9.4821,9.503,9.5577,9.604,9.5869,9.3243,9.1673,9.1962,9.1764,9.2066,9.2927,9.3767,9.5379,9.6855,9.7758,9.8479,10.0909,9.9701,9.8452,9.7533,9.6508,9.612,9.3939,9.2143,9.1977,9.1886,9.2057,9.2057,9.1856,9.1764,9.1742,9.1694,9.1585,9.1554,9.1629,9.1567,9.1758,8.2165,8.1608,8.3123,8.3301,8.224,8.0335,7.9951,8.0597,7.8738,7.8538,7.9414,7.9459,7.9569,7.9758,8.0146,8.0548,8.0616,7.9465,7.9261,7.9852,7.9234,7.8788,7.862,7.8556,7.7839,7.68,7.7856,7.9229,8.067,8.4148,8.7264,8.9278,8.9609,8.942,8.9215,9.0476,9.0355,8.8832,8.8249,8.8912,9.0052,8.7823,8.7193,8.8618,8.678,8.5558,8.5505,8.25,8.0678,8.0486,8.0143,7.9792,7.9421,8.0137,8.0555,8.0493,8.0656,8.0786,8.0861,8.0872,8.0872,8.0896,8.1203,8.1598,8.1986,8.3226,8.4199,8.4477,8.386,8.4025,8.4884,8.5508,8.6226,8.7242,8.8194,8.8932,8.8731,9.0684,9.2506,9.3612,9.5173,9.7305,9.7569,9.4229,9.2218,9.4847,9.5044,9.4708,9.5108,9.5401,9.6029,9.6972,9.826,9.8915,9.869,9.9113,9.8574,9.7349,9.6902,9.6138,9.3405,9.271,9.2452,9.2049,9.2298,9.2344,9.1966,9.179,9.1761,9.1818,9.1748,9.1653,9.164,9.15,9.1389,8.2203,8.171,8.2821,8.284,8.1871,7.9828,7.9383,7.9952,7.8478,7.7954,7.8262,7.783,7.7953,7.8554,7.951,7.9991,8.011,7.9108,7.8746,7.8807,7.7936,7.7441,7.7381,7.7627,7.6963,7.578,7.6997,7.7803,7.8436,8.0922,8.4086,8.7012,8.7358,8.7044,8.665,8.8476,8.8476,8.6603,8.6949,8.7562,8.7989,8.6034,8.5244,8.5849,8.4421,8.3454,8.325,8.0833,7.9442,7.9548,7.9009,7.8922,7.933,7.9767,8.0127,8.0304,8.0667,8.0872,8.0872,8.0872,8.0872,8.0872,8.0872,8.0969,8.1271,8.211,8.2941,8.3383,8.2795,8.2566,8.3438,8.3587,8.4201,8.5567,8.633,8.6701,8.6524,8.8565,9.0435,9.1804,9.3421,9.5131,9.6313,9.3963,9.3183,9.5088,9.6569,9.583,9.5237,9.4926,9.5121,9.6013,9.7591,9.8146,9.7845,9.869,9.8246,9.6581,9.6205,9.5909,9.3474,9.2745,9.2617,9.2264,9.2483,9.2462,9.2041,9.1983,9.1947,9.1775,9.1762,9.1707,9.1576,9.1455,9.1378,8.1805,8.1791,8.1655,8.1121,8.0583,7.9106,7.8692,7.8969,7.8725,7.8075,7.69,7.6171,7.639,7.73,7.878,7.9371,7.9326,7.9371,7.8975,7.8137,7.6806,7.6301,7.6448,7.6407,7.5672,7.4922,7.5842,7.6526,7.667,7.8052,8.0511,8.3771,8.4573,8.4243,8.3551,8.5722,8.5816,8.3346,8.4811,8.5657,8.5622,8.4413,8.3562,8.3402,8.2502,8.2039,8.2032,7.964,7.8322,7.8337,7.8611,7.8851,7.9167,7.9651,7.9902,7.9967,8.0373,8.0702,8.0667,8.0793,8.0872,8.0872,8.0872,8.1001,8.1361,8.1617,8.2039,8.2613,8.2507,8.2239,8.2219,8.2279,8.2948,8.4311,8.5387,8.6288,8.6174,8.7321,8.8624,9.0035,9.0447,9.1172,9.3621,9.375,9.3399,9.4131,9.5702,9.6328,9.454,9.323,9.2958,9.4349,9.5973,9.691,9.6887,9.8268,9.7789,9.5483,9.5233,9.4621,9.3494,9.271,9.2658,9.2421,9.2607,9.2607,9.2365,9.2312,9.2235,9.2009,9.1781,9.1751,9.1748,9.1585,9.1618,8.2991,8.2478,8.3848,8.2598,7.945,7.6878,7.7093,7.8832,7.5945,7.4475,7.4407,7.5591,7.5955,7.5799,7.6421,7.7545,7.8601,7.7102,7.6786,7.7387,7.6428,7.5488,7.5013,7.6092,7.5956,7.4914,7.6019,7.6099,7.5424,7.674,7.7971,7.8811,8.1742,8.3709,8.4463,8.5512,8.6082,8.6021,8.4398,8.4216,8.5626,8.493,8.3623,8.1876,8.1001,8.0668,8.0758,7.9042,7.8131,7.8313,7.8578,7.8946,7.9377,7.9801,7.9752,7.9088,7.9134,7.9232,7.9255,8.0224,8.0872,8.0872,8.0872,8.1203,8.1889,8.2152,8.2423,8.2686,8.2486,8.2239,8.2219,8.2219,8.2453,8.2939,8.3366,8.3639,8.3624,8.4541,8.5797,8.7239,8.9039,9.0422,9.1776,9.3907,9.4993,9.4408,9.5483,9.5747,9.4203,9.277,9.2184,9.3066,9.4397,9.5121,9.4142,9.6074,9.6391,9.378,9.3428,9.3308,9.3061,9.271,9.2607,9.2323,9.2448,9.2586,9.2406,9.2493,9.2473,9.2186,9.1802,9.1596,9.1811,9.1724,9.1896,8.2196,8.1418,8.2157,8.1334,7.9449,7.7644,7.7491,7.8059,7.5057,7.3754,7.3828,7.4964,7.5465,7.551,7.5732,7.6334,7.7169,7.603,7.5678,7.59,7.5502,7.4992,7.4623,7.6033,7.604,7.483,7.6103,7.604,7.4843,7.5548,7.5927,7.6085,7.9254,8.1316,8.2102,8.3034,8.403,8.4998,8.2042,8.1771,8.4524,8.2542,8.0912,7.9786,7.9371,7.9112,7.9112,7.773,7.6962,7.6994,7.6685,7.6719,7.7266,7.7691,7.779,7.7499,7.7599,7.7334,7.6651,7.7313,7.8164,7.9181,7.9829,8.0753,8.1925,8.1861,8.2141,8.3042,8.2934,8.2617,8.2225,8.2219,8.2354,8.257,8.263,8.265,8.2758,8.3212,8.3938,8.5435,8.6735,8.7993,8.9419,9.1504,9.3082,9.4928,9.4253,9.3863,9.3103,9.1883,9.114,9.1514,9.2899,9.3418,9.3051,9.4786,9.5103,9.3157,9.2745,9.271,9.271,9.271,9.2607,9.2385,9.2524,9.2628,9.2555,9.2628,9.2586,9.2354,9.1897,9.167,9.1781,9.1792,9.2241,8.0456,7.9658,7.9033,7.8986,7.9348,7.9261,7.8304,7.6726,7.49,7.4012,7.3906,7.407,7.4609,7.534,7.5256,7.5241,7.526,7.557,7.5254,7.4428,7.4895,7.4988,7.4936,7.6372,7.6323,7.5113,7.6197,7.604,7.4784,7.4741,7.4755,7.5042,7.729,7.8608,7.87,7.9935,8.1297,8.2629,7.9749,7.9874,8.3247,8.0291,7.8598,7.8298,7.8252,7.8031,7.759,7.6382,7.5529,7.5107,7.4276,7.39,7.4227,7.4742,7.4921,7.4776,7.4975,7.4467,7.3018,7.314,7.4172,7.6274,7.8037,7.9655,8.111,8.0933,8.1355,8.2808,8.2718,8.2502,8.1806,8.1812,8.201,8.2197,8.2466,8.2669,8.2755,8.2591,8.2919,8.4196,8.4282,8.5395,8.7359,8.8329,9.0432,9.3744,9.3325,9.2025,9.224,9.1017,9.0251,9.0522,9.1548,9.2232,9.2136,9.3413,9.3237,9.2418,9.2006,9.1689,9.1689,9.2217,9.2699,9.2734,9.2689,9.2734,9.2699,9.271,9.2628,9.2493,9.2271,9.2003,9.1902,9.1802,9.2225,7.8593,7.8878,7.8258,7.7497,7.6941,7.8257,7.7102,7.4257,7.3593,0.0,0.0,7.1902,7.2328,7.3188,7.2703,7.3458,7.5184,7.5304,7.521,7.5111,7.6565,7.6748,7.6019,7.7611,7.7663,7.6463,7.6638,7.604,7.4704,7.5072,7.5167,7.5122,7.6844,7.7873,7.8139,7.8984,8.0368,8.2169,8.1714,8.2057,8.3349,8.3859,8.2725,7.9798,7.951,7.8928,7.7907,7.613,7.4734,7.3727,7.3494,7.3038,7.2323,7.2705,7.1724,6.8941,6.8775,6.8391,6.7458,6.8612,7.014,7.1786,7.4808,7.7213,7.8511,7.9428,8.0041,8.0352,8.0049,7.965,7.9083,8.013,8.0873,8.0735,8.1846,8.2585,8.2624,8.2669,8.2591,8.2775,8.3823,8.4902,8.5468,8.6732,8.9001,9.192,9.1968,9.199,9.3404,9.159,8.991,9.016,9.0497,9.0633,9.022,8.9974,8.9552,9.0185,8.9552,8.8918,8.927,9.0985,9.2523,9.2579,9.271,9.2639,9.2674,9.2544,9.2689,9.2638,9.2607,9.2504,9.2306,9.2046,9.2283,7.6364,7.6068,7.5067,7.4784,0.0,7.531,7.4375,7.2803,7.3067,7.2915,7.2486,7.2313,7.2338,7.257,7.183,7.2029,7.2828,7.2625,7.2949,7.3689,7.4642,7.5124,7.5243,7.6937,7.6977,7.5561,7.6379,7.6249,7.5271,7.5099,7.5315,7.5802,7.6967,7.7769,7.8144,7.8412,7.9691,8.2009,8.1688,8.1963,8.2767,8.2673,8.1447,7.9128,7.8876,0.0,0.0,0.0,0.0,0.0,0.0,0.0,0.0,6.9073,6.7682,6.4622,6.4219,6.3305,6.1605,6.2147,6.3328,6.5061,6.8524,7.0718,7.0911,7.4493,7.7191,7.8445,7.8465,7.8394,7.8513,7.9203,7.9602,7.9476,7.9955,8.0423,8.0552,8.1137,8.1539,8.1666,8.2892,8.4147,8.4963,8.5388,8.6753,8.9808,9.0025,9.0116,9.1101,8.8866,8.7522,8.8928,8.9219,8.8953,8.8224,8.7932,8.8425,8.8928,8.7459,8.6323,8.7078,9.0271,9.2353,9.1367,9.114,9.1236,9.1432,9.0868,9.0855,9.2268,9.271,9.2462,9.1333,9.1058,9.1542,7.3757,7.2877,7.1716,7.2084,7.3215,7.1202,7.0372,7.0466,7.1304,7.1749,7.184,7.1795,7.1653,7.1532,7.0925,7.0519,7.0372,7.0141,7.0663,7.1758,7.2197,7.2932,7.3896,7.5271,7.5282,7.4111,7.5103,7.5462,7.5068,7.4481,7.478,7.5916,7.6728,7.7363,7.7845,0.0,0.0,0.0,8.1227,8.1301,8.1778,8.0507,7.9182,7.8026,7.7648,0.0,7.4469,7.3065,7.1363,6.9287,6.8158,0.0,6.6083,0.0,0.0,0.0,0.0,0.0,0.0,0.0,0.0,0.0,6.1044,6.312,6.3882,6.8767,7.3085,7.5672,7.6216,7.6604,7.7062,7.7363,7.748,7.7331,7.7358,7.7631,7.8184,7.9086,7.9905,8.0404,8.1743,8.3073,8.4163,8.4291,8.5228,8.8114,8.8356,8.8336,8.868,8.6373,8.5432,8.7763,8.7993,8.7209,8.6092,8.656,8.7168,8.7836,8.5407,8.429,8.575,8.9155,9.1035,8.9753,8.9327,8.9515,8.9829,8.8949,8.8977,9.1301,9.2287,9.2085,9.0095,8.9593,9.0318,7.0548,7.0435,7.0244,7.0483,7.0654,6.5934,6.4325,6.5001,6.5567,6.6154,6.6642,6.6319,6.6886,6.8098,6.811,6.8694,6.9738,7.0124,7.0319,7.0341,7.1584,7.2254,7.2402,7.2842,7.3071,7.3037,7.2007,7.1845,7.2415,7.2527,7.2928,7.3581,7.4837,7.5787,7.6283,7.6271,7.7583,8.0261,8.1244,8.129,8.0364,8.0142,7.9378,7.7981,7.6522,7.503,7.3508,7.147,6.9541,6.781,6.6183,6.5003,6.4275,6.101,5.7053,0.0,5.1613,0.0,0.0,0.0,0.0,0.0,0.0,0.0,0.0,6.441,6.6906,6.9833,7.1346,7.1952,7.1466,7.2543,7.3179,7.2838,7.3969,7.5378,7.6792,7.7346,7.7931,7.8929,8.0651,8.1658,8.1614,8.4256,8.6505,8.7671,8.807,8.8034,8.7825,8.7228,8.7472,8.9728,8.7794,8.5623,8.4483,8.4105,8.4255,8.4264,8.3727,8.3515,8.3868,8.6569,8.8599,8.8266,8.8089,8.821,8.8309,8.8191,8.8151,8.8832,9.0703,9.1327,8.9035,8.8143,8.8546,6.6818,6.6933,6.6274,6.6183,6.6298,6.4553,6.4016,6.4553,6.5514,6.5959,6.6012,6.6272,6.6727,6.7212,6.6907,6.7033,6.7431,6.7748,6.8191,6.8822,6.9979,7.0785,7.1385,7.149,7.1595,7.168,7.1079,7.1297,7.2228,7.226,7.2822,7.3745,7.4315,7.4119,7.3281,7.4726,7.6542,7.8795,8.0258,8.1151,8.1244,8.1257,8.06,7.914,7.6861,7.4639,7.2487,7.0728,6.8427,6.557,6.4689,6.3172,6.0813,5.7508,5.3564,0.0,0.0,0.0,0.0,0.0,0.0,0.0,0.0,0.0,0.0,0.0,6.1437,6.3693,6.6819,6.9024,6.9654,7.0001,6.9393,6.7293,6.8431,6.924,6.9121,7.2237,7.4207,7.3835,7.7632,7.9903,7.8823,8.1351,8.3791,8.5167,8.4874,8.4714,8.5141,8.464,8.5067,8.7308,8.5907,8.4429,8.4738,8.3973,8.341,8.341,8.341,8.341,8.3454,8.4562,8.5456,8.5486,8.5486,8.5786,8.6915,8.6341,8.6358,8.7907,8.8249,8.7545,8.7219,8.7001,8.744,6.3912,6.3678,5.9701,5.8789,6.0016,6.0776,6.1807,6.3029,6.4205,6.4489,6.4205,6.491,6.4874,6.434,6.4064,6.4045,6.4246,6.4733,6.5658,6.696,6.7439,6.8089,6.8851,6.8871,6.8883,6.8938,6.8764,6.9395,7.069,7.0436,7.1039,7.2406,7.2136,7.1305,7.0238,7.2761,7.5449,7.8072,7.9799,8.1358,8.2821,8.1989,8.0658,7.8907,7.6317,7.3844,7.1598,6.9572,6.7104,6.4113,6.2698,6.0843,5.8209,5.3762,0.0,0.0,0.0,0.0,0.0,0.0,0.0,0.0,0.0,4.5763,4.8981,0.0,5.5995,0.0,6.1912,6.5308,6.7511,6.682,0.0,0.0,6.2526,6.2637,6.2318,6.6324,6.8955,6.8414,7.3593,7.6891,7.5891,7.8426,8.054,8.0995,8.0504,8.0593,8.2091,8.1271,8.1508,8.3849,8.3295,8.2828,8.3999,8.3295,8.2485,8.3278,8.2732,8.2246,8.2064,8.2718,8.341,8.3375,8.2882,8.2986,8.4619,8.3589,8.3866,8.6931,8.5628,8.3727,8.4503,8.4711,8.5241,6.2736,6.1547,4.9442,4.6854,5.0622,5.1113,5.3571,5.7233,5.811,5.8343,5.8101,5.8622,5.8005,5.6574,5.7448,0.0,6.0012,6.1466,6.2936,6.4395,6.3636,6.3329,6.3391,6.3455,6.3569,6.3792,6.2912,6.3641,6.5627,6.4913,6.5478,6.735,6.637,6.6389,6.7612,7.012,7.4013,7.9094,8.0488,8.2337,8.4612,8.1336,7.8232,7.5529,7.3458,7.1876,7.0809,6.7267,6.5019,6.4368,5.9678,5.7314,5.7789,0.0,0.0,0.0,0.0,0.0,0.0,0.0,0.0,0.0,0.0,0.0,0.0,0.0,0.0,5.3148,5.6129,0.0,6.3291,6.1368,0.0,0.0,0.0,5.6679,5.9615,6.0374,6.1589,6.3957,0.0,0.0,7.2755,7.6536,7.8227,7.5501,7.6277,7.7671,7.9223,7.9131,7.9502,8.1252,8.0126,7.9695,8.1252,8.0162,8.0003,8.252,8.0989,7.9061,7.8676,8.0843,8.3118,8.3146,8.0989,7.9502,8.0555,7.9747,8.0074,8.3296,8.3517,8.2505,8.0627,8.0549,8.121,5.1722,4.7657,4.2417,4.1876,4.4517,4.3801,4.7152,5.3157,5.2736,5.3411,5.4812,5.5484,5.4162,5.1518,5.2172,0.0,0.0,0.0,5.8667,6.1014,6.1899,6.2762,6.3535,6.3371,6.3556,6.4069,6.3506,6.3454,6.3972,6.4924,6.3335,5.9377,0.0,5.9637,6.1878,6.5523,7.0086,7.5419,7.8356,8.1579,8.5063,8.248,7.9538,7.6396,7.2221,6.9437,6.8309,6.5233,6.2246,5.9484,5.6617,5.3266,0.0,0.0,0.0,0.0,0.0,0.0,0.0,0.0,0.0,0.0,0.0,3.7083,3.8442,0.0,0.0,0.0,4.6451,4.8679,5.5202,5.6298,0.0,0.0,0.0,0.0,0.0,0.0,0.0,5.6853,6.2736,6.6813,6.6916,6.9302,7.1494,7.2668,7.3361,7.437,7.6041,0.0,7.8218,7.9449,7.9106,7.8939,7.9537,7.761,7.7047,8.0065,7.8763,7.741,7.7302,7.8328,7.9316,7.95,7.9166,7.8306,7.6884,7.4501,7.4295,7.9697,7.9703,7.8768,7.8856,7.882,7.894,4.0241,0.0,0.0,0.0,0.0,3.6747,4.0465,4.7239,4.6459,4.7399,4.9562,5.0053,0.0,0.0,0.0,0.0,0.0,0.0,5.4059,5.6479,5.8705,6.0182,6.1055,6.0388,6.0622,6.1548,6.0655,6.024,6.0329,6.0438,5.7256,5.1252,0.0,0.0,0.0,0.0,6.6758,7.2618,7.7536,8.1764,8.5301,8.2824,8.0059,7.702,7.0834,6.6992,6.5774,6.2779,5.9415,5.591,5.2758,0.0,0.0,0.0,0.0,0.0,0.0,0.0,0.0,0.0,0.0,0.0,0.0,0.0,0.0,0.0,0.0,0.0,0.0,0.0,4.7369,5.1083,5.1664,0.0,0.0,0.0,0.0,0.0,0.0,0.0,0.0,0.0,6.056,6.2854,6.6183,0.0,0.0,7.1284,7.2966,7.4244,7.5262,7.5974,7.6115,0.0,7.6115,7.4301,7.3641,7.5771,7.5836,7.5285,7.4359,7.4647,7.5114,7.54,7.5889,7.4968,7.1401,6.8624,6.9556,7.506,7.5177,7.421,7.5299,7.5212,7.5058,0.0,0.0,0.0,0.0,2.9287,0.0,0.0,0.0,3.8806,3.9683,0.0,4.1008,0.0,0.0,0.0,0.0,4.0723,4.5944,0.0,0.0,5.3076,5.4099,5.3749,5.2486,5.2591,5.3957,5.1991,5.1802,5.313,4.8436,4.5195,0.0,0.0,0.0,0.0,0.0,6.4638,7.1613,7.8749,8.3511,8.5284,8.1722,7.8679,7.6307,6.9051,6.463,6.3545,5.9649,5.6762,5.5169,4.7744,0.0,0.0,0.0,0.0,0.0,0.0,0.0,0.0,0.0,0.0,0.0,0.0,0.0,0.0,0.0,0.0,0.0,0.0,0.0,0.0,4.5538,0.0,0.0,0.0,0.0,0.0,0.0,0.0,0.0,0.0,5.4804,5.3873,5.8612,6.3802,6.8316,0.0,0.0,0.0,0.0,6.9886,6.9992,6.9921,6.9964,6.9984,6.9816,6.9781,6.9921,0.0,0.0,6.8257,6.9651,7.1297,7.13,7.0828,6.8454,6.2934,6.2514,6.4795,7.0165,7.0239,6.9294,6.8987,6.8213,6.8442,0.0,0.0,0.0,0.0,0.0,0.0,0.0,0.0,0.0,3.2633,3.4826,3.478,0.0,0.0,0.0,0.0,0.0,0.0,0.0,0.0,4.6417,4.8157,4.9884,4.9194,4.9508,5.0429,4.8622,4.5812,0.0,0.0,0.0,0.0,0.0,0.0,0.0,0.0,6.0306,6.744,7.3513,7.8689,8.2593,7.9077,7.6113,7.4104,6.905,6.4041,5.9296,5.5362,5.1521,0.0,0.0,0.0,0.0,0.0,0.0,0.0,0.0,0.0,0.0,0.0,0.0,0.0,0.0,0.0,0.0,0.0,0.0,0.0,0.0,0.0,0.0,0.0,4.3984,0.0,0.0,0.0,0.0,0.0,0.0,0.0,0.0,0.0,4.4302,5.1698,5.9795,6.642,6.5766,6.5615,6.838,0.0,0.0,0.0,0.0,0.0,0.0,0.0,6.6895,6.8006,6.9432,6.9361,6.6177,6.6433,6.7172,6.7383,0.0,0.0,5.7002,5.7503,6.0982,6.6871,6.5309,6.3283,6.4122,6.2499,6.2188,0.0,0.0,0.0,0.0,0.0,0.0,0.0,0.0,0.0,2.5395,2.7186,0.0,0.0,0.0,0.0,0.0,0.0,0.0,0.0,0.0,0.0,0.0,4.4301,4.373,0.0,0.0,0.0,0.0,0.0,0.0,0.0,0.0,0.0,0.0,0.0,0.0,5.7591,6.527,7.0792,7.5974,8.0723,7.7051,7.3812,7.1402,6.7481,6.2557,5.6418,0.0,0.0,0.0,3.8479,0.0,0.0,0.0,0.0,0.0,0.0,0.0,0.0,0.0,0.0,0.0,0.0,0.0,0.0,0.0,0.0,0.0,0.0,0.0,0.0,0.0,4.0447,0.0,0.0,0.0,0.0,0.0,0.0,0.0,0.0,0.0,0.0,4.6126,5.5671,6.3978,6.3452,6.3278,6.6108,6.6777,6.7249,0.0,0.0,0.0,0.0,0.0,0.0,0.0,0.0,0.0,0.0,0.0,0.0,0.0,6.098,5.7552,5.068,5.1912,5.5635,6.0929,0.0,0.0,0.0,0.0,0.0,0.0,0.0,0.0,0.0,0.0,0.0,0.0,0.0,0.0,0.0,1.8101,0.0,0.0,1.6111,0.0,0.0,0.0,0.0,0.0,0.0,0.0,0.0,0.0,0.0,0.0,0.0,0.0,0.0,0.0,0.0,0.0,0.0,0.0,0.0,0.0,0.0,5.6485,6.5375,7.0779,7.5625,7.9273,7.5642,7.1856,6.8345,6.4298,5.9985,5.5279,0.0,0.0,0.0,0.0,0.0,0.0,0.0,0.0,0.0,0.0,0.0,0.0,0.0,0.0,0.0,0.0,0.0,0.0,0.0,0.0,0.0,0.0,0.0,0.0,0.0,0.0,4.1017,4.3754,4.4131,0.0,0.0,0.0,0.0,0.0,0.0,0.0,0.0,0.0,6.0585,6.1423,6.1609,6.3088,6.415,6.477,6.4833,6.4876,6.4904,6.4946,6.4904,6.4411,0.0,0.0,0.0,0.0,0.0,0.0,0.0,0.0,0.0,0.0,0.0,0.0,0.0,0.0,0.0,0.0,0.0,0.0,0.0,0.0,0.0,0.0,0.0,0.0,0.0,0.0,0.0,0.0,1.5091,1.5001,0.0,0.0,0.0,0.0,0.0,0.0,0.0,0.0,0.0,0.0,0.0,0.0,0.0,0.0,0.0,0.0,0.0,0.0,0.0,0.0,0.0,0.0,0.0,0.0,5.2081,6.0858,6.5459,7.0244,7.5221,7.2199,6.9419,6.6995,6.3185,5.8809,5.3855,0.0,0.0,0.0,0.0,0.0,0.0,0.0,0.0,0.0,0.0,0.0,0.0,0.0,0.0,0.0,0.0,0.0,0.0,0.0,0.0,0.0,0.0,0.0,0.0,0.0,0.0,0.0,4.142,4.174,3.9484,0.0,0.0,0.0,0.0,0.0,0.0,0.0,0.0,0.0,0.0,5.7247,5.9833,6.1064,6.1651,6.1651,6.2594,6.3299,6.3299,6.42,6.3742,6.022,0.0,0.0,0.0,0.0,0.0,0.0,0.0,0.0,0.0,0.0,0.0,0.0,0.0,0.0,0.0,0.0,0.0,0.0,0.0,0.0,0.0,0.0,0.0,0.0,0.0,0.0,0.0,0.0,0.0,0.0,0.0,0.0,0.0,0.0,0.0,0.0,0.0,0.0,0.0,0.0,0.0,0.0,0.0,0.0,0.0,0.0,0.0,0.0,0.0,0.0,0.0,0.0,0.0,5.045,5.9682,6.3917,6.8828,7.4073,7.1566,6.8696,6.5862,6.1895,5.722,0.0,0.0,0.0,0.0,0.0,0.0,0.0,0.0,0.0,0.0,0.0,0.0,0.0,0.0,0.0,0.0,0.0,0.0,0.0,0.0,0.0,0.0,0.0,0.0,0.0,0.0,0.0,0.0,3.8159,3.9254,3.8515,0.0,0.0,0.0,0.0,0.0,0.0,0.0,0.0,0.0,0.0,5.442,5.7497,5.9285,0.0,0.0,6.1094,6.1714,6.1679,6.2489,6.1861,5.8043,5.4839,0.0,0.0,0.0,0.0,0.0,0.0,0.0,0.0,0.0,0.0,0.0,0.0,0.0,0.0,0.0,0.0,0.0,0.0,0.0,0.0,0.0,0.0,0.0,0.0,0.0,0.0,0.0,0.0,0.0,0.0,0.0,0.0,0.0,0.0,0.0,0.0,0.0,0.0,0.0,0.0,0.0,0.0,0.0,0.0,0.0,0.0,0.0,0.0,0.0,0.0,0.0,0.0,5.0664,6.052,6.5098,6.9931,7.5204,7.2716,6.9123,6.4727,6.0629,5.5438,0.0,0.0,0.0,0.0,0.0,0.0,0.0,0.0,0.0,0.0,0.0,0.0,0.0,0.0,0.0,0.0,0.0,0.0,0.0,0.0,0.0,0.0,0.0,0.0,0.0,0.0,0.0,0.0,0.0,0.0,0.0,0.0,0.0,0.0,0.0,0.0,0.0,0.0,0.0,0.0,0.0,5.2532,5.566,5.8096,5.9657,0.0,5.9897,5.9897,5.9826,5.9903,5.8931,5.5972,0.0,0.0,0.0,0.0,0.0,0.0,0.0,0.0,0.0,0.0,0.0,0.0,0.0,0.0,0.0,0.0,0.0,0.0,0.0,0.0,0.0,0.0,0.0,0.0,0.0,0.0,0.0,0.0,0.0,0.0,0.0,0.0,0.0,0.0,0.0,0.0,0.0,0.0,0.0,0.0,0.0,0.0,0.0,0.0,0.0,0.0,0.0,0.0,0.0,0.0,0.0,0.0,0.0,0.0,5.6133,6.1547,6.6545,7.0955,7.0429,6.7897,6.353,5.9682,0.0,0.0,0.0,0.0,0.0,0.0,0.0,0.0,0.0,0.0,0.0,0.0,0.0,0.0,0.0,0.0,0.0,0.0,0.0,0.0,0.0,0.0,0.0,0.0,0.0,0.0,0.0,2.2422,0.0,0.0,0.0,0.0,0.0,0.0,0.0,0.0,0.0,0.0,0.0,0.0,0.0,0.0,4.8165,5.2292,5.3205,5.3834,0.0,0.0,5.6491,5.5339,5.614,5.5494,0.0,0.0,0.0,0.0,0.0,0.0,0.0,0.0,0.0,0.0,0.0,0.0,0.0,0.0,0.0,0.0,0.0,0.0,0.0,0.0,0.0,0.0,0.0,0.0,0.0,0.0,0.0,0.0,0.0,0.0,0.0,0.0,0.0,0.0,0.0,0.0,0.0,0.0,0.0,0.0,0.0,0.0,0.0,0.0,0.0,0.0,0.0,0.0,0.0,0.0,0.0,0.0,0.0,0.0,4.5393,5.4516,5.974,6.468,6.9361,6.9192,6.6759,6.2102,5.7938,5.2711,0.0,0.0,0.0,0.0,0.0,0.0,0.0,0.0,0.0,0.0,0.0,0.0,0.0,0.0,0.0,0.0,0.0,0.0,0.0,0.0,0.0,0.0,0.0,0.0,0.0,0.0,0.0,0.0,0.0,0.0,0.0,0.0,0.0,0.0,0.0,0.0,0.0,0.0,0.0,0.0,0.0,0.0,4.9381,5.0126,0.0,0.0,0.0,5.2911,5.3106,0.0,0.0,0.0,0.0,0.0,0.0,0.0,0.0,0.0,0.0,0.0,0.0,0.0,0.0,0.0,0.0,0.0,0.0,0.0,0.0,0.0,0.0,0.0,0.0,0.0,0.0,0.0,0.0,0.0,0.0,0.0,0.0,0.0,0.0,0.0,0.0,0.0,0.0,0.0,0.0,0.0,0.0,0.0,0.0,0.0,0.0,0.0,0.0,0.0,0.0,0.0,0.0,0.0,0.0,0.0,0.0,0.0,5.3813,5.8634,6.3542,6.852,6.8285,6.5576,6.0489,5.6153,5.0957,0.0,0.0,0.0,0.0,0.0,0.0,0.0,0.0,0.0,0.0,0.0,0.0,0.0,0.0,0.0,0.0,0.0,0.0,0.0,0.0,0.0,0.0,0.0,0.0,0.0,0.0,0.0,0.0,0.0,0.0,0.0,0.0,0.0,0.0,0.0,0.0,0.0,0.0,0.0,0.0,0.0,4.5191,4.7209,4.8016,4.8448,0.0,0.0,4.925,5.1281,4.861,0.0,0.0,0.0,0.0,0.0,0.0,0.0,0.0,0.0,0.0,0.0,0.0,0.0,0.0,0.0,0.0,0.0,0.0,0.0,0.0,0.0,0.0,0.0,0.0,0.0,0.0,0.0,0.0,0.0,0.0,0.0,0.0,0.0,0.0,0.0,0.0,0.0,0.0,0.0,0.0,0.0,0.0,0.0,0.0,0.0,0.0,0.0,0.0,0.0,0.0,0.0,0.0,0.0,0.0,0.0,0.0,4.9636,5.6187,6.1129,6.4389,6.6013,6.4279,5.897,5.649,5.1285,0.0,0.0,0.0,0.0,0.0,0.0,0.0,0.0,0.0,0.0,0.0,0.0,0.0,0.0,0.0,0.0,0.0,0.0,0.0,0.0,0.0,0.0,0.0,0.0,0.0,0.0,0.0,0.0,0.0,0.0,0.0,0.0,0.0,0.0,0.0,0.0,0.0,0.0,0.0,0.0,0.0,4.1753,4.6813,4.5475,0.0,0.0,0.0,0.0,4.5408,4.5146,0.0,0.0,0.0,0.0,0.0,0.0,0.0,0.0,0.0,0.0,0.0,0.0,0.0,0.0,0.0,0.0,0.0,0.0,0.0,0.0,0.0,0.0,0.0,0.0,0.0,0.0,0.0,0.0,0.0,0.0,0.0,0.0,0.0,0.0,0.0,0.0,0.0,0.0,0.0,0.0,0.0,0.0,0.0,0.0,0.0,0.0,0.0,0.0,0.0,0.0,0.0,0.0,0.0,0.0,0.0,0.0,4.7288,5.3152,5.8041,6.1947,6.3904,6.2485,5.7667,5.5855,5.117,0.0,0.0,0.0,0.0,0.0,0.0,0.0,0.0,0.0,0.0,0.0,0.0,0.0,0.0,0.0,0.0,0.0,0.0,0.0,0.0,0.0,0.0,0.0,0.0,0.0,0.0,0.0,0.0,0.0,0.0,0.0,0.0,0.0,0.0,0.0,0.0,0.0,0.0,0.0,0.0,3.5619,3.8603,4.1731,0.0,0.0,0.0,0.0,0.0,0.0,4.0679,4.1253,0.0,0.0,0.0,0.0,0.0,0.0,0.0,0.0,0.0,0.0,0.0,0.0,0.0,0.0,0.0,0.0,0.0,0.0,0.0,0.0,0.0,0.0,0.0,0.0,0.0,0.0,0.0,0.0,0.0,0.0,0.0,0.0,0.0,0.0,0.0,0.0,0.0,0.0,0.0,0.0,0.0,0.0,0.0,0.0,0.0,0.0,0.0,0.0,0.0,0.0,0.0,0.0,0.0,0.0,0.0,4.5597,5.021,5.5071,6.0161,6.1933,6.0869,5.6901,5.5279,5.0808,4.3237,0.0,0.0,0.0,0.0,0.0,0.0,0.0,0.0,0.0,0.0,0.0,0.0,0.0,0.0,0.0,0.0,0.0,0.0,0.0,0.0,0.0,0.0,0.0,0.0,0.0,0.0,0.0,0.0,0.0,0.0,0.0,0.0,0.0,0.0,0.0,0.0,0.0,0.0,0.0,3.304,3.5897,0.0,0.0,0.0,0.0,0.0,0.0,0.0,0.0,3.8298,0.0,0.0,0.0,0.0,0.0,0.0,0.0,0.0,0.0,0.0,0.0,0.0,0.0,0.0,0.0,0.0,0.0,0.0,0.0,0.0,0.0,0.0,0.0,0.0,0.0,0.0,0.0,0.0,0.0,0.0,0.0,0.0,0.0,0.0,0.0,0.0,0.0,0.0,0.0,0.0,0.0,0.0,0.0,0.0,0.0,0.0,0.0,0.0,0.0,0.0,0.0,0.0,0.0,0.0,0.0,0.0,4.8482,5.3438,5.789,6.0201,6.0121,5.7476,5.5576,5.0528,4.2003,0.0,0.0,0.0,0.0,0.0,0.0,0.0,0.0,0.0,0.0,0.0,0.0,0.0,0.0,0.0,0.0,0.0,0.0,0.0,0.0,0.0,0.0,0.0,0.0,0.0,0.0,0.0,0.0,0.0,0.0,0.0,0.0,0.0,0.0,0.0,0.0,0.0,0.0,2.862,3.1727,0.0,0.0,0.0,0.0,0.0,0.0,0.0,0.0,3.3371,0.0,0.0,0.0,0.0,0.0,0.0,0.0,0.0,0.0,0.0,0.0,0.0,0.0,0.0,0.0,0.0,0.0,0.0,0.0,0.0,0.0,0.0,0.0,0.0,0.0,0.0,0.0,0.0,0.0,0.0,0.0,0.0,0.0,0.0,0.0,0.0,0.0,0.0,0.0,0.0,0.0,0.0,0.0,0.0,0.0,0.0,0.0,0.0,0.0,0.0,0.0,0.0,0.0,0.0,0.0,0.0,0.0,0.0,5.2462,5.7483,5.9269,5.9263,5.7406,5.3996,4.9077,0.0,0.0,0.0,0.0,0.0,0.0,0.0,0.0,0.0,0.0,0.0,0.0,0.0,0.0,0.0,0.0,0.0,0.0,0.0,0.0,0.0,0.0,0.0,0.0,0.0,0.0,0.0,0.0,0.0,0.0,0.0,0.0,0.0,0.0,0.0,0.0,0.0,0.0,0.0,0.0,0.0,0.0,0.0,0.0,0.0,0.0,0.0,0.0,0.0,0.0,0.0,0.0,0.0,0.0,0.0,0.0,0.0,0.0,0.0,0.0,0.0,0.0,0.0,0.0,0.0,0.0,0.0,0.0,0.0,0.0,0.0,0.0,0.0,0.0,0.0,0.0,0.0,0.0,0.0,0.0,0.0,0.0,0.0,0.0,0.0,0.0,0.0,0.0,0.0,0.0,0.0,0.0,0.0,0.0,0.0,0.0,0.0,0.0,0.0,0.0,0.0,0.0,0.0,0.0,0.0,0.0,0.0,0.0,5.1002,5.6332,5.8123,5.8508,5.7347,5.2002,4.6835,0.0,0.0,0.0,0.0,0.0,0.0,0.0,0.0,0.0,0.0,0.0,0.0,0.0,0.0,0.0,0.0,0.0,0.0,0.0,0.0,0.0,0.0,0.0,0.0,0.0,0.0,0.0,0.0,0.0,0.0,0.0,0.0,0.0,0.0,0.0,0.0,0.0,0.0,0.0,0.0,0.0,0.0,0.0,0.0,0.0,0.0,0.0,0.0,2.9176,0.0,0.0,0.0,0.0,0.0,0.0,0.0,0.0,0.0,0.0,0.0,0.0,0.0,0.0,0.0,0.0,0.0,0.0,0.0,0.0,0.0,0.0,0.0,0.0,0.0,0.0,0.0,0.0,0.0,0.0,0.0,0.0,0.0,0.0,0.0,0.0,0.0,0.0,0.0,0.0,0.0,0.0,0.0,0.0,0.0,0.0,0.0,0.0,0.0,0.0,0.0,0.0,0.0,0.0,0.0,0.0,0.0,0.0,0.0,4.7997,5.2291,5.6202,5.7966,5.7165,5.0276,4.3462,0.0,0.0,0.0,0.0,0.0,0.0,0.0,0.0,0.0,0.0,0.0,0.0,0.0,0.0,0.0,0.0,0.0,0.0,0.0,0.0,0.0,0.0,0.0,0.0,0.0,0.0,0.0,0.0,0.0,0.0,0.0,0.0,0.0,0.0,0.0,0.0,0.0,0.0,0.0,0.0,0.0,0.0,0.0,0.0,0.0,0.0,0.0,0.0,0.0,0.0,0.0,0.0,0.0,0.0,0.0,0.0,0.0,0.0,0.0,0.0,0.0,0.0,0.0,0.0,0.0,0.0,0.0,0.0,0.0,0.0,0.0,0.0,0.0,0.0,0.0,0.0,0.0,0.0,0.0,0.0,0.0,0.0,0.0,0.0,0.0,0.0,0.0,0.0,0.0,0.0,0.0,0.0,0.0,0.0,0.0,0.0,0.0,0.0,0.0,0.0,0.0,0.0,0.0,0.0,0.0,0.0,0.0,0.0,4.5771,5.1803,5.3391,5.2817,4.9983,4.5163,3.993,0.0,0.0,0.0,0.0,0.0,0.0,0.0,0.0,0.0,0.0,0.0,0.0,0.0,0.0,0.0,0.0,0.0,0.0,0.0,0.0,0.0,0.0,0.0,0.0,0.0,0.0,0.0,0.0,0.0,0.0,0.0,0.0,0.0,0.0,0.0,0.0,0.0,0.0,0.0,0.0,0.0,0.0,0.0,0.0,0.0,0.0,0.0,0.0,0.0,0.0,0.0,0.0,0.0,0.0,0.0,0.0,0.0,0.0,0.0,0.0,0.0,0.0,0.0,0.0,0.0,0.0,0.0,0.0,0.0,0.0,0.0,0.0,0.0,0.0,0.0,0.0,0.0,0.0,0.0,0.0,0.0,0.0,0.0,0.0,0.0,0.0,0.0,0.0,0.0,0.0,0.0,0.0,0.0,0.0,0.0,0.0,0.0,0.0,0.0,0.0,0.0,0.0,0.0,0.0,0.0,0.0,0.0,0.0,0.0,4.8791,4.8367,4.6363,4.2989,3.9877,3.6222,0.0,0.0,0.0,0.0,0.0,0.0,0.0,0.0,0.0,0.0,0.0,0.0,0.0,0.0,0.0,0.0,0.0,0.0,0.0,0.0,0.0,0.0,0.0,0.0,0.0,0.0,0.0,0.0,0.0,0.0,0.0,0.0,0.0,0.0,0.0,0.0,0.0,0.0,0.0,0.0,0.0,0.0,0.0,0.0,0.0,0.0,0.0,0.0,0.0,0.0,0.0,0.0,0.0,0.0,0.0,0.0,0.0,0.0,0.0,0.0,0.0,0.0,0.0,0.0,0.0,0.0,0.0,0.0,0.0,0.0,0.0,0.0,0.0,0.0,0.0,0.0,0.0,0.0,0.0,0.0,0.0,0.0,0.0,0.0,0.0,0.0,0.0,0.0,0.0,0.0,0.0,0.0,0.0,0.0,0.0,0.0,0.0,0.0,0.0,0.0,0.0,0.0,0.0,0.0,0.0,0.0,0.0,0.0,0.0,4.1418,3.9977,3.9018,3.8544,3.5366,3.2135,0.0,0.0,0.0,0.0,0.0,0.0,0.0,0.0,0.0,0.0,0.0,0.0,0.0,0.0,0.0,0.0,0.0,0.0,0.0,0.0,0.0,0.0,0.0,0.0,0.0,0.0,0.0,0.0,0.0,0.0,0.0,0.0,0.0,0.0,0.0,0.0,0.0,0.0,0.0,0.0,0.0,0.0,0.0,0.0,0.0,0.0,0.0,0.0,0.0,0.0,0.0,0.0,0.0,0.0,0.0,0.0,0.0,0.0,0.0,0.0,0.0,0.0,0.0,0.0,0.0,0.0,0.0,0.0,0.0,0.0,0.0,0.0,0.0,0.0,0.0,0.0,0.0,0.0,0.0,0.0,0.0,0.0,0.0,0.0,0.0,0.0,0.0,0.0,0.0,0.0,0.0,0.0,0.0,0.0,0.0,0.0,0.0,0.0,0.0,0.0,0.0,0.0,0.0,0.0,0.0,0.0,0.0,0.0,0.0,3.2279,3.2641,3.2308,3.1147,2.988,2.7685,2.4481,0.0,0.0,0.0,0.0,0.0,0.0,0.0,0.0,0.0,0.0,0.0,0.0,0.0,0.0,0.0,0.0,0.0,0.0,0.0,0.0,0.0,0.0,0.0,0.0,0.0,0.0,0.0,0.0,0.0,0.0,0.0,0.0,0.0,0.0,0.0,0.0,0.0,0.0,0.0,0.0,0.0,0.0,0.0,0.0,0.0,0.0,0.0,0.0,0.0,0.0,0.0,0.0,0.0,0.0,0.0,0.0,0.0,0.0,0.0,0.0,0.0,0.0,0.0,0.0,0.0,0.0,0.0,0.0,0.0,0.0,0.0,0.0,0.0,0.0,0.0,0.0,0.0,0.0,0.0,0.0,0.0,0.0,0.0,0.0,0.0,0.0,0.0,0.0,0.0,0.0,0.0,0.0,0.0,0.0,0.0,0.0,0.0,0.0,0.0,0.0,0.0,0.0,0.0,0.0,0.0,0.0,0.0,0.0,2.5752,2.7239,2.7486,2.6239,2.5643,2.4051,0.0,0.0,0.0,0.0,0.0,0.0,0.0,0.0,0.0,0.0,0.0,0.0,0.0,0.0,0.0,0.0,0.0,0.0,0.0,0.0,0.0,0.0,0.0,0.0,0.0,0.0,0.0,0.0,0.0,0.0,0.0,0.0,0.0,0.0,0.0,0.0,0.0,0.0,0.0,0.0,0.0,0.0,0.0,0.0,0.0,0.0,0.0,0.0,0.0,0.0,0.0,0.0,0.0,0.0,0.0,0.0,0.0,0.0,0.0,0.0,0.0,0.0,0.0,0.0,0.0,0.0,0.0,0.0,0.0,0.0,0.0,0.0,0.0,0.0,0.0,0.0,0.0,0.0,0.0,0.0,0.0,0.0,0.0,0.0,0.0,0.0,0.0,0.0,0.0,0.0,0.0,0.0,0.0,0.0,0.0,0.0,0.0,0.0,0.0,0.0,0.0,0.0,0.0,0.0,0.0,0.0,0.0,0.0,1.9279,2.2276,2.4056,2.4789,2.4632,2.3084,2.142,0.0,0.0,0.0,0.0,0.0,0.0,0.0,0.0,0.0,0.0,0.0,0.0,0.0,0.0,0.0,0.0,0.0,0.0,0.0,0.0,0.0,0.0,0.0,0.0,0.0,0.0,0.0,0.0,0.0,0.0,0.0,0.0,0.0,0.0,0.0,0.0,0.0,0.0,0.0,0.0,0.0,0.0,0.0,0.0,0.0,0.0,0.0,0.0,0.0,0.0,0.0,0.0,0.0,0.0,0.0,0.0,0.0,0.0,0.0,0.0,0.0,0.0,0.0,0.0,0.0,0.0,0.0,0.0,0.0,0.0,0.0,0.0,0.0,0.0,0.0,0.0,0.0,0.0,0.0,0.0,0.0,0.0,0.0,0.0,0.0,0.0,0.0,0.0,0.0,0.0,0.0,0.0,0.0,0.0,0.0,0.0,0.0,0.0,0.0,0.0,0.0,0.0,0.0,0.0,0.0,0.0,0.0,0.0,0.0,1.909,2.0614,2.1478,2.1411,2.0881,1.9824,0.0,0.0,0.0,0.0,0.0,0.0,0.0,0.0,0.0,0.0,0.0,0.0,0.0,0.0,0.0,0.0,0.0,0.0,0.0,0.0,0.0,0.0,0.0,0.0,0.0,0.0,0.0,0.0,0.0,0.0,0.0,0.0,0.0,0.0,0.0,0.0,0.0,0.0,0.0,0.0,0.0,0.0,0.0,0.0,0.0,0.0,0.0,0.0,0.0,0.0,0.0,0.0,0.0,0.0,0.0,0.0,0.0,0.0,0.0,0.0,0.0,0.0,0.0,0.0,0.0,0.0,0.0,0.0,0.0,0.0,0.0,0.0,0.0,0.0,0.0,0.0,0.0,0.0,0.0,0.0,0.0,0.0,0.0,0.0,0.0,0.0,0.0,0.0,0.0,0.0,0.0,0.0,0.0,0.0,0.0,0.0,0.0,0.0,0.0,0.0,0.0,0.0,0.0,0.0,0.0,0.0,0.0,0.0,0.0,1.7484,1.8447,1.9238,1.9785,1.9825,1.8766,0.0,0.0,0.0,0.0,0.0,0.0,0.0,0.0,0.0,0.0,0.0,0.0,0.0,0.0,0.0,0.0,0.0,0.0,0.0,0.0,0.0,0.0,0.0,0.0,0.0,0.0,0.0,0.0,0.0,0.0,0.0,0.0,0.0,0.0,0.0,0.0,0.0,0.0,0.0,0.0,0.0,0.0,0.0,0.0,0.0,0.0,0.0,0.0,0.0,0.0,0.0,0.0,0.0,0.0,0.0,0.0,0.0,0.0,0.0,0.0,0.0,0.0,0.0,0.0,0.0,0.0,0.0,0.0,0.0,0.0,0.0,0.0,0.0,0.0,0.0,0.0,0.0,0.0,0.0,0.0,0.0,0.0,0.0,0.0,0.0,0.0,0.0,0.0,0.0,0.0,0.0,0.0,0.0,0.0,0.0,0.0,0.0,0.0,0.0,0.0,0.0,0.0,0.0,0.0,0.0,0.0,0.0,0.0,0.0,1.7079,1.7441,1.816,1.9462,1.9614,1.803,0.0,0.0,0.0,0.0,0.0,0.0,0.0,0.0,0.0,0.0,0.0,0.0,0.0,0.0,0.0,0.0,0.0,0.0,0.0,0.0,0.0,0.0,0.0,0.0,0.0,0.0,0.0,0.0,0.0,0.0,0.0,0.0,0.0,0.0,0.0,0.0,0.0,0.0,0.0,0.0,0.0,0.0,0.0,0.0,0.0,0.0,0.0,0.0,0.0,0.0,0.0,0.0,0.0,0.0,0.0,0.0,0.0,0.0,0.0,0.0,0.0,0.0,0.0,0.0,0.0,0.0,0.0,0.0,0.0,0.0,0.0,0.0,0.0,0.0,0.0,0.0,0.0,0.0,0.0,0.0,0.0,0.0,0.0,0.0,0.0,0.0,0.0,0.0,0.0,0.0,0.0,0.0,0.0,0.0,0.0,0.0,0.0,0.0,0.0,0.0,0.0,0.0,0.0,0.0,0.0,0.0,0.0,0.0,0.0,0.0,1.6225,1.7113,1.6331,1.623,1.5145,1.3034,0.0,0.0,0.0,0.0,0.0,0.0,0.0,0.0,0.0,0.0,0.0,0.0,0.0,0.0,0.0,0.0,0.0,0.0,0.0,0.0,0.0,0.0,0.0,0.0,0.0,0.0,0.0,0.0,0.0,0.0,0.0,0.0,0.0,0.0,0.0,0.0,0.0,0.0,0.0,0.0,0.0,0.0,0.0,0.0,0.0,0.0,0.0,0.0,0.0,0.0,0.0,0.0,0.0,0.0,0.0,0.0,0.0,0.0,0.0,0.0,0.0,0.0,0.0,0.0,0.0,0.0,0.0,0.0,0.0,0.0,0.0,0.0,0.0,0.0,0.0,0.0,0.0,0.0,0.0,0.0,0.0,0.0,0.0,0.0,0.0,0.0,0.0,0.0,0.0,0.0,0.0,0.0,0.0,0.0,0.0,0.0,0.0,0.0,0.0,0.0,0.0,0.0,0.0,0.0,0.0,0.0,0.0,0.0,0.0,0.0,1.5289,1.4975,1.4834,1.4297,0.0,0.0,0.0,0.0,0.0,0.0,0.0,0.0,0.0,0.0,0.0,0.0,0.0,0.0,0.0,0.0,0.0,0.0,0.0,0.0,0.0,0.0,0.0,0.0,0.0,0.0,0.0,0.0,0.0,0.0,0.0,0.0,0.0,0.0,0.0,0.0,0.0,0.0,0.0,0.0,0.0,0.0,0.0,0.0,0.0,0.0,0.0,0.0,0.0,0.0,0.0,0.0,0.0,0.0,0.0,0.0,0.0,0.0,0.0,0.0,0.0,0.0,0.0,0.0,0.0,0.0,0.0,0.0,0.0,0.0,0.0,0.0,0.0,0.0,0.0,0.0,0.0,0.0,0.0,0.0,0.0,0.0,0.0,0.0,0.0,0.0,0.0,0.0,0.0,0.0,0.0,0.0,0.0,0.0,0.0,0.0,0.0,0.0,0.0,0.0,0.0,0.0,0.0,0.0,0.0,0.0,0.0,0.0,0.0,0.0,0.0,1.3112,1.4462,1.4533,0.0,1.4201,0.0,0.0,0.0,0.0,0.0,0.0,0.0,0.0,0.0,0.0,0.0,0.0,0.0,0.0,0.0,0.0,0.0,0.0,0.0,0.0,0.0,0.0,0.0,0.0,0.0,0.0,0.0,0.0,0.0,0.0,0.0,0.0,0.0,0.0,0.0,0.0,0.0,0.0,0.0,0.0,0.0,0.0,0.0,0.0,0.0,0.0,0.0,0.0,0.0,0.0,0.0,0.0,0.0,0.0,0.0,0.0,0.0,0.0,0.0,0.0,0.0,0.0,0.0,0.0,0.0,0.0,0.0,0.0,0.0,0.0,0.0,0.0,0.0,0.0,0.0,0.0,0.0,0.0,0.0,0.0,0.0,0.0,0.0,0.0,0.0,0.0,0.0,0.0,0.0,0.0,0.0,0.0,0.0,0.0,0.0,0.0,0.0,0.0,0.0,0.0,0.0,0.0,0.0,0.0,0.0,0.0,0.0,0.0,0.0,0.0,0.0,0.0,1.2307,1.2378,1.1101,0.0,0.0,0.0,0.0,0.0,0.0,0.0,0.0,0.0,0.0,0.0,0.0,0.0,0.0,0.0,0.0,0.0,0.0,0.0,0.0,0.0,0.0,0.0,0.0,0.0,0.0,0.0,0.0,0.0,0.0,0.0,0.0,0.0,0.0,0.0,0.0,0.0,0.0,0.0,0.0,0.0,0.0,0.0,0.0,0.0,0.0,0.0,0.0,0.0,0.0,0.0,0.0,0.0,0.0,0.0,0.0,0.0,0.0,0.0,0.0,0.0,0.0,0.0,0.0,0.0,0.0,0.0,0.0,0.0,0.0,0.0,0.0,0.0,0.0,0.0,0.0,0.0,0.0,0.0,0.0,0.0,0.0,0.0,0.0,0.0,0.0,0.0,0.0,0.0,0.0,0.0,0.0,0.0,0.0,0.0,0.0,0.0,0.0,0.0,0.0,0.0,0.0,0.0,0.0,0.0,0.0,0.0,0.0,0.0,0.0,1.0838,0.9983,1.0825,1.0836,0.9924,0.0,0.0,0.0,0.0,0.0,0.0,0.0,0.0,0.0,0.0,0.0,0.0,0.0,0.0,0.0,0.0,0.0,0.0,0.0,0.0,0.0,0.0,0.0,0.0,0.0,0.0,0.0,0.0,0.0,0.0,0.0,0.0,0.0,0.0,0.0,0.0,0.0,0.0,0.0,0.0,0.0,0.0,0.0,0.0,0.0,0.0,0.0,0.0,0.0,0.0,0.0,0.0,0.0,0.0,0.0,0.0,0.0,0.0,0.0,0.0,0.0,0.0,0.0,0.0,0.0,0.0,0.0,0.0,0.0,0.0,0.0,0.0,0.0,0.0,0.0,0.0,0.0,0.0,0.0,0.0,0.0,0.0,0.0,0.0,0.0,0.0,0.0,0.0,0.0,0.0,0.0,0.0,0.0,0.0,0.0,0.0,0.0,0.0,0.0,0.0,0.0,0.0,0.0,0.0,0.0,0.0,0.0,0.0,0.0,0.0,0.9893,0.0,0.0,0.0,0.9794,0.0,0.0,0.0,0.0,0.0,0.0,0.0,0.0,0.0,0.0,0.0,0.0,0.0,0.0,0.0,0.0,0.0,0.0,0.0,0.0,0.0,0.0,0.0,0.0,0.0,0.0,0.0,0.0,0.0,0.0,0.0,0.0,0.0,0.0,0.0,0.0,0.0,0.0,0.0,0.0,0.0,0.0,0.0,0.0,0.0,0.0,0.0,0.0,0.0,0.0,0.0,0.0,0.0,0.0,0.0,0.0,0.0,0.0,0.0,0.0,0.0,0.0,0.0,0.0,0.0,0.0,0.0,0.0,0.0,0.0,0.0,0.0,0.0,0.0,0.0,0.0,0.0,0.0,0.0,0.0,0.0,0.0,0.0,0.0,0.0,0.0,0.0,0.0,0.0,0.0,0.0,0.0,0.0,0.0,0.0,0.0,0.0,0.0,0.0,0.0,0.0,0.0,0.0,0.0,0.0,0.0,0.0,0.0,0.0,0.0,0.0,0.0,0.0,0.0,0.0,0.0,0.0,0.0,0.0,0.0,0.0,0.0,0.0,0.0,0.0,0.0,0.0,0.0,0.0,0.0,0.0,0.0,0.0,0.0,0.0,0.0,0.0,0.0,0.0,0.0,0.0,0.0,0.0,0.0,0.0,0.0,0.0,0.0,0.0,0.0,0.0,0.0,0.0,0.0,0.0,0.0,0.0,0.0,0.0,0.0,0.0,0.0,0.0,0.0,0.0,0.0,0.0,0.0,0.0,0.0,0.0,0.0,0.0,0.0,0.0,0.0,0.0,0.0,0.0,0.0,0.0,0.0,0.0,0.0,0.0,0.0,0.0,0.0,0.0,0.0,0.0,0.0,0.0,0.0,0.0,0.0,0.0,0.0,0.0,0.0,0.0,0.0,0.0,0.0,0.0,0.0,0.0,0.0,0.0,0.0,0.0,0.0,0.0,0.0,0.0,0.0,0.0,0.0,0.0,0.0,0.0,0.0,0.0,0.0,0.0,0.0,0.0,0.0,0.0,0.0,0.0,0.0,0.0,0.0,0.0,0.0,0.0,0.0,0.0,0.0,0.0,0.0,0.0,0.0,0.0,0.0,0.0,0.0,0.0,0.0,0.0,0.0,0.0,0.0,0.0,0.0,0.0,0.0,0.0,0.0,0.0,0.0,0.0,0.0,0.0,0.0,0.0,0.0,0.0,0.0,0.0,0.0,0.0,0.0,0.0,0.0,0.0,0.0,0.0,0.0,0.0,0.0,0.0,0.0,0.0,0.0,0.0,0.0,0.0,0.0,0.0,0.0,0.0,0.0,0.0,0.0,0.0,0.0,0.0,0.0,0.0,0.0,0.0,0.0,0.0,0.0,0.0,0.0,0.0,0.0,0.0,0.0,0.0,0.0,0.0,0.0,0.0,0.0,0.0,0.0,0.0,0.0,0.0,0.0,0.0,0.0,0.0,0.0,0.0,0.0,0.0,0.0,0.0,0.0,0.0,0.0,0.0,0.0,0.0,0.0,0.0,0.0,0.0,0.0,0.0,0.0,0.0,0.0,0.0,0.0,0.0,0.0,0.0,0.0,0.0,0.0,0.0,0.0,0.0,0.0,0.0,0.0,0.0,0.0,0.0,0.0,0.0,0.0,0.0,0.0,0.0,0.0,0.0,0.0,0.0,0.0,0.0,0.0,0.0,0.0,0.0,0.0,0.0,0.0,0.0,0.0,0.0,0.0,0.0,0.0,0.0,0.0,0.0,0.0,0.0,0.0,0.0,0.0,0.0,0.0,0.0,0.0,0.0,0.0,0.0,0.0,0.0,0.0,0.0,0.0,0.0,0.0,0.0,0.0,0.0,0.0,0.0,0.0,0.0,0.0,0.0,0.0,0.0,0.0,0.0,0.0,0.0,0.0,0.0,0.0,0.0,0.0,0.0,0.0,0.0,0.0,0.0,0.0,0.0,0.0,0.0,0.0,0.0,0.0,0.0,0.0,0.0,0.0,0.0,0.0,0.0,0.0,0.0,0.0,0.0,0.0,0.0,0.0,0.0,0.0,0.0,0.0,0.0,0.0,0.0,0.0,0.0,0.0,0.0,0.0,0.0,0.0,0.0,0.0,0.0,0.0,0.0,0.0,0.0,0.0,0.0,0.0,0.0,0.0,0.0,0.0,0.0,0.0,0.0,0.0,0.0,0.0,0.0,0.0,0.0,0.0,0.0,0.0,0.0,0.0,0.0,0.0,0.0,0.0,0.0,0.0,0.0,0.0,0.0,0.0,0.0,0.0,0.0,0.0,0.0,0.0,0.0,0.0,0.0,0.0,0.0,0.0,0.0,0.0,0.0,0.0,0.0,0.0,0.0,0.0,0.0,0.0,0.0,0.0,0.0,0.0,0.0,0.0,0.0,0.0,0.0,0.0,0.0,0.0,0.0,0.0,0.0,0.0,0.0,0.0,0.0,0.0,0.0,0.0,0.0,0.0,0.0,0.0,0.0,0.0,0.0,0.0,0.0,0.0,0.0,0.0,0.0,0.0,0.0,0.0,0.0,0.0,0.0,0.0,0.0,0.0,0.0,0.0,0.0,0.0,0.0,0.0,0.0,0.0,0.0,0.0,0.0,0.0,0.0,0.0,0.0,0.0,0.0,0.0,0.0,0.0,0.0,0.0,0.0,0.0,0.0,0.0,0.0,0.0,0.0,0.0,0.0,0.0,0.0,0.0,0.0,0.0,0.0,0.0,0.0,0.0,0.0,0.0,0.0,0.0,0.0,0.0,0.0,0.0,0.0,0.0,0.0,0.0,0.0,0.0,0.0,0.0,0.0,0.0,0.0,0.0,0.0,0.0,0.0,0.0,0.0,0.0,0.0,0.0,0.0,0.0,0.0,0.0,0.0,0.0,0.0,0.0,0.0,0.0,0.0,0.0,0.0,0.0,0.0,0.0,0.0,0.0,0.0,0.0,0.0,0.0,0.0,0.0,0.0,0.0,0.0,0.0,0.0,0.0,0.0,0.0,0.0,0.0,0.0,0.0,0.0,0.0,0.0,0.0,0.0,0.0,0.0,0.0,0.0,0.0,0.0,0.0,0.0,0.0,0.0,0.0,0.0,0.0,0.0,0.0,0.0,0.0,0.0,0.0,0.0,0.0,0.0,0.0,0.0,0.0,0.0,0.0,0.0,0.0,0.0,0.0,0.0,0.0,0.0,0.0,0.0,0.0,0.0,0.0,0.0,0.0,0.0,0.0,0.0,0.0,0.0,0.0,0.0,0.0,0.0,0.0,0.0,0.0,0.0,0.0,0.0,0.0,0.0,0.0,0.0,0.0,0.0,0.0,0.0,0.0,0.0,0.0,0.0,0.0,0.0,0.0,0.0,0.0,0.0,0.0,0.0,0.0,0.0,0.0,0.0,0.0,0.0,0.0,0.0,0.0,0.0,0.0,0.0,0.0,0.0,0.0,0.0,0.0,0.0,0.0,0.0,0.0,0.0,0.0,0.0,0.0,0.0,0.0,0.0,0.0,0.0,0.0,0.0,0.0,0.0,0.0,0.0,0.0,0.0,0.0,0.0,0.0,0.0,0.0,0.0,0.0,0.0,0.0,0.0,0.0,0.0,0.0,0.0,0.0,0.0,0.0,0.0,0.0,0.0,0.0,0.0,0.0,0.0,0.0,0.0,0.0,0.0,0.0,0.0,0.0,0.0,0.0,0.0,0.0,0.0,0.0,0.0,0.0,0.0,0.0,0.0,0.0,0.0,0.0,0.0,0.0,0.0,0.0,0.0,0.0,0.0,0.0,0.0,0.0,0.0,0.0,0.0,0.0,0.0,0.0,0.0,0.0,0.0,0.0,0.0,0.0,0.0,0.0,0.0,0.0,0.0,0.0,0.0,0.0,0.0,0.0,0.0,0.0,0.0,0.0,0.0,0.0,0.0,0.0,0.0,0.0,0.0,0.0,0.0,0.0,0.0,0.0,0.0,0.0,0.0,0.0,0.0,0.0,0.0,0.0,0.0,0.0,0.0,0.0,0.0,0.0,0.0,0.0,0.0,0.0,0.0,0.0,0.0,0.0,0.0,0.0,0.0,0.0,0.0,0.0,0.0,0.0,0.0,0.0,0.0,0.0,0.0,0.0,0.0,0.0,0.0,0.0,0.0,0.0,0.0,0.0,0.0,0.0,0.0,0.0,0.0,0.0,0.0,0.0,0.0,0.0,0.0,0.0,0.0,0.0,0.0,0.0,0.0,0.0,0.0,0.0,0.0,0.0,0.0,0.0,0.0,0.0,0.0,0.0,0.0,0.0,0.0,0.0,0.0,0.0,0.0,0.0,0.0,0.0,0.0,0.0,0.0,0.0,0.0,0.0,0.0,0.0,0.0,0.0,0.0,0.0,0.0,0.0]}],[{"header":{"parameterUnit":"kt","parameterCategory":2,"dx":1,"dy":1,"la1":29.587661999999998,"la2":31.0,"lo1":-88.76705300000003,"lo2":-86.6583820000003,"nx":115,"ny":88,"refTime":"2022-10-31T00:00:00:Z","depth":0,"parameterNumber":2,"parameterNumberName":"V-component_of_WINDS"},"data":[5.2927,5.5165,5.6396,5.7409,5.8315,5.8536,5.8514,5.8426,5.8448,5.8514,5.8536,5.8514,5.8514,5.8558,5.8514,5.8492,5.8448,5.8536,5.8558,5.8448,5.816,5.7938,5.776,5.7492,5.7359,5.7538,5.7804,5.7604,5.6889,5.7403,5.7448,5.6485,5.6463,5.6215,5.5808,5.531,5.4809,5.4421,5.3917,5.348,5.318,5.3154,5.3108,5.2946,5.29,5.2227,5.1691,5.1345,5.1204,5.1415,5.1812,5.1905,5.1278,5.0269,4.9466,4.8559,4.7794,4.7237,4.7116,4.7338,4.744,4.7554,4.7794,4.8422,4.9237,5.0097,5.0311,5.0166,5.0613,5.1006,5.1415,5.1185,5.1149,5.1759,5.22,5.2863,5.4197,5.5738,5.6943,5.7672,5.8202,5.8126,5.7998,5.7391,5.7391,5.7334,5.6801,5.6621,5.6235,5.6293,5.6345,5.6617,5.6863,5.6144,5.5459,5.727,5.8453,5.8807,5.915,5.9748,6.009,6.009,6.009,6.009,6.009,6.009,6.009,6.009,5.901,5.7065,5.5269,5.3375,5.0492,4.9066,4.9319,5.2391,5.4743,5.6904,5.7783,5.7627,5.8005,5.7982,5.7582,5.756,5.776,5.8071,5.7716,5.7849,5.7893,5.7805,5.7938,5.8049,5.8116,5.7604,5.747,5.7738,5.7492,5.7202,5.6956,5.7024,5.7292,5.7604,5.7046,5.6395,5.6934,5.7046,5.6282,5.5967,5.5808,5.531,5.4832,5.4469,5.4149,5.3733,5.3365,5.3296,5.325,5.3065,5.2692,5.2251,5.1691,5.1271,5.0829,5.0227,5.0297,5.0387,5.0293,4.9632,4.9277,4.8535,4.8081,4.7357,4.714,4.7038,4.7038,4.7038,4.7062,4.7116,4.7562,4.8312,4.8962,4.9409,4.97,5.021,5.0718,5.1306,5.1512,5.1503,5.1733,5.1997,5.2428,5.4455,5.641,5.7222,5.7953,5.8004,5.778,5.709,5.5984,5.59,5.6119,5.599,5.5861,5.579,5.59,5.5906,5.6073,5.6202,5.5839,5.5251,5.6337,5.7515,5.7946,5.862,5.9473,6.009,6.009,6.009,6.009,6.009,6.009,6.009,5.9645,5.7572,5.5529,5.4118,5.276,5.0122,4.8767,4.8767,5.1699,5.3159,5.5508,5.6792,5.7338,5.7582,5.756,5.7382,5.736,5.7315,5.7202,5.7068,5.7203,5.7582,5.7493,5.756,5.7627,5.7671,5.727,5.7001,5.718,5.6934,5.6687,5.6463,5.6576,5.6553,5.6799,5.6844,5.6304,5.6575,5.6687,5.608,5.5627,5.5399,5.5172,5.4421,5.3988,5.3988,5.3408,5.3201,5.3204,5.2695,5.2393,5.2417,5.1718,5.0786,5.0316,4.9722,4.9253,4.9129,4.9111,4.8797,4.9034,4.8559,4.8105,4.7722,4.7309,4.7038,4.7038,4.7038,4.7038,4.7038,4.7056,4.7056,4.7763,4.8245,4.8691,4.893,4.9464,5.0219,5.0807,5.1104,5.1122,5.1291,5.1547,5.1521,5.2783,5.4519,5.5492,5.61,5.6254,5.628,5.7032,5.5951,5.5564,5.5809,5.6042,5.6016,5.5661,5.5564,5.5441,5.5466,5.5452,5.5206,5.5095,5.5809,5.6721,5.7331,5.7959,5.8969,5.9993,6.0023,6.009,6.009,6.009,6.009,5.9427,5.8649,5.6875,5.4671,5.3346,5.213,5.0433,4.8767,4.8767,5.169,5.2205,5.3953,5.546,5.6589,5.6961,5.7114,5.7002,5.7024,5.6777,5.6508,5.6575,5.6889,5.7314,5.7203,5.7226,5.727,5.727,5.7091,5.6822,5.6733,5.6598,5.6351,5.617,5.608,5.5989,5.6012,5.617,5.6215,5.6373,5.6373,5.5967,5.5718,5.5242,5.49,5.4423,5.3802,5.3526,5.3201,5.3108,5.3085,5.246,5.2064,5.2091,5.1255,5.0227,4.9679,4.8916,4.8267,4.81,4.8081,4.8487,4.9182,4.8463,4.8105,4.7962,4.7339,4.7116,4.7038,4.7038,4.7038,4.7038,4.7038,4.7038,4.7199,4.7638,4.7999,4.8221,4.8687,4.9502,5.0152,5.0318,5.0479,5.0726,5.099,5.0644,5.0368,5.1671,5.29,5.3414,5.3824,5.491,5.6416,5.6435,5.5867,5.5842,5.6145,5.6068,5.5712,5.5486,5.546,5.5182,5.5071,5.5135,5.5126,5.562,5.6178,5.6797,5.6887,5.8244,5.98,5.9984,6.009,6.009,6.009,6.009,5.9645,5.8306,5.6356,5.4205,5.2672,5.1423,4.9855,4.8827,4.8767,5.2905,5.2969,5.3182,5.3948,5.4777,5.6098,5.6441,5.6125,5.6192,5.608,5.6147,5.6373,5.6778,5.698,5.6823,5.6868,5.6935,5.6777,5.653,5.6102,5.6328,5.6329,5.617,5.5989,5.5989,5.5989,5.6034,5.6102,5.6373,5.6418,5.6305,5.6012,5.5831,5.5334,5.4697,5.4263,5.3848,5.3431,5.3247,5.3152,5.3039,5.2946,5.2923,5.2625,5.1208,4.9802,4.9419,4.8463,4.7182,4.7182,4.7188,4.7237,4.7501,4.7309,4.7285,4.7116,4.714,4.7038,4.7038,4.7038,4.7038,4.7038,4.7038,4.6996,4.6876,4.7046,4.7523,4.7794,4.7785,4.8483,4.9306,4.964,4.9708,4.9866,5.004,4.9879,4.977,5.0353,5.1396,5.196,5.2514,5.3634,5.5182,5.6981,5.6416,5.639,5.6435,5.6119,5.5861,5.5686,5.5434,5.5097,5.5149,5.5272,5.5237,5.5278,5.5786,5.5779,5.5658,5.6714,5.8289,5.9199,5.9967,6.009,6.009,6.009,5.9674,5.7715,5.5819,5.368,5.1937,5.07,4.9795,4.8976,4.8872,5.3096,5.3139,5.3647,5.4092,5.4559,5.572,5.6147,5.6012,5.5989,5.5989,5.5989,5.6147,5.6328,5.6508,5.6374,5.6373,5.6597,5.635,5.6192,5.6012,5.6169,5.6102,5.608,5.5989,5.5989,5.5989,5.6034,5.6101,5.6103,5.6192,5.6214,5.5967,5.5626,5.5105,5.4606,5.4217,5.3825,5.3572,5.3385,5.3293,5.2877,5.2437,5.2251,5.1691,5.0029,4.9182,4.8778,4.7842,4.714,4.7062,4.7038,4.7038,4.7038,4.7038,4.7038,4.7038,4.7038,4.7038,4.7038,4.7038,4.7038,4.7038,4.7038,4.6876,4.6659,4.6441,4.6876,4.7179,4.7203,4.7415,4.8215,4.8937,4.8922,4.8969,4.9038,4.9146,4.929,4.9442,4.9945,5.061,5.1423,5.2471,5.4149,5.6139,5.7135,5.6904,5.6621,5.6306,5.6048,5.5719,5.526,5.5045,5.5201,5.535,5.5194,5.5126,5.5348,5.533,5.514,5.5617,5.6621,5.797,5.9663,6.0099,6.0099,6.009,6.009,5.783,5.492,5.3095,5.1187,5.0077,4.9215,4.8767,4.9021,5.3712,5.3541,5.4156,5.441,5.4558,5.5518,5.5989,5.5989,5.5989,5.5989,5.6012,5.6125,5.626,5.6147,5.6126,5.617,5.6147,5.6057,5.6012,5.6012,5.6034,5.6012,5.5989,5.5989,5.5989,5.5989,5.5989,5.6012,5.5991,5.6012,5.6012,5.5967,5.5739,5.5242,5.4764,5.4327,5.3986,5.371,5.3595,5.3385,5.297,5.2509,5.2041,5.1411,4.9958,4.9058,4.8463,4.7525,4.7116,4.7038,4.7038,4.7038,4.7038,4.7038,4.7038,4.7038,4.7038,4.7038,4.7038,4.7038,4.6966,4.6803,4.6689,4.6448,4.6151,4.5933,4.6041,4.617,4.6195,4.6617,4.7338,4.7673,4.7792,4.8029,4.8414,4.8478,4.8568,4.8725,4.8864,4.9327,4.9264,5.0476,5.2461,5.4346,5.5474,5.648,5.6859,5.6493,5.6152,5.5499,5.5085,5.5019,5.5116,5.5168,5.5019,5.4941,5.4976,5.5007,5.4998,5.5322,5.6367,5.7701,5.9358,6.0089,6.0089,6.0099,5.9882,5.6652,5.31,5.1393,5.0403,4.9468,4.8767,4.8812,4.8962,5.5306,5.4452,5.441,5.4452,5.4622,5.569,5.6054,5.5989,5.5989,5.5989,5.6012,5.6328,5.6395,5.6485,5.6508,5.6463,5.6395,5.6102,5.6034,5.5989,5.5989,5.5989,5.5989,5.5989,5.5989,5.5989,5.5989,5.5989,5.5989,5.5989,5.5989,5.5967,5.5876,5.5582,5.5333,5.5012,5.4625,5.4101,5.3848,5.3572,5.3134,5.2764,5.2021,5.1087,5.0053,4.9082,4.8201,4.7501,4.7116,4.699,4.7038,4.7038,4.7038,4.7038,4.7038,4.7038,4.7038,4.7038,4.7038,4.7038,4.6869,4.6345,4.6099,4.5802,4.5577,4.549,4.5563,4.5563,4.5337,4.586,4.6222,4.6364,4.6505,4.6883,4.735,4.7585,4.7648,4.7977,4.8083,4.8159,4.8105,4.921,5.13,5.196,5.3013,5.4599,5.637,5.6003,5.5286,5.4755,5.5052,5.4993,5.4967,5.4967,5.4941,5.4863,5.4896,5.4998,5.4991,5.4851,5.6163,5.7412,5.8946,5.9935,6.0041,5.9456,5.8488,5.5709,5.197,5.036,4.9497,4.8767,4.8767,4.8812,4.8812,5.5933,5.5812,5.5589,5.5567,5.5896,5.6568,5.6658,5.6325,5.6102,5.5989,5.6012,5.6125,5.6215,5.6215,5.6192,5.6192,5.6148,5.6034,5.5989,5.5989,5.5989,5.5989,5.5989,5.5989,5.5989,5.5989,5.5989,5.5989,5.5989,5.5989,5.5989,5.5989,5.5989,5.5831,5.5763,5.5627,5.531,5.4739,5.4215,5.3917,5.3227,5.2533,5.1625,5.0528,4.958,4.8559,4.7722,4.7213,4.6876,4.6731,4.6755,4.69,4.6713,4.6803,4.7038,4.7038,4.7038,4.7038,4.7038,4.7038,4.661,4.5916,4.5411,4.5168,4.5001,4.4816,4.4962,4.5035,4.4645,4.4897,4.5097,4.4778,4.4874,4.4976,4.5422,4.5833,4.6132,4.7136,4.7406,4.7639,4.7856,4.914,5.0601,5.0787,5.1052,5.3443,5.5667,5.4955,5.4208,5.4591,5.4993,5.4967,5.4941,5.4967,5.4941,5.4863,5.4889,5.4967,5.4622,5.4179,5.5405,5.7002,5.847,5.9716,5.8601,5.7632,5.6909,5.5362,5.2059,4.9944,4.9006,4.8767,4.8767,4.8767,4.8767,5.6192,5.6552,5.6466,5.6685,5.7044,5.7115,5.7003,5.6754,5.641,5.6102,5.5991,5.5989,5.5989,5.5989,5.6012,5.6012,5.6012,5.5989,5.5989,5.5989,5.5989,5.5989,5.5989,5.5989,5.5989,5.5989,5.5989,5.5989,5.5989,5.5989,5.5989,5.5989,5.5989,5.5989,5.5989,5.5967,5.5741,5.524,5.4832,5.4149,5.3183,5.2254,5.1111,4.949,4.885,4.8057,4.7188,4.6876,4.6731,4.6731,4.6562,4.6731,4.6737,4.6803,4.7038,4.7038,4.7038,4.7038,4.7038,4.6948,4.6586,4.6013,4.5511,4.5195,4.4684,4.423,4.4335,4.4555,4.4254,4.4237,4.4376,4.4124,4.4043,4.4086,4.4387,4.4736,4.5111,4.6109,4.6798,4.7014,4.7363,4.849,4.9288,4.9541,5.0058,5.1944,5.2453,5.2066,5.2471,5.3225,5.4309,5.4335,5.4726,5.4856,5.4967,5.4915,5.4941,5.4967,5.4622,5.4179,5.5097,5.6572,5.7689,5.806,5.6895,5.5724,5.5147,5.4109,5.1456,4.9825,4.9155,4.8767,4.8767,4.8767,4.8767,5.6215,5.6615,5.704,5.7494,5.7735,5.7004,5.6882,5.7063,5.6754,5.6367,5.5989,5.5989,5.5989,5.5989,5.5989,5.5989,5.5989,5.5989,5.5989,5.5989,5.5989,5.5989,5.5989,5.5989,5.5989,5.5989,5.5989,5.5989,5.5989,5.5989,5.5989,5.5989,5.5989,5.5989,5.5989,5.5989,5.5741,5.5308,5.5104,5.3988,5.286,5.2045,5.0618,4.9206,4.8368,4.7818,4.7092,4.6683,4.649,4.6538,4.6441,4.6448,4.6665,4.6851,4.7038,4.7014,4.7014,4.7014,4.7014,4.6972,4.6544,4.594,4.5302,4.4986,4.4596,4.4188,4.3944,4.3944,4.3985,4.3968,4.3968,4.396,4.396,4.4086,4.4437,4.4736,4.4928,4.5535,4.6026,4.6391,4.6824,4.7306,4.7912,4.8478,4.9108,4.9215,4.9312,4.9765,5.044,5.1441,5.2807,5.3325,5.4111,5.4406,5.4863,5.4889,5.4915,5.4967,5.4882,5.4752,5.5356,5.6083,5.6194,5.6228,5.567,5.5034,5.4034,5.2894,5.1133,4.945,4.8975,4.8767,4.8767,4.8767,4.8767,5.6215,5.6529,5.6467,5.6642,5.7108,5.7797,5.7599,5.6947,5.6983,5.6738,5.5989,5.5989,5.5989,5.5989,5.5989,5.5989,5.5989,5.5989,5.5989,5.5989,5.5989,5.5989,5.5989,5.5989,5.5989,5.5989,5.5989,5.5989,5.5989,5.5989,5.5989,5.5989,5.5989,5.5989,5.5989,5.5989,5.5921,5.5469,5.4855,5.3641,5.3042,5.1462,4.9509,4.9148,4.7932,4.7339,4.7068,4.6538,4.6255,4.6176,4.6127,4.611,4.6296,4.6562,4.6966,4.6917,4.6779,4.6683,4.6683,4.6441,4.5698,4.5285,4.4816,4.4188,4.3616,4.3248,4.3216,4.3232,4.3691,4.396,4.396,4.396,4.396,4.3977,4.4345,4.4437,4.462,4.4853,4.5302,4.5767,4.6332,4.6848,4.7323,4.7646,4.7729,4.7185,4.7614,4.837,4.8861,4.979,5.1114,5.206,5.3194,5.4067,5.4681,5.4707,5.4688,5.4759,5.4785,5.4863,5.4882,5.5164,5.5357,5.5329,5.5002,5.4346,5.3202,5.1769,5.0418,4.9097,4.8944,4.8766,4.8736,4.869,4.8721,5.6215,5.6509,5.6349,5.6451,5.6925,5.7601,5.7609,5.7216,5.7075,5.6683,5.6192,5.6034,5.5989,5.5989,5.5989,5.5989,5.5989,5.5989,5.5989,5.5989,5.5989,5.5989,5.5989,5.5989,5.5989,5.5989,5.5989,5.5989,5.5989,5.5989,5.5989,5.5989,5.5989,5.5989,5.5989,5.5989,5.5989,5.5695,5.5084,5.3894,5.3137,5.0998,4.9679,4.8982,4.7597,4.7164,4.7098,4.6424,4.6055,4.5837,4.5691,4.5812,4.5982,4.6417,4.6659,4.6641,4.649,4.6466,4.6514,4.5771,4.5066,4.4513,4.3902,4.3322,4.315,4.2707,4.2625,4.2863,4.3257,4.3674,4.3821,4.396,4.396,4.396,4.3994,4.4027,4.4153,4.4328,4.4712,4.516,4.5741,4.6228,4.6496,4.6727,4.595,4.5445,4.6243,4.6993,4.7388,4.8107,4.9049,4.996,5.1945,5.3086,5.2542,5.3409,5.448,5.4506,5.4577,5.4428,5.4324,5.457,5.4713,5.4566,5.4318,5.3393,5.2191,5.069,4.9457,4.8434,4.8235,4.8502,4.8627,4.8613,4.8674,5.6282,5.6597,5.6554,5.6798,5.7249,5.6825,5.722,5.7651,5.7048,5.6723,5.6462,5.617,5.5989,5.5989,5.5989,5.5989,5.5989,5.5989,5.5989,5.5989,5.5989,5.5989,5.5989,5.5989,5.5989,5.5989,5.5989,5.5989,5.5989,5.5989,5.5989,5.5989,5.5989,5.5989,5.5989,5.5989,5.5989,5.5899,5.52,5.4103,5.2837,5.1189,4.9991,4.8439,4.7525,4.705,4.7321,4.6116,4.548,4.5795,4.5285,4.5139,4.5715,4.6176,4.6272,4.6231,4.6127,4.6055,4.5861,4.5188,4.4677,4.4252,4.3665,4.2978,4.2584,4.2304,4.2271,4.2386,4.2847,4.3289,4.3748,4.396,4.396,4.396,4.396,4.396,4.401,4.4119,4.4279,4.4603,4.495,4.5325,4.5615,4.5246,4.4549,4.5141,4.5962,4.6097,4.6412,4.6509,4.7323,4.87,5.0759,5.1141,5.0529,5.1644,5.3278,5.3802,5.4115,5.4044,5.3966,5.3977,5.419,5.4132,5.4124,5.2616,5.1205,4.8993,4.7442,4.7211,4.7388,4.7759,4.7946,4.8179,4.8426,5.6823,5.6597,5.6597,5.6636,5.6803,5.7476,5.7457,5.7091,5.7436,5.7241,5.6634,5.617,5.5989,5.5989,5.5989,5.5989,5.5989,5.5989,5.5989,5.5989,5.5989,5.5989,5.5989,5.5989,5.5989,5.5989,5.5989,5.5989,5.5989,5.5989,5.5989,5.5989,5.5989,5.5989,5.5989,5.5989,5.5989,5.5878,5.4745,5.3647,5.242,5.0208,4.8826,4.7698,4.6689,4.5933,4.5916,4.5261,4.4945,4.5139,4.4799,4.4774,4.5261,4.5771,4.5982,4.5764,4.5674,4.557,4.5132,4.4718,4.4457,4.4171,4.3706,4.2625,4.2057,4.1711,4.1603,4.1445,4.223,4.3167,4.3731,4.396,4.396,4.396,4.396,4.396,4.3977,4.4027,4.4161,4.4354,4.4486,4.4713,4.4561,4.3989,4.4244,4.4949,4.5186,4.5314,4.5295,4.5228,4.6281,4.7778,4.9049,4.9079,4.9507,5.091,5.2181,5.3147,5.3626,5.3809,5.3906,5.3943,5.3611,5.385,5.4185,5.2054,4.8554,4.6737,4.5137,4.6076,4.6906,4.714,4.7372,4.7774,4.8099,5.7024,5.6597,5.6844,5.689,5.6976,5.7246,5.734,5.7241,5.7244,5.7068,5.6842,5.6261,5.5989,5.5989,5.5989,5.5989,5.5989,5.5989,5.5989,5.5989,5.5989,5.5989,5.5989,5.5989,5.5989,5.5989,5.5989,5.5989,5.5989,5.5989,5.5989,5.5989,5.5989,5.5989,5.5989,5.5989,5.5989,5.5673,5.4882,5.3715,5.2354,5.0579,4.8926,4.7967,4.6617,4.6158,4.5916,4.5292,4.475,4.4677,4.445,4.4481,4.4889,4.5212,4.5528,4.5188,4.5181,4.501,4.4718,4.4262,4.4123,4.3976,4.3265,4.2354,4.1612,4.1256,4.0982,4.1097,4.2107,4.2994,4.3699,4.3936,4.396,4.396,4.396,4.396,4.396,4.396,4.3969,4.4029,4.4139,4.4269,4.4266,4.4267,4.4749,4.5066,4.5002,4.5037,4.49,4.4736,4.5697,4.6927,4.7107,4.7247,4.8515,4.9881,5.0999,5.2692,5.3173,5.3678,5.3802,5.3495,5.2871,5.2882,5.1892,4.9295,4.6106,4.4807,4.4859,4.5597,4.6427,4.6416,4.6452,4.6928,4.7573,5.7158,5.6777,5.718,5.7404,5.7381,5.6955,5.7224,5.776,5.6774,5.6598,5.7047,5.6419,5.6057,5.5989,5.5989,5.5989,5.5989,5.5989,5.5989,5.5989,5.5989,5.5989,5.5989,5.5989,5.5989,5.5989,5.5989,5.5989,5.5989,5.5989,5.5989,5.5989,5.5989,5.5989,5.5989,5.5989,5.5989,5.5989,5.5944,5.4743,5.2632,5.1236,4.9566,4.8087,4.672,4.594,4.5778,4.5074,4.4579,4.4547,4.4164,4.4254,4.4662,4.4677,4.475,4.4718,4.4711,4.4603,4.4628,4.4237,4.3993,4.3902,4.3019,4.2222,4.1752,4.1355,4.1156,4.1761,4.2082,4.2748,4.3674,4.3936,4.387,4.3821,4.3838,4.396,4.396,4.396,4.396,4.4012,4.3988,4.4025,4.4253,4.4731,4.5098,4.4935,4.4778,4.4763,4.4736,4.4736,4.5381,4.5724,4.5922,4.6015,4.6977,4.838,4.9978,5.2156,5.2858,5.3503,5.3521,5.3338,5.2512,4.9984,4.8212,4.6011,4.5006,4.4721,4.4732,4.5091,4.5613,4.568,4.5655,4.6192,4.6822,5.7893,5.7782,5.7493,5.7604,5.7827,5.7426,5.7337,5.7426,5.7136,5.6912,5.6755,5.6508,5.626,5.6057,5.5989,5.5989,5.5989,5.5989,5.5989,5.5989,5.5989,5.5989,5.5989,5.5989,5.5989,5.5989,5.5989,5.5989,5.5989,5.5989,5.5989,5.5989,5.5989,5.5989,5.5989,5.5989,5.5989,5.5989,5.5944,5.4925,5.2519,4.9996,4.7734,4.6533,4.5535,4.4945,4.4855,4.4359,4.4213,4.4132,4.4058,4.4017,4.4156,4.4481,4.4481,4.4181,4.4132,4.4335,4.445,4.4263,4.4116,4.4453,4.3445,4.2896,4.2412,4.186,4.1364,4.1752,4.2057,4.2674,4.3625,4.3936,4.3699,4.3478,4.365,4.396,4.3936,4.396,4.396,4.3936,4.3862,4.4072,4.4502,4.4906,4.4759,4.4584,4.457,4.4558,4.4736,4.4736,4.4763,4.4872,4.4982,4.5049,4.577,4.7274,4.9728,5.1706,5.2516,5.2926,5.2979,5.269,4.9719,4.6963,4.5445,4.5447,4.5091,4.4736,4.4736,4.477,4.494,4.5109,4.5221,4.5637,4.6061,5.7871,5.8071,5.7804,5.8005,5.8293,5.7916,5.7715,5.7671,5.718,5.68,5.6575,5.6373,5.617,5.6034,5.5989,5.5989,5.5989,5.5989,5.5989,5.5989,5.5989,5.5989,5.5989,5.5989,5.5989,5.5989,5.5989,5.5989,5.5989,5.5989,5.5989,5.5989,5.5989,5.5989,5.5989,5.5989,5.5989,5.5989,5.5921,5.5198,5.3532,5.1099,4.8498,4.6936,4.5674,4.4993,4.4603,4.431,4.396,4.396,4.396,4.396,4.3993,4.4115,4.4205,4.4034,4.3985,4.4257,4.493,4.4405,4.4357,4.4862,4.3749,4.3134,4.3003,4.2477,4.1884,4.1983,4.2206,4.2551,4.3363,4.3453,4.3314,4.3117,4.3257,4.3576,4.3821,4.3936,4.396,4.396,4.3675,4.3749,4.4366,4.4396,4.4363,4.4358,4.4392,4.4524,4.472,4.4736,4.4736,4.4818,4.4818,4.49,4.5213,4.7426,5.0013,5.1247,5.2049,5.2163,5.1952,5.0521,4.7804,4.5271,4.4908,4.4939,4.4736,4.4736,4.4736,4.4766,4.4816,4.4878,4.4881,4.4925,4.5206,5.7738,5.8226,5.8138,5.8315,5.8602,5.816,5.7938,5.7826,5.6934,5.6553,5.644,5.6237,5.6125,5.5989,5.5989,5.5989,5.5989,5.5989,5.5989,5.5989,5.5989,5.5989,5.5989,5.5989,5.5989,5.5989,5.5989,5.5989,5.5989,5.5989,5.5989,5.5989,5.5989,5.5989,5.5989,5.5989,5.5989,5.5989,5.5967,5.5264,5.383,5.1916,4.983,4.693,4.5868,4.5358,4.5066,4.4408,4.396,4.396,4.396,4.396,4.3944,4.3821,4.3846,4.3846,4.3797,4.4037,4.485,4.4476,4.4709,4.4793,4.4172,4.3643,4.3445,4.2847,4.2206,4.2156,4.2206,4.2329,4.2781,4.3167,4.3093,4.2929,4.3068,4.3437,4.3821,4.396,4.396,4.3911,4.3454,4.3188,4.3308,4.3353,4.3481,4.3651,4.3801,4.4037,4.4349,4.4504,4.46,4.4662,4.4677,4.4689,4.4736,4.7334,4.9407,5.0432,5.0707,5.0796,4.9971,4.8461,4.7237,4.5566,4.4783,4.4736,4.4736,4.4736,4.4736,4.4736,4.4736,4.4751,4.477,4.4835,4.4928,5.8226,5.8558,5.8293,5.8315,5.8536,5.7849,5.7515,5.7382,5.68,5.6373,5.6125,5.6373,5.6215,5.6034,5.5989,5.5989,5.5989,5.5989,5.586,5.5839,5.5818,5.5797,5.5819,5.5777,5.5734,5.5989,5.5883,5.5968,5.5968,5.5989,5.5989,5.5989,5.5989,5.5989,5.5989,5.5989,5.5989,5.5989,5.5967,5.5175,5.3324,5.2125,4.9925,4.7225,4.5964,4.5407,4.492,4.4335,4.396,4.396,4.396,4.396,4.3797,4.351,4.3314,4.3829,4.3461,4.3725,4.4253,4.4428,4.4379,4.3962,4.4172,4.4313,4.3782,4.2986,4.2403,4.2255,4.2255,4.2288,4.2354,4.2945,4.3068,4.2773,4.3281,4.3748,4.3919,4.396,4.3895,4.3797,4.3265,4.2603,4.2497,4.235,4.2658,4.2956,4.3246,4.3531,4.3929,4.4207,4.4399,4.4496,4.4477,4.4488,4.4689,4.6629,4.8165,4.8954,4.9008,4.8767,4.8165,4.6906,4.5831,4.4841,4.4677,4.4736,4.4736,4.4736,4.4736,4.4736,4.4736,4.4736,4.4736,4.4736,4.4773,5.8558,5.8669,5.8492,5.8404,5.8315,5.7938,5.7426,5.6934,5.6642,5.6328,5.608,5.6147,5.6147,5.5989,5.5989,5.5989,5.5989,5.5968,5.5689,5.5241,5.5156,5.5156,5.5136,5.4753,5.471,5.5113,5.5156,5.554,5.5883,5.5989,5.5989,5.5989,5.5989,5.5989,5.5989,5.5989,5.5989,5.5989,5.5967,5.4993,5.3163,5.2214,5.0462,4.8225,4.6503,4.5584,4.5115,4.4384,4.4034,4.3993,4.4188,4.4254,4.3919,4.3657,4.3281,4.324,4.3158,4.3758,4.3923,4.4097,4.4031,4.4354,4.3965,4.4063,4.3995,4.324,4.2773,4.2871,4.2748,4.2576,4.2625,4.3068,4.297,4.265,4.2888,4.3281,4.3789,4.3936,4.3797,4.3298,4.2945,4.2279,4.1707,4.1437,4.1668,4.2434,4.2728,4.2424,4.2867,4.3551,4.3836,4.4002,4.4098,4.4288,4.4504,4.532,4.6867,4.7116,4.7424,4.7409,4.6803,4.5657,4.4545,4.4468,4.4437,4.4526,4.4736,4.4736,4.4736,4.4736,4.4736,4.4736,4.4736,4.4736,4.4736,5.8713,5.8713,5.8713,5.8514,5.8271,5.8049,5.7492,5.6755,5.6642,5.6329,5.608,5.6102,5.608,5.5989,5.5989,5.5989,5.5989,5.5625,5.5241,5.441,5.4283,5.4071,5.369,5.3224,5.3435,5.4282,5.4431,5.4985,5.5798,5.5989,5.5989,5.5989,5.5989,5.5989,5.5989,5.5989,5.5989,5.5989,5.5989,5.4925,5.3232,5.2377,5.1185,4.9124,4.7489,4.6406,4.5729,4.4823,4.431,4.4359,4.4628,4.475,4.4359,4.4017,4.3527,4.3109,4.3445,4.3857,4.4221,4.3874,4.3733,4.4113,4.3742,4.3651,4.4329,4.3363,4.3199,4.3371,4.3199,4.2929,4.2896,4.2551,4.2625,4.2798,4.2707,4.2871,4.3674,4.396,4.3691,4.3142,4.2641,4.1842,4.0864,4.0801,4.1126,4.1812,4.1802,4.1396,4.191,4.2654,4.2907,4.307,4.326,4.3589,4.3712,4.3993,4.4912,4.5149,4.6123,4.6559,4.5677,4.4677,4.4573,4.4437,4.4302,4.4453,4.4693,4.4736,4.4736,4.4736,4.4736,4.4736,4.4736,4.4736,4.4736,5.8713,5.8713,5.8713,5.8669,5.847,5.7782,5.7404,5.7159,5.6778,5.6418,5.6171,5.6373,5.6328,5.5989,5.608,5.6012,5.5947,5.5262,5.4708,5.4262,5.3648,5.282,5.2247,5.1929,5.2756,5.407,5.4388,5.5007,5.5754,5.5989,5.5989,5.5989,5.5989,5.5989,5.5989,5.5989,5.5989,5.5989,5.5989,5.4971,5.3371,5.2536,5.1419,4.9622,4.8439,4.7627,4.6744,4.5843,4.5285,4.5268,4.5382,4.5327,4.5164,4.4245,4.3755,4.3723,4.3429,4.3273,4.3306,4.4047,4.4079,4.3205,4.3989,4.4354,4.3511,4.315,4.3003,4.3224,4.3027,4.2978,4.3019,4.297,4.297,4.2994,4.2954,4.3191,4.3748,4.396,4.392,4.3749,4.2797,4.1801,4.1007,4.0665,4.0711,4.1323,4.1143,4.0935,4.1295,4.1822,4.2021,4.2184,4.2495,4.2841,4.2862,4.2759,4.3207,4.3781,4.5077,4.5479,4.4625,4.4446,4.4477,4.4557,4.4526,4.4616,4.4736,4.4736,4.4736,4.4736,4.4736,4.4736,4.4736,4.4736,4.4736,5.8713,5.8713,5.8713,5.858,5.8293,5.7938,5.7627,5.7359,5.7113,5.6912,5.6845,5.6979,5.6733,5.6373,5.6328,5.6215,5.5969,5.554,5.4986,5.4368,5.3521,5.2332,5.1229,5.0953,5.1866,5.3456,5.3648,5.454,5.5777,5.5989,5.5989,5.5989,5.5989,5.5989,5.5989,5.5989,5.5989,5.5989,5.5944,5.5289,5.383,5.3068,5.1839,5.0708,4.9385,4.8553,4.7722,4.6503,4.5868,4.5843,4.5667,4.557,4.557,4.4506,4.409,4.4425,4.3895,4.3486,4.3552,4.3561,4.3561,4.3388,4.3281,4.3561,4.347,4.3052,4.3101,4.3363,4.315,4.3216,4.3412,4.351,4.3486,4.3478,4.3437,4.3518,4.387,4.396,4.3715,4.3175,4.2518,4.1785,4.1612,4.0957,4.0709,4.0649,4.0649,4.0659,4.0673,4.0936,4.1197,4.137,4.1618,4.2263,4.2481,4.2301,4.2548,4.3156,4.4126,4.4387,4.3956,4.3921,4.4164,4.4543,4.4648,4.4736,4.4736,4.4736,4.4736,4.4736,4.4736,4.4736,4.4736,4.4736,4.4736,5.8713,5.8713,5.8713,5.8536,5.8271,5.8138,5.7915,5.7582,5.7538,5.7448,5.7382,5.7471,5.727,5.68,5.6642,5.6439,5.6084,5.5693,5.5007,5.4093,5.3671,5.2523,5.0841,5.0522,5.1438,5.2884,5.3245,5.4095,5.5883,5.5989,5.5989,5.5989,5.5989,5.5989,5.5989,5.5989,5.5989,5.5989,5.5989,5.5469,5.4423,5.3371,5.2519,5.1716,5.0233,4.9396,4.9186,4.7621,4.672,4.6761,4.6048,4.5738,4.6026,4.482,4.4245,4.4618,4.4278,4.3936,4.3772,4.3371,4.3232,4.3551,4.324,4.3076,4.3625,4.3273,4.3396,4.365,4.3551,4.3453,4.3821,4.3919,4.3895,4.3895,4.3968,4.4049,4.4164,4.4034,4.3625,4.288,4.2378,4.1934,4.1587,4.1057,4.0649,4.0649,4.0615,4.0582,4.0451,4.0557,4.0679,4.0749,4.089,4.1611,4.2074,4.1848,4.1956,4.2594,4.283,4.309,4.3017,4.3151,4.3753,4.4142,4.3829,4.4106,4.4303,4.4566,4.472,4.4736,4.4736,4.4736,4.4736,4.4643,4.4627,5.8713,5.8713,5.8713,5.8691,5.8603,5.8271,5.8115,5.8071,5.8071,5.7805,5.7604,5.7871,5.7782,5.727,5.6823,5.6575,5.6289,5.5333,5.4348,5.3928,5.4166,5.3568,5.1423,5.1039,5.1688,5.2821,5.3054,5.4095,5.5754,5.6032,5.5989,5.6138,5.6223,5.6074,5.6243,5.6053,5.6181,5.6181,5.6138,5.5662,5.4643,5.3521,5.2798,5.2589,5.0932,5.0225,5.0615,4.918,4.8177,4.8032,4.6591,4.6033,4.637,4.5147,4.4293,4.4691,4.4269,4.3991,4.3812,4.3363,4.3117,4.3167,4.3068,4.3003,4.3191,4.3486,4.3797,4.3895,4.3821,4.3821,4.3821,4.3919,4.3968,4.3861,4.4264,4.4624,4.4752,4.4304,4.3774,4.3059,4.2665,4.2271,4.1156,4.0873,4.0649,4.0624,4.059,4.0379,4.0183,4.0062,4.0208,4.0218,4.0202,4.0886,4.1765,4.1525,4.1412,4.1771,4.1632,4.1709,4.1642,4.2204,4.2848,4.2839,4.2806,4.3321,4.3697,4.4071,4.4334,4.4303,4.4411,4.4689,4.4658,4.4488,4.4458,5.8713,5.8713,5.8713,5.8713,5.8691,5.8558,5.8492,5.847,5.847,5.8359,5.8271,5.8404,5.8049,5.7426,5.7136,5.6756,5.615,5.5671,5.5036,5.4573,5.4764,5.406,5.2901,5.2107,5.2111,5.2563,5.2906,5.3732,5.5028,5.6176,5.6859,5.6964,5.7431,5.7663,5.7684,5.7663,5.7366,5.7006,5.7368,5.7246,5.6135,5.4663,5.3837,5.3453,5.1312,5.0309,5.0462,4.9527,4.899,4.8894,4.728,4.5963,4.5387,4.4695,4.4135,4.4129,4.3819,4.3572,4.3582,4.3456,4.3412,4.3117,4.3339,4.3388,4.3167,4.3551,4.3936,4.396,4.3936,4.3772,4.3486,4.3674,4.4237,4.4733,4.4591,4.4802,4.5587,4.5092,4.4296,4.3607,4.3065,4.2583,4.1867,4.1371,4.0649,4.0575,4.035,4.0017,3.9831,3.9589,3.9016,3.8779,3.9464,4.0417,4.1196,4.1274,4.1055,4.0806,4.0507,4.0299,4.0572,4.1241,4.1645,4.1651,4.1868,4.2335,4.3459,4.3779,4.3778,4.3635,4.3558,4.367,4.3716,4.3747,4.4334,5.8713,5.8713,5.8713,5.8713,5.8713,5.8713,5.8713,5.8713,5.8713,5.8713,5.8713,5.8713,5.8359,5.7872,5.7627,5.7247,5.6642,5.6262,5.5814,5.5263,5.5127,5.4657,5.3846,5.3094,5.26,5.2452,5.3098,5.4114,5.5472,5.698,5.779,5.7852,5.8404,5.8722,5.8659,5.8699,5.8234,5.7477,5.7963,5.7773,5.6665,5.4887,5.4105,5.3973,5.1518,5.01,5.029,4.9509,4.9126,4.9138,4.7591,4.6123,4.4984,4.4079,4.3609,4.3534,4.325,4.3012,4.2883,4.2887,4.2711,4.2704,4.2967,4.309,4.3026,4.3354,4.3657,4.3919,4.3748,4.3625,4.3363,4.3535,4.3731,4.4384,4.4595,4.5051,4.538,4.5137,4.4559,4.3772,4.312,4.2719,4.235,4.1418,4.0665,4.06,4.035,4.0037,3.9846,3.9622,3.8936,3.7896,3.9117,4.0216,4.1145,4.1589,4.0906,4.0233,3.9449,3.8877,3.9522,4.0155,4.0423,4.0618,4.0906,4.1621,4.2911,4.3396,4.3212,4.3063,4.2898,4.2759,4.2635,4.3119,4.3936,5.8713,5.8713,5.8713,5.8713,5.8713,5.8713,5.8713,5.8713,5.8713,5.8713,5.8713,5.8713,5.8647,5.8536,5.816,5.8071,5.776,5.6979,5.6148,5.5503,5.6058,5.5456,5.419,5.3953,5.3394,5.262,5.3737,5.5303,5.6939,5.8062,5.8722,5.8699,5.8869,5.906,5.8781,5.8951,5.8328,5.7668,5.7549,5.6926,5.5435,5.4008,5.3468,5.3812,5.1502,5.0409,5.1183,4.9659,4.8622,4.808,4.7411,4.6713,4.542,4.3776,4.2756,4.2923,4.2663,4.2135,4.1687,4.1367,4.1452,4.1612,4.1915,4.2277,4.2568,4.2861,4.3223,4.3533,4.3338,4.3142,4.3502,4.3126,4.2765,4.2557,4.4172,4.4951,4.4665,4.4676,4.4365,4.3261,4.2859,4.2585,4.2022,4.1225,4.0717,4.0717,4.0623,4.0425,4.0062,3.9964,3.9284,3.8379,3.89,4.0521,4.1331,4.1784,4.062,3.9571,3.8621,3.7966,3.8713,3.8999,3.9251,3.9627,3.9911,4.0302,4.1575,4.214,4.21,4.228,4.2275,4.2141,4.2151,4.2393,4.3262,5.8713,5.8713,5.8713,5.8713,5.8713,5.8713,5.8713,5.8713,5.8713,5.8713,5.8713,5.8713,5.8558,5.8315,5.8204,5.8249,5.8382,5.756,5.6962,5.6657,5.6312,5.6186,5.6049,5.5202,5.4427,5.397,5.4018,5.4848,5.65,5.8553,5.9593,5.9678,6.0245,6.0542,6.0542,6.0521,6.0062,5.917,5.8565,5.8022,5.7268,5.5028,5.4061,5.4397,5.2308,5.105,5.1259,4.9687,4.8425,4.7462,4.6286,4.5434,4.4845,4.3492,4.2381,4.1709,4.1583,4.1508,4.1353,4.1318,4.1218,4.1128,4.1459,4.1614,4.1522,4.2338,4.2629,4.2714,4.2741,4.2634,4.2273,4.165,4.1668,4.2674,4.3248,4.3995,4.5002,4.4842,4.4636,4.4414,4.3722,4.2971,4.236,4.1314,4.0952,4.1272,4.0958,4.0597,4.0207,4.012,3.9837,3.9388,3.9569,4.0701,4.1462,4.0732,3.9475,3.9192,3.8487,3.7935,3.7984,3.801,3.8194,3.8565,3.8932,3.9278,3.9831,4.0497,4.0866,4.1145,4.1299,4.1381,4.1356,4.1612,4.2286,5.8713,5.8713,5.8713,5.8713,5.8713,5.8713,5.8713,5.8713,5.8713,5.8713,5.8713,5.8713,5.8558,5.8315,5.8182,5.8337,5.8602,5.7761,5.736,5.7227,5.621,5.5903,5.6196,5.5245,5.4341,5.3735,5.3759,5.4767,5.6565,5.8897,6.023,6.0587,6.1182,6.1221,6.1033,6.1267,6.0603,5.9094,5.8483,5.7865,5.7023,5.4846,5.4134,5.508,5.2711,5.1316,5.1316,4.9196,4.7639,4.6675,4.5631,4.4703,4.3982,4.3208,4.2132,4.0834,4.0766,4.077,4.0619,4.0734,4.0682,4.0424,4.0937,4.1166,4.0981,4.1414,4.1875,4.1703,4.1798,4.1363,4.0578,4.029,4.0588,4.168,4.2459,4.346,4.4252,4.454,4.4631,4.4892,4.4219,4.3344,4.2728,4.1574,4.0925,4.1356,4.109,4.0476,3.9975,3.9998,3.9972,3.9698,3.9749,4.0153,4.099,3.9879,3.8971,3.8892,3.8746,3.8318,3.8165,3.8309,3.847,3.8958,3.8523,3.8843,3.965,4.0208,4.0163,4.0409,4.0684,4.0611,4.01,4.0799,4.1441,5.8735,5.8669,5.8824,5.8913,5.8735,5.8646,5.8646,5.8691,5.8512,5.8579,5.8579,5.8579,5.8601,5.8469,5.805,5.8227,5.8536,5.7563,5.712,5.712,5.5787,5.4895,5.4414,5.3974,5.3118,5.2224,5.3225,5.4808,5.69,5.8914,6.0442,6.1242,6.1267,6.0906,6.0378,6.1012,6.0079,5.7928,5.7414,5.6685,5.5478,5.3689,5.3426,5.4557,5.2514,5.1069,5.0812,4.8379,4.645,4.5554,4.527,4.4478,4.3108,4.2713,4.1924,4.047,4.0248,4.0006,3.9604,3.9566,3.956,3.9594,4.0283,4.0672,4.0417,4.0516,4.0651,4.0791,3.9932,3.9266,3.8848,3.9172,3.9568,3.9905,4.1791,4.2574,4.2371,4.3144,4.4059,4.4061,4.3872,4.3863,4.369,4.1942,4.1266,4.1456,4.1156,4.057,3.9925,3.9892,3.9782,3.9286,3.928,3.9726,4.0706,4.025,3.959,3.9128,3.893,3.9079,3.9091,3.9053,3.9249,3.927,3.8573,3.8573,3.9435,3.9841,3.9891,3.981,4.006,4.0225,3.996,4.0291,4.0704,5.8912,5.8581,6.0116,6.0452,5.9717,5.8333,5.8088,5.849,5.7174,5.6996,5.7664,5.7731,5.7579,5.7252,5.6773,5.7388,5.8269,5.629,5.5789,5.6532,5.4966,5.4276,5.4319,5.3675,5.2906,5.2475,5.2948,5.363,5.4413,5.6792,5.8895,6.0254,6.0442,6.0315,6.0212,6.0991,6.0694,5.9215,5.7824,5.7293,5.7059,5.3818,5.2294,5.3017,5.0831,4.9459,4.9398,4.7541,4.614,4.5479,4.4538,4.3521,4.2451,4.1745,4.1017,4.0297,3.9884,3.962,3.9466,3.9444,3.9444,3.9483,3.9633,3.9688,3.9408,3.9808,3.9795,3.9112,3.7997,3.763,3.7848,3.8127,3.8475,3.89,3.9468,3.977,3.9476,4.1059,4.2371,4.26,4.375,4.5019,4.5173,4.344,4.1996,4.2725,4.2472,4.1919,4.1385,4.0803,4.0391,3.9703,3.9762,3.9964,3.9811,3.9981,3.9795,3.9177,3.8967,3.8934,3.8094,3.7988,3.8118,3.8984,3.829,3.828,3.9274,3.9971,4.0227,3.9715,3.9685,4.0,3.9935,4.035,4.06,5.8466,5.7981,5.9691,6.0118,5.9449,5.7998,5.7642,5.8022,5.6756,5.6248,5.6406,5.5836,5.5796,5.6129,5.6029,5.6663,5.7738,5.594,5.5267,5.5246,5.3972,5.3286,5.3307,5.2947,5.2371,5.1748,5.2456,5.2757,5.2905,5.4583,5.675,5.8725,5.8959,5.8746,5.8515,5.9678,5.9678,5.838,5.7176,5.6863,5.6902,5.3175,5.1188,5.136,4.9449,4.8243,4.8064,4.6405,4.5319,4.4978,4.4077,4.3214,4.2542,4.1634,4.0937,4.0504,3.9862,3.9444,3.9444,3.9444,3.9444,3.9444,3.9444,3.9245,3.8792,3.8616,3.8181,3.7206,3.6754,3.6707,3.7176,3.7215,3.7516,3.8181,3.8521,3.8715,3.8551,4.0216,4.1512,4.1989,4.3377,4.474,4.5617,4.4191,4.2989,4.3021,4.3153,4.2479,4.1565,4.0753,4.0101,3.9739,3.9895,3.9841,3.947,3.9811,3.9694,3.9052,3.8869,3.8689,3.7825,3.7501,3.7714,3.8571,3.8042,3.8092,3.9099,3.943,3.9801,3.9816,3.975,3.9875,4.0175,4.045,4.0624,5.7847,5.7471,5.8581,5.8803,5.8379,5.7441,5.7107,5.7177,5.6543,5.5755,5.4852,5.3583,5.38,5.5011,5.5483,5.6094,5.6812,5.6094,5.5139,5.4016,5.3003,5.2196,5.1778,5.2176,5.1704,5.0714,5.1791,5.2136,5.1654,5.2523,5.4241,5.6537,5.7113,5.6923,5.6456,5.7718,5.7782,5.6284,5.5936,5.5892,5.5737,5.2332,5.0302,5.0051,4.8295,4.7276,4.7212,4.5431,4.4369,4.4265,4.3855,4.3343,4.2844,4.2018,4.1208,4.0581,3.9772,3.9361,3.9344,3.9433,3.9444,3.9444,3.9444,3.9179,3.8426,3.7061,3.5831,3.5654,3.6089,3.6508,3.6553,3.6606,3.6877,3.7455,3.7933,3.8615,3.896,4.0198,4.1179,4.1835,4.2567,4.3609,4.5,4.4465,4.3336,4.2743,4.2766,4.2479,4.1168,4.0085,3.9369,3.9292,3.9539,3.9554,3.9206,3.964,3.9509,3.8729,3.8537,3.8229,3.7774,3.7486,3.7613,3.8193,3.7739,3.7739,3.8229,3.8355,3.8737,3.9174,3.961,3.9775,3.9685,4.006,4.0552,5.7942,5.7017,5.9429,5.9155,5.6966,5.5663,5.5755,5.6458,5.4296,5.3153,5.2921,5.2623,5.303,5.3911,5.3822,5.4994,5.6715,5.5092,5.4424,5.4692,5.3547,5.2307,5.1255,5.1627,5.1354,5.059,5.1396,5.1481,5.0784,5.1276,5.2099,5.3096,5.52,5.6562,5.7005,5.6734,5.7111,5.7954,5.6693,5.594,5.5939,5.3652,5.137,4.9348,4.7476,4.631,4.5923,4.5176,4.4628,4.4308,4.3837,4.3171,4.2372,4.1486,4.0335,3.9029,3.8677,3.8564,3.8602,3.9128,3.9444,3.9444,3.9444,3.8759,3.7103,3.4898,3.3956,3.5098,3.5946,3.6508,3.6553,3.6553,3.6495,3.6332,3.6492,3.6721,3.685,3.7778,3.8874,4.0103,4.1904,4.2887,4.3132,4.4133,4.4139,4.2497,4.2138,4.1819,4.0991,4.0097,3.9248,3.8817,3.8679,3.8612,3.8096,3.8786,3.8914,3.7979,3.7836,3.7728,3.7629,3.7486,3.7739,3.833,3.8028,3.779,3.8128,3.8017,3.8067,3.8657,3.956,4.0035,3.9445,3.9645,4.0107,5.7621,5.6547,5.8467,5.8116,5.6181,5.5639,5.5593,5.5647,5.2923,5.1673,5.1635,5.1461,5.2139,5.3334,5.3151,5.401,5.5585,5.4045,5.336,5.3176,5.2286,5.142,5.0749,5.1375,5.1229,5.0444,5.1272,5.1229,5.0423,5.0599,5.0853,5.123,5.3457,5.4881,5.5346,5.5318,5.6015,5.7298,5.3374,5.1969,5.3299,5.0954,4.8888,4.7144,4.6201,4.5589,4.5589,4.4793,4.4378,4.4397,4.3331,4.2335,4.1489,4.0605,3.9502,3.8218,3.7926,3.7692,3.7359,3.7734,3.7807,3.7529,3.749,3.6483,3.4066,3.1783,3.148,3.3947,3.4804,3.5549,3.6448,3.6553,3.6344,3.5849,3.5902,3.5857,3.5797,3.656,3.7454,3.829,3.9928,4.0915,4.0721,4.164,4.2022,4.2451,4.135,4.063,4.0091,3.918,3.8306,3.7702,3.7828,3.7862,3.7654,3.8326,3.8454,3.7697,3.7501,3.7486,3.7486,3.7486,3.7739,3.8179,3.7941,3.7689,3.7865,3.7689,3.779,3.8254,3.9245,3.977,3.961,3.9585,4.0077,5.6729,5.5486,5.6504,5.6308,5.5334,5.5854,5.5564,5.4508,5.1688,5.0364,5.0115,4.9873,5.077,5.2387,5.2573,5.2991,5.3621,5.3315,5.251,5.1302,5.1024,5.0819,5.0694,5.1483,5.142,5.0635,5.1335,5.1229,5.0443,5.0236,5.0215,5.0468,5.1888,5.2648,5.2648,5.3191,5.416,5.5309,4.9622,4.7815,5.0236,4.7857,4.6096,4.5177,4.5179,4.5335,4.5562,4.4545,4.4047,4.4242,4.2802,4.1545,4.0643,3.9767,3.869,3.7384,3.6897,3.6295,3.5367,3.5377,3.5155,3.4685,3.4464,3.3198,3.0452,2.8834,2.9234,3.2072,3.2923,3.3963,3.5703,3.5972,3.5899,3.566,3.5804,3.5812,3.5421,3.5992,3.6566,3.6965,3.78,3.8748,3.9009,3.8693,3.938,4.1187,4.0821,3.9716,3.9213,3.8108,3.7181,3.6717,3.7017,3.7352,3.7284,3.7771,3.77,3.7398,3.7202,3.7074,3.7074,3.7287,3.7512,3.7526,3.7537,3.7526,3.7512,3.7486,3.7689,3.8017,3.8456,3.8994,3.9425,3.956,3.9921,5.449,5.3674,5.4574,5.4138,5.2942,5.3439,5.3177,5.2146,4.9493,0.0,0.0,4.6889,4.7901,4.9279,5.026,5.1765,5.3597,5.3559,5.343,5.3175,5.3549,5.3087,5.2003,5.2565,5.2354,5.1484,5.1632,5.1229,5.0359,4.9601,4.9458,4.987,5.0501,5.0662,5.0321,4.9414,5.028,5.2758,5.1776,5.0871,5.036,5.0543,4.9186,4.6071,4.634,4.6058,4.5093,4.49,4.4352,4.3293,4.2941,4.2062,4.0554,3.9707,3.7761,3.4537,3.3846,3.2988,3.1501,3.154,3.1757,3.1985,3.101,2.9591,2.7826,2.842,2.9182,2.9768,3.0678,3.1802,3.3188,3.3833,3.4511,3.5498,3.58,3.5909,3.5819,3.5812,3.5992,3.6611,3.743,3.7995,3.7468,3.7319,3.7807,3.8899,3.9751,4.0177,3.9287,3.8114,3.7012,3.6398,3.6477,3.6647,3.6451,3.6352,3.6181,3.6437,3.6181,3.5925,3.6067,3.6789,3.7441,3.7404,3.7486,3.7458,3.7472,3.739,3.7537,3.7663,3.7739,3.7992,3.847,3.8893,3.9499,5.344,5.2402,5.238,5.2122,0.0,5.1427,5.0167,4.8216,4.6129,4.4792,4.4039,4.4395,4.5147,4.6204,4.7346,4.8756,5.0346,5.0705,5.1168,5.1568,5.1661,5.1631,5.1592,5.2139,5.2013,5.1327,5.1609,5.0918,4.9438,4.956,4.9232,4.8408,4.9685,5.0053,4.9395,4.8968,4.9284,5.0225,5.0674,5.0227,4.8966,4.9124,4.8066,4.5713,4.5769,0.0,0.0,0.0,0.0,0.0,0.0,0.0,0.0,3.851,3.6224,3.3149,3.1582,2.9983,2.8238,2.8056,2.8113,2.8226,2.762,2.6265,2.4136,2.5514,2.7004,2.8237,2.885,2.9799,3.1373,3.2302,3.3227,3.43,3.4532,3.45,3.4296,3.4859,3.5269,3.5166,3.5774,3.6316,3.6147,3.5724,3.6101,3.7948,3.8213,3.8194,3.8494,3.7151,3.6029,3.5901,3.599,3.5939,3.5617,3.5527,3.5726,3.5901,3.528,3.4849,3.5209,3.6529,3.7254,3.6654,3.6505,3.6775,3.7202,3.6368,3.5989,3.7161,3.7486,3.7592,3.7744,3.8009,3.8622,5.2066,5.094,5.0216,5.0152,5.0319,4.8622,4.6385,4.3845,4.2395,4.1712,4.1555,4.1634,4.2102,4.2901,4.44,4.5604,4.6523,4.7617,4.8537,4.9289,4.9186,4.9657,5.0669,5.101,5.0928,5.049,5.0717,4.977,4.7795,4.8774,4.8244,4.6436,4.8295,4.8783,4.7937,0.0,0.0,0.0,4.8806,4.8609,4.7274,4.6892,4.6149,4.4963,4.4859,0.0,4.5161,4.4255,4.3838,4.4008,4.2667,0.0,4.0174,0.0,0.0,0.0,0.0,0.0,0.0,0.0,0.0,0.0,2.372,2.2721,2.0853,2.2157,2.41,2.6287,2.6686,2.7409,2.9028,3.0255,3.1501,3.2651,3.2687,3.2429,3.2085,3.2885,3.3584,3.3176,3.3911,3.4569,3.4915,3.4404,3.4922,3.7176,3.6796,3.6646,3.7785,3.6026,3.4924,3.5542,3.5579,3.529,3.4811,3.4972,3.519,3.546,3.448,3.4002,3.4645,3.6049,3.6665,3.6291,3.5723,3.5968,3.7008,3.5543,3.4853,3.6715,3.7316,3.741,3.706,3.7082,3.7613,4.877,4.8465,4.8475,4.8329,4.7741,4.3666,4.1128,3.976,3.867,3.781,3.7178,3.7521,3.8059,3.8847,4.1661,4.3526,4.4642,4.669,4.7963,4.8401,4.9141,4.9572,4.976,4.9451,4.9113,4.8686,4.7972,4.6908,4.5525,4.5347,4.4772,4.3912,4.4772,4.4809,4.3959,4.398,4.4821,4.6484,4.7737,4.7734,4.6457,4.6387,4.5887,4.4966,4.4682,4.4224,4.3516,4.3663,4.3533,4.3148,4.252,4.2038,4.1766,3.7044,3.1767,0.0,2.4601,0.0,0.0,0.0,0.0,0.0,0.0,0.0,0.0,1.9942,2.0995,2.2564,2.3311,2.39,2.439,2.6471,2.855,3.031,3.0356,3.0216,3.0152,2.8918,2.9089,3.1764,3.3072,3.372,3.3727,3.4389,3.5005,3.5867,3.679,3.717,3.6687,3.5547,3.5147,3.6252,3.5666,3.4757,3.4133,3.3954,3.3988,3.3965,3.3775,3.3689,3.3831,3.4949,3.6106,3.6815,3.615,3.5751,3.6213,3.5799,3.5392,3.5834,3.6675,3.6956,3.6142,3.6117,3.6734,4.5415,4.5041,4.4388,4.3909,4.3389,4.0484,3.8822,3.8072,3.6315,3.5581,3.5563,3.4914,3.4945,3.5573,3.7638,3.8946,3.9769,4.2462,4.4099,4.4801,4.6291,4.7409,4.815,4.7994,4.7838,4.7641,4.7242,4.6218,4.475,4.4553,4.3702,4.2202,4.2582,4.1775,3.984,4.0837,4.2811,4.5607,4.6337,4.6764,4.6907,4.6884,4.6505,4.5692,4.4628,4.4213,4.4474,4.4142,4.3803,4.3528,4.3275,4.2335,4.0466,3.5565,3.0382,0.0,0.0,0.0,0.0,0.0,0.0,0.0,0.0,0.0,0.0,0.0,1.9021,1.9949,2.1269,2.2594,2.3941,2.4789,2.5579,2.6401,2.6826,2.6948,2.6728,2.6314,2.6895,2.9061,3.0507,3.1474,3.1722,3.2559,3.3615,3.487,3.5183,3.5171,3.4832,3.425,3.4207,3.5247,3.4763,3.4165,3.421,3.3874,3.3647,3.3647,3.3647,3.3647,3.3638,3.4139,3.4662,3.5191,3.4892,3.496,3.6502,3.5708,3.4863,3.5489,3.5655,3.5371,3.5266,3.5096,3.5328,4.273,4.2122,3.8701,3.7452,3.7571,3.618,3.5774,3.5933,3.3869,3.3325,3.3869,3.2496,3.2058,3.2364,3.3728,3.4571,3.5155,3.844,4.0359,4.1285,4.3093,4.4535,4.5518,4.5558,4.5539,4.5386,4.503,4.405,4.2606,4.2218,4.1196,3.9621,3.9243,3.8064,3.6175,3.8155,4.0939,4.4425,4.4919,4.5942,4.7516,4.7515,4.7009,4.6017,4.473,4.4287,4.4685,4.4056,4.3682,4.3653,4.2764,4.1305,3.9101,3.3249,0.0,0.0,0.0,0.0,0.0,0.0,0.0,0.0,0.0,1.38,1.4436,0.0,1.6953,0.0,1.9409,2.1377,2.3514,2.3191,0.0,0.0,2.2912,2.305,2.2817,2.2999,2.387,2.5706,2.7355,2.8725,2.9536,3.0769,3.203,3.3136,3.273,3.2409,3.2959,3.2758,3.2983,3.3877,3.3627,3.3465,3.3911,3.3627,3.33,3.3567,3.34,3.3386,3.373,3.3736,3.3647,3.3633,3.3434,3.4083,3.6082,3.4811,3.3937,3.5067,3.4542,3.3775,3.3981,3.3769,3.3873,4.1205,4.0665,3.1064,2.817,2.9782,2.9084,3.0059,3.199,3.0532,3.0331,3.0954,2.9789,2.9158,2.904,3.0566,0.0,3.2372,3.6206,3.8261,3.9004,4.0443,4.12,4.1314,4.1356,4.111,4.0762,3.9169,3.8121,3.7509,3.5912,3.4953,3.4734,3.3227,3.2762,3.3457,3.5656,3.8709,4.2499,4.3673,4.5435,4.7901,4.7731,4.6861,4.5242,4.507,4.4235,4.2704,4.2443,4.2502,4.273,3.943,3.798,3.8705,0.0,0.0,0.0,0.0,0.0,0.0,0.0,0.0,0.0,0.0,0.0,0.0,0.0,0.0,1.5334,1.7294,0.0,2.1427,2.0832,0.0,0.0,0.0,1.845,1.8868,1.7812,1.839,2.1827,0.0,0.0,2.7428,2.9763,3.0962,2.9907,3.0215,3.0718,3.1232,3.167,3.2171,3.2905,3.2449,3.23,3.2905,3.2464,3.2349,3.3314,3.2747,3.2647,3.3853,3.39,3.3661,3.3488,3.2747,3.2474,3.3702,3.2778,3.2377,3.3522,3.3584,3.3047,3.1811,3.2008,3.2605,3.307,3.0051,2.6041,2.4806,2.5476,2.4892,2.6137,2.8525,2.7124,2.7472,2.8972,2.7663,2.6912,2.6587,2.6726,0.0,0.0,0.0,3.3999,3.5249,3.77,3.9051,3.9533,4.0009,3.9714,3.8735,3.8418,3.747,3.5963,3.5022,3.2663,2.904,0.0,2.8766,3.0494,3.2713,3.5807,3.9706,4.2268,4.4843,4.7485,4.75,4.6968,4.579,4.3744,4.2838,4.3282,4.2312,4.1053,3.9652,3.7451,3.4529,0.0,0.0,0.0,0.0,0.0,0.0,0.0,0.0,0.0,0.0,0.0,1.048,1.0695,0.0,0.0,0.0,1.3347,1.4651,1.7587,1.8021,0.0,0.0,0.0,0.0,0.0,0.0,0.0,1.8404,2.0934,2.321,2.4832,2.6148,2.7221,2.7872,2.8184,2.8734,2.9882,0.0,3.1701,3.22,3.2036,3.1943,3.2185,3.1381,3.1153,3.2399,3.2474,3.266,3.3012,3.3122,3.2727,3.1768,3.1684,3.1787,3.1454,2.9441,2.8612,3.1168,3.052,2.945,2.9214,2.996,3.0599,2.4796,0.0,0.0,0.0,0.0,2.016,2.1586,2.4281,2.3132,2.3713,2.5492,2.4514,0.0,0.0,0.0,0.0,0.0,0.0,2.9965,3.1549,3.4386,3.6138,3.6822,3.7187,3.6877,3.5916,3.5639,3.4692,3.314,3.1651,2.8449,2.3763,0.0,0.0,0.0,0.0,3.3216,3.7275,4.082,4.4106,4.6979,4.7128,4.6982,4.6593,4.3248,4.181,4.2663,4.0793,3.8723,3.6591,3.4057,0.0,0.0,0.0,0.0,0.0,0.0,0.0,0.0,0.0,0.0,0.0,0.0,0.0,0.0,0.0,0.0,0.0,0.0,0.0,1.413,1.5359,1.5534,0.0,0.0,0.0,0.0,0.0,0.0,0.0,0.0,0.0,2.1762,2.2451,2.3742,0.0,0.0,2.6918,2.826,2.9574,3.0503,3.0768,3.0825,0.0,3.0825,3.0043,2.9753,3.0662,3.1898,3.2418,3.1396,3.1494,3.1065,2.9227,2.975,2.9602,2.7252,2.5359,2.5574,2.7877,2.7339,2.6211,2.6434,2.668,2.711,0.0,0.0,0.0,0.0,1.4942,0.0,0.0,0.0,1.847,1.8835,0.0,1.9849,0.0,0.0,0.0,0.0,2.0763,2.4301,0.0,0.0,3.0393,3.1807,3.2396,3.1771,3.1522,3.1526,2.9228,2.7999,2.7602,2.3673,2.085,0.0,0.0,0.0,0.0,0.0,3.1156,3.5388,3.937,4.3155,4.6456,4.6531,4.678,4.7249,4.4096,4.1496,3.9804,3.7227,3.5254,3.4077,2.8458,0.0,0.0,0.0,0.0,0.0,0.0,0.0,0.0,0.0,0.0,0.0,0.0,0.0,0.0,0.0,0.0,0.0,0.0,0.0,0.0,1.295,0.0,0.0,0.0,0.0,0.0,0.0,0.0,0.0,0.0,1.746,1.8107,1.9133,2.1097,2.4654,0.0,0.0,0.0,0.0,2.8302,2.8345,2.8317,2.8312,2.8364,2.8274,2.826,2.8317,0.0,0.0,2.9635,2.9073,2.8355,2.6658,2.6835,2.5381,1.9956,2.0879,2.2885,2.4438,2.4571,2.4283,2.3544,2.2267,2.2176,0.0,0.0,0.0,0.0,0.0,0.0,0.0,0.0,0.0,1.5001,1.6228,1.6415,0.0,0.0,0.0,0.0,0.0,0.0,0.0,0.0,2.6128,2.7524,2.871,2.8689,2.8296,2.7505,2.6297,2.3817,0.0,0.0,0.0,0.0,0.0,0.0,0.0,0.0,2.8422,3.2688,3.6853,4.0827,4.4408,4.4654,4.4778,4.4885,4.3673,4.1218,3.7503,3.4343,3.1091,0.0,0.0,0.0,0.0,0.0,0.0,0.0,0.0,0.0,0.0,0.0,0.0,0.0,0.0,0.0,0.0,0.0,0.0,0.0,0.0,0.0,0.0,0.0,1.158,0.0,0.0,0.0,0.0,0.0,0.0,0.0,0.0,0.0,1.3254,1.5945,1.9177,2.2365,2.2986,2.3639,2.5142,0.0,0.0,0.0,0.0,0.0,0.0,0.0,2.7091,2.7584,2.9204,3.0047,2.899,2.7815,2.6396,2.4442,0.0,0.0,1.6631,1.7735,2.0312,2.2213,2.1496,2.0485,2.0102,1.8922,1.9161,0.0,0.0,0.0,0.0,0.0,0.0,0.0,0.0,0.0,1.1565,1.2488,0.0,0.0,0.0,0.0,0.0,0.0,0.0,0.0,0.0,0.0,0.0,2.4778,2.471,0.0,0.0,0.0,0.0,0.0,0.0,0.0,0.0,0.0,0.0,0.0,0.0,2.6607,3.0979,3.5079,3.9051,4.2752,4.3068,4.3073,4.2823,4.2887,4.0577,3.5662,0.0,0.0,0.0,1.9898,0.0,0.0,0.0,0.0,0.0,0.0,0.0,0.0,0.0,0.0,0.0,0.0,0.0,0.0,0.0,0.0,0.0,0.0,0.0,0.0,0.0,0.9932,0.0,0.0,0.0,0.0,0.0,0.0,0.0,0.0,0.0,0.0,1.3376,1.7103,2.0307,2.1423,2.2505,2.4061,2.5842,2.7128,0.0,0.0,0.0,0.0,0.0,0.0,0.0,0.0,0.0,0.0,0.0,0.0,0.0,2.1258,1.9554,1.4712,1.55,1.7475,1.9119,0.0,0.0,0.0,0.0,0.0,0.0,0.0,0.0,0.0,0.0,0.0,0.0,0.0,0.0,0.0,0.8345,0.0,0.0,0.7491,0.0,0.0,0.0,0.0,0.0,0.0,0.0,0.0,0.0,0.0,0.0,0.0,0.0,0.0,0.0,0.0,0.0,0.0,0.0,0.0,0.0,0.0,2.5742,3.0398,3.4068,3.7808,4.1349,4.1929,4.1905,4.1422,4.173,3.9515,3.4333,0.0,0.0,0.0,0.0,0.0,0.0,0.0,0.0,0.0,0.0,0.0,0.0,0.0,0.0,0.0,0.0,0.0,0.0,0.0,0.0,0.0,0.0,0.0,0.0,0.0,0.0,0.967,1.1852,1.2759,0.0,0.0,0.0,0.0,0.0,0.0,0.0,0.0,0.0,1.8432,2.031,2.176,2.2923,2.4846,2.6169,2.6215,2.6211,2.6243,2.624,2.6243,2.5942,0.0,0.0,0.0,0.0,0.0,0.0,0.0,0.0,0.0,0.0,0.0,0.0,0.0,0.0,0.0,0.0,0.0,0.0,0.0,0.0,0.0,0.0,0.0,0.0,0.0,0.0,0.0,0.0,0.6616,0.6817,0.0,0.0,0.0,0.0,0.0,0.0,0.0,0.0,0.0,0.0,0.0,0.0,0.0,0.0,0.0,0.0,0.0,0.0,0.0,0.0,0.0,0.0,0.0,0.0,2.341,2.8136,3.1376,3.4903,3.8689,3.9918,4.0433,4.0205,4.0302,3.8123,3.3387,0.0,0.0,0.0,0.0,0.0,0.0,0.0,0.0,0.0,0.0,0.0,0.0,0.0,0.0,0.0,0.0,0.0,0.0,0.0,0.0,0.0,0.0,0.0,0.0,0.0,0.0,0.0,1.0267,1.0856,1.0915,0.0,0.0,0.0,0.0,0.0,0.0,0.0,0.0,0.0,0.0,1.9974,2.1316,2.3459,2.4869,2.4869,2.527,2.5554,2.5554,2.5959,2.5673,2.3949,0.0,0.0,0.0,0.0,0.0,0.0,0.0,0.0,0.0,0.0,0.0,0.0,0.0,0.0,0.0,0.0,0.0,0.0,0.0,0.0,0.0,0.0,0.0,0.0,0.0,0.0,0.0,0.0,0.0,0.0,0.0,0.0,0.0,0.0,0.0,0.0,0.0,0.0,0.0,0.0,0.0,0.0,0.0,0.0,0.0,0.0,0.0,0.0,0.0,0.0,0.0,0.0,0.0,2.2313,2.7514,3.0465,3.3826,3.7514,3.9415,3.9862,3.8917,3.9076,3.6805,0.0,0.0,0.0,0.0,0.0,0.0,0.0,0.0,0.0,0.0,0.0,0.0,0.0,0.0,0.0,0.0,0.0,0.0,0.0,0.0,0.0,0.0,0.0,0.0,0.0,0.0,0.0,0.0,0.8887,0.9696,1.0715,0.0,0.0,0.0,0.0,0.0,0.0,0.0,0.0,0.0,0.0,1.8971,2.052,2.2795,0.0,0.0,2.4625,2.4915,2.49,2.5227,2.4856,2.2846,2.0708,0.0,0.0,0.0,0.0,0.0,0.0,0.0,0.0,0.0,0.0,0.0,0.0,0.0,0.0,0.0,0.0,0.0,0.0,0.0,0.0,0.0,0.0,0.0,0.0,0.0,0.0,0.0,0.0,0.0,0.0,0.0,0.0,0.0,0.0,0.0,0.0,0.0,0.0,0.0,0.0,0.0,0.0,0.0,0.0,0.0,0.0,0.0,0.0,0.0,0.0,0.0,0.0,2.2013,2.778,3.0811,3.399,3.7547,3.9765,3.9808,3.77,3.8023,3.5574,0.0,0.0,0.0,0.0,0.0,0.0,0.0,0.0,0.0,0.0,0.0,0.0,0.0,0.0,0.0,0.0,0.0,0.0,0.0,0.0,0.0,0.0,0.0,0.0,0.0,0.0,0.0,0.0,0.0,0.0,0.0,0.0,0.0,0.0,0.0,0.0,0.0,0.0,0.0,0.0,0.0,1.8619,2.0241,2.2501,2.4027,0.0,2.4143,2.4143,2.4115,2.4127,2.3492,2.1679,0.0,0.0,0.0,0.0,0.0,0.0,0.0,0.0,0.0,0.0,0.0,0.0,0.0,0.0,0.0,0.0,0.0,0.0,0.0,0.0,0.0,0.0,0.0,0.0,0.0,0.0,0.0,0.0,0.0,0.0,0.0,0.0,0.0,0.0,0.0,0.0,0.0,0.0,0.0,0.0,0.0,0.0,0.0,0.0,0.0,0.0,0.0,0.0,0.0,0.0,0.0,0.0,0.0,0.0,2.5323,2.8904,3.2097,3.4919,3.8091,3.8586,3.6357,3.6305,0.0,0.0,0.0,0.0,0.0,0.0,0.0,0.0,0.0,0.0,0.0,0.0,0.0,0.0,0.0,0.0,0.0,0.0,0.0,0.0,0.0,0.0,0.0,0.0,0.0,0.0,0.0,0.4017,0.0,0.0,0.0,0.0,0.0,0.0,0.0,0.0,0.0,0.0,0.0,0.0,0.0,0.0,1.7635,1.8839,2.0307,2.141,0.0,0.0,2.2538,2.2043,2.2291,2.186,0.0,0.0,0.0,0.0,0.0,0.0,0.0,0.0,0.0,0.0,0.0,0.0,0.0,0.0,0.0,0.0,0.0,0.0,0.0,0.0,0.0,0.0,0.0,0.0,0.0,0.0,0.0,0.0,0.0,0.0,0.0,0.0,0.0,0.0,0.0,0.0,0.0,0.0,0.0,0.0,0.0,0.0,0.0,0.0,0.0,0.0,0.0,0.0,0.0,0.0,0.0,0.0,0.0,0.0,1.8788,2.429,2.7659,3.0894,3.3947,3.6621,3.7124,3.5337,3.4341,3.1986,0.0,0.0,0.0,0.0,0.0,0.0,0.0,0.0,0.0,0.0,0.0,0.0,0.0,0.0,0.0,0.0,0.0,0.0,0.0,0.0,0.0,0.0,0.0,0.0,0.0,0.0,0.0,0.0,0.0,0.0,0.0,0.0,0.0,0.0,0.0,0.0,0.0,0.0,0.0,0.0,0.0,0.0,1.7048,1.8461,0.0,0.0,0.0,2.1059,2.1693,0.0,0.0,0.0,0.0,0.0,0.0,0.0,0.0,0.0,0.0,0.0,0.0,0.0,0.0,0.0,0.0,0.0,0.0,0.0,0.0,0.0,0.0,0.0,0.0,0.0,0.0,0.0,0.0,0.0,0.0,0.0,0.0,0.0,0.0,0.0,0.0,0.0,0.0,0.0,0.0,0.0,0.0,0.0,0.0,0.0,0.0,0.0,0.0,0.0,0.0,0.0,0.0,0.0,0.0,0.0,0.0,0.0,2.3626,2.6702,2.9926,3.3419,3.524,3.5651,3.4485,3.2809,3.0335,0.0,0.0,0.0,0.0,0.0,0.0,0.0,0.0,0.0,0.0,0.0,0.0,0.0,0.0,0.0,0.0,0.0,0.0,0.0,0.0,0.0,0.0,0.0,0.0,0.0,0.0,0.0,0.0,0.0,0.0,0.0,0.0,0.0,0.0,0.0,0.0,0.0,0.0,0.0,0.0,0.0,1.3857,1.5282,1.6812,1.7634,0.0,0.0,1.9478,2.1537,1.9748,0.0,0.0,0.0,0.0,0.0,0.0,0.0,0.0,0.0,0.0,0.0,0.0,0.0,0.0,0.0,0.0,0.0,0.0,0.0,0.0,0.0,0.0,0.0,0.0,0.0,0.0,0.0,0.0,0.0,0.0,0.0,0.0,0.0,0.0,0.0,0.0,0.0,0.0,0.0,0.0,0.0,0.0,0.0,0.0,0.0,0.0,0.0,0.0,0.0,0.0,0.0,0.0,0.0,0.0,0.0,0.0,2.0846,2.5016,2.8363,3.0885,3.3681,3.4697,3.3854,3.3358,3.0968,0.0,0.0,0.0,0.0,0.0,0.0,0.0,0.0,0.0,0.0,0.0,0.0,0.0,0.0,0.0,0.0,0.0,0.0,0.0,0.0,0.0,0.0,0.0,0.0,0.0,0.0,0.0,0.0,0.0,0.0,0.0,0.0,0.0,0.0,0.0,0.0,0.0,0.0,0.0,0.0,0.0,1.2765,1.4648,1.4968,0.0,0.0,0.0,0.0,1.763,1.7358,0.0,0.0,0.0,0.0,0.0,0.0,0.0,0.0,0.0,0.0,0.0,0.0,0.0,0.0,0.0,0.0,0.0,0.0,0.0,0.0,0.0,0.0,0.0,0.0,0.0,0.0,0.0,0.0,0.0,0.0,0.0,0.0,0.0,0.0,0.0,0.0,0.0,0.0,0.0,0.0,0.0,0.0,0.0,0.0,0.0,0.0,0.0,0.0,0.0,0.0,0.0,0.0,0.0,0.0,0.0,0.0,1.9271,2.2956,2.6355,2.9568,3.1536,3.2571,3.2689,3.2187,2.9973,0.0,0.0,0.0,0.0,0.0,0.0,0.0,0.0,0.0,0.0,0.0,0.0,0.0,0.0,0.0,0.0,0.0,0.0,0.0,0.0,0.0,0.0,0.0,0.0,0.0,0.0,0.0,0.0,0.0,0.0,0.0,0.0,0.0,0.0,0.0,0.0,0.0,0.0,0.0,0.0,0.9502,1.0683,1.204,0.0,0.0,0.0,0.0,0.0,0.0,1.433,1.5091,0.0,0.0,0.0,0.0,0.0,0.0,0.0,0.0,0.0,0.0,0.0,0.0,0.0,0.0,0.0,0.0,0.0,0.0,0.0,0.0,0.0,0.0,0.0,0.0,0.0,0.0,0.0,0.0,0.0,0.0,0.0,0.0,0.0,0.0,0.0,0.0,0.0,0.0,0.0,0.0,0.0,0.0,0.0,0.0,0.0,0.0,0.0,0.0,0.0,0.0,0.0,0.0,0.0,0.0,0.0,1.7875,2.075,2.416,2.8194,2.9333,3.0307,3.1257,3.0661,2.8545,2.4884,0.0,0.0,0.0,0.0,0.0,0.0,0.0,0.0,0.0,0.0,0.0,0.0,0.0,0.0,0.0,0.0,0.0,0.0,0.0,0.0,0.0,0.0,0.0,0.0,0.0,0.0,0.0,0.0,0.0,0.0,0.0,0.0,0.0,0.0,0.0,0.0,0.0,0.0,0.0,0.7429,0.8556,0.0,0.0,0.0,0.0,0.0,0.0,0.0,0.0,1.3433,0.0,0.0,0.0,0.0,0.0,0.0,0.0,0.0,0.0,0.0,0.0,0.0,0.0,0.0,0.0,0.0,0.0,0.0,0.0,0.0,0.0,0.0,0.0,0.0,0.0,0.0,0.0,0.0,0.0,0.0,0.0,0.0,0.0,0.0,0.0,0.0,0.0,0.0,0.0,0.0,0.0,0.0,0.0,0.0,0.0,0.0,0.0,0.0,0.0,0.0,0.0,0.0,0.0,0.0,0.0,0.0,1.8732,2.2084,2.4816,2.7475,2.9161,2.986,2.996,2.7954,2.3598,0.0,0.0,0.0,0.0,0.0,0.0,0.0,0.0,0.0,0.0,0.0,0.0,0.0,0.0,0.0,0.0,0.0,0.0,0.0,0.0,0.0,0.0,0.0,0.0,0.0,0.0,0.0,0.0,0.0,0.0,0.0,0.0,0.0,0.0,0.0,0.0,0.0,0.0,0.4221,0.5898,0.0,0.0,0.0,0.0,0.0,0.0,0.0,0.0,1.0442,0.0,0.0,0.0,0.0,0.0,0.0,0.0,0.0,0.0,0.0,0.0,0.0,0.0,0.0,0.0,0.0,0.0,0.0,0.0,0.0,0.0,0.0,0.0,0.0,0.0,0.0,0.0,0.0,0.0,0.0,0.0,0.0,0.0,0.0,0.0,0.0,0.0,0.0,0.0,0.0,0.0,0.0,0.0,0.0,0.0,0.0,0.0,0.0,0.0,0.0,0.0,0.0,0.0,0.0,0.0,0.0,0.0,0.0,2.0649,2.3828,2.6214,2.8228,2.9665,2.7494,2.4603,0.0,0.0,0.0,0.0,0.0,0.0,0.0,0.0,0.0,0.0,0.0,0.0,0.0,0.0,0.0,0.0,0.0,0.0,0.0,0.0,0.0,0.0,0.0,0.0,0.0,0.0,0.0,0.0,0.0,0.0,0.0,0.0,0.0,0.0,0.0,0.0,0.0,0.0,0.0,0.0,0.0,0.0,0.0,0.0,0.0,0.0,0.0,0.0,0.0,0.0,0.0,0.0,0.0,0.0,0.0,0.0,0.0,0.0,0.0,0.0,0.0,0.0,0.0,0.0,0.0,0.0,0.0,0.0,0.0,0.0,0.0,0.0,0.0,0.0,0.0,0.0,0.0,0.0,0.0,0.0,0.0,0.0,0.0,0.0,0.0,0.0,0.0,0.0,0.0,0.0,0.0,0.0,0.0,0.0,0.0,0.0,0.0,0.0,0.0,0.0,0.0,0.0,0.0,0.0,0.0,0.0,0.0,0.0,1.8721,2.2527,2.456,2.6702,2.8945,2.4578,2.1098,0.0,0.0,0.0,0.0,0.0,0.0,0.0,0.0,0.0,0.0,0.0,0.0,0.0,0.0,0.0,0.0,0.0,0.0,0.0,0.0,0.0,0.0,0.0,0.0,0.0,0.0,0.0,0.0,0.0,0.0,0.0,0.0,0.0,0.0,0.0,0.0,0.0,0.0,0.0,0.0,0.0,0.0,0.0,0.0,0.0,0.0,0.0,0.0,0.7579,0.0,0.0,0.0,0.0,0.0,0.0,0.0,0.0,0.0,0.0,0.0,0.0,0.0,0.0,0.0,0.0,0.0,0.0,0.0,0.0,0.0,0.0,0.0,0.0,0.0,0.0,0.0,0.0,0.0,0.0,0.0,0.0,0.0,0.0,0.0,0.0,0.0,0.0,0.0,0.0,0.0,0.0,0.0,0.0,0.0,0.0,0.0,0.0,0.0,0.0,0.0,0.0,0.0,0.0,0.0,0.0,0.0,0.0,0.0,1.5436,1.8952,2.1609,2.3751,2.5246,2.1763,1.8869,0.0,0.0,0.0,0.0,0.0,0.0,0.0,0.0,0.0,0.0,0.0,0.0,0.0,0.0,0.0,0.0,0.0,0.0,0.0,0.0,0.0,0.0,0.0,0.0,0.0,0.0,0.0,0.0,0.0,0.0,0.0,0.0,0.0,0.0,0.0,0.0,0.0,0.0,0.0,0.0,0.0,0.0,0.0,0.0,0.0,0.0,0.0,0.0,0.0,0.0,0.0,0.0,0.0,0.0,0.0,0.0,0.0,0.0,0.0,0.0,0.0,0.0,0.0,0.0,0.0,0.0,0.0,0.0,0.0,0.0,0.0,0.0,0.0,0.0,0.0,0.0,0.0,0.0,0.0,0.0,0.0,0.0,0.0,0.0,0.0,0.0,0.0,0.0,0.0,0.0,0.0,0.0,0.0,0.0,0.0,0.0,0.0,0.0,0.0,0.0,0.0,0.0,0.0,0.0,0.0,0.0,0.0,0.0,1.3775,1.7474,1.9813,2.0573,1.9689,1.7421,1.5478,0.0,0.0,0.0,0.0,0.0,0.0,0.0,0.0,0.0,0.0,0.0,0.0,0.0,0.0,0.0,0.0,0.0,0.0,0.0,0.0,0.0,0.0,0.0,0.0,0.0,0.0,0.0,0.0,0.0,0.0,0.0,0.0,0.0,0.0,0.0,0.0,0.0,0.0,0.0,0.0,0.0,0.0,0.0,0.0,0.0,0.0,0.0,0.0,0.0,0.0,0.0,0.0,0.0,0.0,0.0,0.0,0.0,0.0,0.0,0.0,0.0,0.0,0.0,0.0,0.0,0.0,0.0,0.0,0.0,0.0,0.0,0.0,0.0,0.0,0.0,0.0,0.0,0.0,0.0,0.0,0.0,0.0,0.0,0.0,0.0,0.0,0.0,0.0,0.0,0.0,0.0,0.0,0.0,0.0,0.0,0.0,0.0,0.0,0.0,0.0,0.0,0.0,0.0,0.0,0.0,0.0,0.0,0.0,0.0,1.5194,1.661,1.6475,1.4737,1.3512,1.2351,0.0,0.0,0.0,0.0,0.0,0.0,0.0,0.0,0.0,0.0,0.0,0.0,0.0,0.0,0.0,0.0,0.0,0.0,0.0,0.0,0.0,0.0,0.0,0.0,0.0,0.0,0.0,0.0,0.0,0.0,0.0,0.0,0.0,0.0,0.0,0.0,0.0,0.0,0.0,0.0,0.0,0.0,0.0,0.0,0.0,0.0,0.0,0.0,0.0,0.0,0.0,0.0,0.0,0.0,0.0,0.0,0.0,0.0,0.0,0.0,0.0,0.0,0.0,0.0,0.0,0.0,0.0,0.0,0.0,0.0,0.0,0.0,0.0,0.0,0.0,0.0,0.0,0.0,0.0,0.0,0.0,0.0,0.0,0.0,0.0,0.0,0.0,0.0,0.0,0.0,0.0,0.0,0.0,0.0,0.0,0.0,0.0,0.0,0.0,0.0,0.0,0.0,0.0,0.0,0.0,0.0,0.0,0.0,0.0,1.1183,1.084,1.089,1.1303,1.0802,0.994,0.0,0.0,0.0,0.0,0.0,0.0,0.0,0.0,0.0,0.0,0.0,0.0,0.0,0.0,0.0,0.0,0.0,0.0,0.0,0.0,0.0,0.0,0.0,0.0,0.0,0.0,0.0,0.0,0.0,0.0,0.0,0.0,0.0,0.0,0.0,0.0,0.0,0.0,0.0,0.0,0.0,0.0,0.0,0.0,0.0,0.0,0.0,0.0,0.0,0.0,0.0,0.0,0.0,0.0,0.0,0.0,0.0,0.0,0.0,0.0,0.0,0.0,0.0,0.0,0.0,0.0,0.0,0.0,0.0,0.0,0.0,0.0,0.0,0.0,0.0,0.0,0.0,0.0,0.0,0.0,0.0,0.0,0.0,0.0,0.0,0.0,0.0,0.0,0.0,0.0,0.0,0.0,0.0,0.0,0.0,0.0,0.0,0.0,0.0,0.0,0.0,0.0,0.0,0.0,0.0,0.0,0.0,0.0,0.0,0.6247,0.6761,0.7227,0.7523,0.7588,0.7281,0.6624,0.0,0.0,0.0,0.0,0.0,0.0,0.0,0.0,0.0,0.0,0.0,0.0,0.0,0.0,0.0,0.0,0.0,0.0,0.0,0.0,0.0,0.0,0.0,0.0,0.0,0.0,0.0,0.0,0.0,0.0,0.0,0.0,0.0,0.0,0.0,0.0,0.0,0.0,0.0,0.0,0.0,0.0,0.0,0.0,0.0,0.0,0.0,0.0,0.0,0.0,0.0,0.0,0.0,0.0,0.0,0.0,0.0,0.0,0.0,0.0,0.0,0.0,0.0,0.0,0.0,0.0,0.0,0.0,0.0,0.0,0.0,0.0,0.0,0.0,0.0,0.0,0.0,0.0,0.0,0.0,0.0,0.0,0.0,0.0,0.0,0.0,0.0,0.0,0.0,0.0,0.0,0.0,0.0,0.0,0.0,0.0,0.0,0.0,0.0,0.0,0.0,0.0,0.0,0.0,0.0,0.0,0.0,0.0,0.3034,0.3957,0.4592,0.4885,0.5166,0.5174,0.0,0.0,0.0,0.0,0.0,0.0,0.0,0.0,0.0,0.0,0.0,0.0,0.0,0.0,0.0,0.0,0.0,0.0,0.0,0.0,0.0,0.0,0.0,0.0,0.0,0.0,0.0,0.0,0.0,0.0,0.0,0.0,0.0,0.0,0.0,0.0,0.0,0.0,0.0,0.0,0.0,0.0,0.0,0.0,0.0,0.0,0.0,0.0,0.0,0.0,0.0,0.0,0.0,0.0,0.0,0.0,0.0,0.0,0.0,0.0,0.0,0.0,0.0,0.0,0.0,0.0,0.0,0.0,0.0,0.0,0.0,0.0,0.0,0.0,0.0,0.0,0.0,0.0,0.0,0.0,0.0,0.0,0.0,0.0,0.0,0.0,0.0,0.0,0.0,0.0,0.0,0.0,0.0,0.0,0.0,0.0,0.0,0.0,0.0,0.0,0.0,0.0,0.0,0.0,0.0,0.0,0.0,0.0,0.1332,0.1955,0.2489,0.3092,0.3681,0.3753,0.3801,0.0,0.0,0.0,0.0,0.0,0.0,0.0,0.0,0.0,0.0,0.0,0.0,0.0,0.0,0.0,0.0,0.0,0.0,0.0,0.0,0.0,0.0,0.0,0.0,0.0,0.0,0.0,0.0,0.0,0.0,0.0,0.0,0.0,0.0,0.0,0.0,0.0,0.0,0.0,0.0,0.0,0.0,0.0,0.0,0.0,0.0,0.0,0.0,0.0,0.0,0.0,0.0,0.0,0.0,0.0,0.0,0.0,0.0,0.0,0.0,0.0,0.0,0.0,0.0,0.0,0.0,0.0,0.0,0.0,0.0,0.0,0.0,0.0,0.0,0.0,0.0,0.0,0.0,0.0,0.0,0.0,0.0,0.0,0.0,0.0,0.0,0.0,0.0,0.0,0.0,0.0,0.0,0.0,0.0,0.0,0.0,0.0,0.0,0.0,0.0,0.0,0.0,0.0,0.0,0.0,0.0,0.0,0.0,0.0,0.1309,0.1786,0.2317,0.2872,0.3092,0.3218,0.0,0.0,0.0,0.0,0.0,0.0,0.0,0.0,0.0,0.0,0.0,0.0,0.0,0.0,0.0,0.0,0.0,0.0,0.0,0.0,0.0,0.0,0.0,0.0,0.0,0.0,0.0,0.0,0.0,0.0,0.0,0.0,0.0,0.0,0.0,0.0,0.0,0.0,0.0,0.0,0.0,0.0,0.0,0.0,0.0,0.0,0.0,0.0,0.0,0.0,0.0,0.0,0.0,0.0,0.0,0.0,0.0,0.0,0.0,0.0,0.0,0.0,0.0,0.0,0.0,0.0,0.0,0.0,0.0,0.0,0.0,0.0,0.0,0.0,0.0,0.0,0.0,0.0,0.0,0.0,0.0,0.0,0.0,0.0,0.0,0.0,0.0,0.0,0.0,0.0,0.0,0.0,0.0,0.0,0.0,0.0,0.0,0.0,0.0,0.0,0.0,0.0,0.0,0.0,0.0,0.0,0.0,0.0,0.0,0.0787,0.1255,0.1826,0.2413,0.2698,0.2862,0.0,0.0,0.0,0.0,0.0,0.0,0.0,0.0,0.0,0.0,0.0,0.0,0.0,0.0,0.0,0.0,0.0,0.0,0.0,0.0,0.0,0.0,0.0,0.0,0.0,0.0,0.0,0.0,0.0,0.0,0.0,0.0,0.0,0.0,0.0,0.0,0.0,0.0,0.0,0.0,0.0,0.0,0.0,0.0,0.0,0.0,0.0,0.0,0.0,0.0,0.0,0.0,0.0,0.0,0.0,0.0,0.0,0.0,0.0,0.0,0.0,0.0,0.0,0.0,0.0,0.0,0.0,0.0,0.0,0.0,0.0,0.0,0.0,0.0,0.0,0.0,0.0,0.0,0.0,0.0,0.0,0.0,0.0,0.0,0.0,0.0,0.0,0.0,0.0,0.0,0.0,0.0,0.0,0.0,0.0,0.0,0.0,0.0,0.0,0.0,0.0,0.0,0.0,0.0,0.0,0.0,0.0,0.0,0.0,0.0415,0.0895,0.1524,0.2239,0.2555,0.2649,0.0,0.0,0.0,0.0,0.0,0.0,0.0,0.0,0.0,0.0,0.0,0.0,0.0,0.0,0.0,0.0,0.0,0.0,0.0,0.0,0.0,0.0,0.0,0.0,0.0,0.0,0.0,0.0,0.0,0.0,0.0,0.0,0.0,0.0,0.0,0.0,0.0,0.0,0.0,0.0,0.0,0.0,0.0,0.0,0.0,0.0,0.0,0.0,0.0,0.0,0.0,0.0,0.0,0.0,0.0,0.0,0.0,0.0,0.0,0.0,0.0,0.0,0.0,0.0,0.0,0.0,0.0,0.0,0.0,0.0,0.0,0.0,0.0,0.0,0.0,0.0,0.0,0.0,0.0,0.0,0.0,0.0,0.0,0.0,0.0,0.0,0.0,0.0,0.0,0.0,0.0,0.0,0.0,0.0,0.0,0.0,0.0,0.0,0.0,0.0,0.0,0.0,0.0,0.0,0.0,0.0,0.0,0.0,0.0,0.0,0.0895,0.1272,0.1519,0.2087,0.2428,0.2383,0.0,0.0,0.0,0.0,0.0,0.0,0.0,0.0,0.0,0.0,0.0,0.0,0.0,0.0,0.0,0.0,0.0,0.0,0.0,0.0,0.0,0.0,0.0,0.0,0.0,0.0,0.0,0.0,0.0,0.0,0.0,0.0,0.0,0.0,0.0,0.0,0.0,0.0,0.0,0.0,0.0,0.0,0.0,0.0,0.0,0.0,0.0,0.0,0.0,0.0,0.0,0.0,0.0,0.0,0.0,0.0,0.0,0.0,0.0,0.0,0.0,0.0,0.0,0.0,0.0,0.0,0.0,0.0,0.0,0.0,0.0,0.0,0.0,0.0,0.0,0.0,0.0,0.0,0.0,0.0,0.0,0.0,0.0,0.0,0.0,0.0,0.0,0.0,0.0,0.0,0.0,0.0,0.0,0.0,0.0,0.0,0.0,0.0,0.0,0.0,0.0,0.0,0.0,0.0,0.0,0.0,0.0,0.0,0.0,0.0,0.1224,0.1339,0.1924,0.2433,0.0,0.0,0.0,0.0,0.0,0.0,0.0,0.0,0.0,0.0,0.0,0.0,0.0,0.0,0.0,0.0,0.0,0.0,0.0,0.0,0.0,0.0,0.0,0.0,0.0,0.0,0.0,0.0,0.0,0.0,0.0,0.0,0.0,0.0,0.0,0.0,0.0,0.0,0.0,0.0,0.0,0.0,0.0,0.0,0.0,0.0,0.0,0.0,0.0,0.0,0.0,0.0,0.0,0.0,0.0,0.0,0.0,0.0,0.0,0.0,0.0,0.0,0.0,0.0,0.0,0.0,0.0,0.0,0.0,0.0,0.0,0.0,0.0,0.0,0.0,0.0,0.0,0.0,0.0,0.0,0.0,0.0,0.0,0.0,0.0,0.0,0.0,0.0,0.0,0.0,0.0,0.0,0.0,0.0,0.0,0.0,0.0,0.0,0.0,0.0,0.0,0.0,0.0,0.0,0.0,0.0,0.0,0.0,0.0,0.0,0.0,0.1281,0.1516,0.1885,0.0,0.3299,0.0,0.0,0.0,0.0,0.0,0.0,0.0,0.0,0.0,0.0,0.0,0.0,0.0,0.0,0.0,0.0,0.0,0.0,0.0,0.0,0.0,0.0,0.0,0.0,0.0,0.0,0.0,0.0,0.0,0.0,0.0,0.0,0.0,0.0,0.0,0.0,0.0,0.0,0.0,0.0,0.0,0.0,0.0,0.0,0.0,0.0,0.0,0.0,0.0,0.0,0.0,0.0,0.0,0.0,0.0,0.0,0.0,0.0,0.0,0.0,0.0,0.0,0.0,0.0,0.0,0.0,0.0,0.0,0.0,0.0,0.0,0.0,0.0,0.0,0.0,0.0,0.0,0.0,0.0,0.0,0.0,0.0,0.0,0.0,0.0,0.0,0.0,0.0,0.0,0.0,0.0,0.0,0.0,0.0,0.0,0.0,0.0,0.0,0.0,0.0,0.0,0.0,0.0,0.0,0.0,0.0,0.0,0.0,0.0,0.0,0.0,0.0,0.1634,0.1936,0.2183,0.0,0.0,0.0,0.0,0.0,0.0,0.0,0.0,0.0,0.0,0.0,0.0,0.0,0.0,0.0,0.0,0.0,0.0,0.0,0.0,0.0,0.0,0.0,0.0,0.0,0.0,0.0,0.0,0.0,0.0,0.0,0.0,0.0,0.0,0.0,0.0,0.0,0.0,0.0,0.0,0.0,0.0,0.0,0.0,0.0,0.0,0.0,0.0,0.0,0.0,0.0,0.0,0.0,0.0,0.0,0.0,0.0,0.0,0.0,0.0,0.0,0.0,0.0,0.0,0.0,0.0,0.0,0.0,0.0,0.0,0.0,0.0,0.0,0.0,0.0,0.0,0.0,0.0,0.0,0.0,0.0,0.0,0.0,0.0,0.0,0.0,0.0,0.0,0.0,0.0,0.0,0.0,0.0,0.0,0.0,0.0,0.0,0.0,0.0,0.0,0.0,0.0,0.0,0.0,0.0,0.0,0.0,0.0,0.0,0.0,0.1127,0.1253,0.1542,0.1722,0.1873,0.0,0.0,0.0,0.0,0.0,0.0,0.0,0.0,0.0,0.0,0.0,0.0,0.0,0.0,0.0,0.0,0.0,0.0,0.0,0.0,0.0,0.0,0.0,0.0,0.0,0.0,0.0,0.0,0.0,0.0,0.0,0.0,0.0,0.0,0.0,0.0,0.0,0.0,0.0,0.0,0.0,0.0,0.0,0.0,0.0,0.0,0.0,0.0,0.0,0.0,0.0,0.0,0.0,0.0,0.0,0.0,0.0,0.0,0.0,0.0,0.0,0.0,0.0,0.0,0.0,0.0,0.0,0.0,0.0,0.0,0.0,0.0,0.0,0.0,0.0,0.0,0.0,0.0,0.0,0.0,0.0,0.0,0.0,0.0,0.0,0.0,0.0,0.0,0.0,0.0,0.0,0.0,0.0,0.0,0.0,0.0,0.0,0.0,0.0,0.0,0.0,0.0,0.0,0.0,0.0,0.0,0.0,0.0,0.0,0.0,0.1037,0.0,0.0,0.0,0.1945,0.0,0.0,0.0,0.0,0.0,0.0,0.0,0.0,0.0,0.0,0.0,0.0,0.0,0.0,0.0,0.0,0.0,0.0,0.0,0.0,0.0,0.0,0.0,0.0,0.0,0.0,0.0,0.0,0.0,0.0,0.0,0.0,0.0,0.0,0.0,0.0,0.0,0.0,0.0,0.0,0.0,0.0,0.0,0.0,0.0,0.0,0.0,0.0,0.0,0.0,0.0,0.0,0.0,0.0,0.0,0.0,0.0,0.0,0.0,0.0,0.0,0.0,0.0,0.0,0.0,0.0,0.0,0.0,0.0,0.0,0.0,0.0,0.0,0.0,0.0,0.0,0.0,0.0,0.0,0.0,0.0,0.0,0.0,0.0,0.0,0.0,0.0,0.0,0.0,0.0,0.0,0.0,0.0,0.0,0.0,0.0,0.0,0.0,0.0,0.0,0.0,0.0,0.0,0.0,0.0,0.0,0.0,0.0,0.0,0.0,0.0,0.0,0.0,0.0,0.0,0.0,0.0,0.0,0.0,0.0,0.0,0.0,0.0,0.0,0.0,0.0,0.0,0.0,0.0,0.0,0.0,0.0,0.0,0.0,0.0,0.0,0.0,0.0,0.0,0.0,0.0,0.0,0.0,0.0,0.0,0.0,0.0,0.0,0.0,0.0,0.0,0.0,0.0,0.0,0.0,0.0,0.0,0.0,0.0,0.0,0.0,0.0,0.0,0.0,0.0,0.0,0.0,0.0,0.0,0.0,0.0,0.0,0.0,0.0,0.0,0.0,0.0,0.0,0.0,0.0,0.0,0.0,0.0,0.0,0.0,0.0,0.0,0.0,0.0,0.0,0.0,0.0,0.0,0.0,0.0,0.0,0.0,0.0,0.0,0.0,0.0,0.0,0.0,0.0,0.0,0.0,0.0,0.0,0.0,0.0,0.0,0.0,0.0,0.0,0.0,0.0,0.0,0.0,0.0,0.0,0.0,0.0,0.0,0.0,0.0,0.0,0.0,0.0,0.0,0.0,0.0,0.0,0.0,0.0,0.0,0.0,0.0,0.0,0.0,0.0,0.0,0.0,0.0,0.0,0.0,0.0,0.0,0.0,0.0,0.0,0.0,0.0,0.0,0.0,0.0,0.0,0.0,0.0,0.0,0.0,0.0,0.0,0.0,0.0,0.0,0.0,0.0,0.0,0.0,0.0,0.0,0.0,0.0,0.0,0.0,0.0,0.0,0.0,0.0,0.0,0.0,0.0,0.0,0.0,0.0,0.0,0.0,0.0,0.0,0.0,0.0,0.0,0.0,0.0,0.0,0.0,0.0,0.0,0.0,0.0,0.0,0.0,0.0,0.0,0.0,0.0,0.0,0.0,0.0,0.0,0.0,0.0,0.0,0.0,0.0,0.0,0.0,0.0,0.0,0.0,0.0,0.0,0.0,0.0,0.0,0.0,0.0,0.0,0.0,0.0,0.0,0.0,0.0,0.0,0.0,0.0,0.0,0.0,0.0,0.0,0.0,0.0,0.0,0.0,0.0,0.0,0.0,0.0,0.0,0.0,0.0,0.0,0.0,0.0,0.0,0.0,0.0,0.0,0.0,0.0,0.0,0.0,0.0,0.0,0.0,0.0,0.0,0.0,0.0,0.0,0.0,0.0,0.0,0.0,0.0,0.0,0.0,0.0,0.0,0.0,0.0,0.0,0.0,0.0,0.0,0.0,0.0,0.0,0.0,0.0,0.0,0.0,0.0,0.0,0.0,0.0,0.0,0.0,0.0,0.0,0.0,0.0,0.0,0.0,0.0,0.0,0.0,0.0,0.0,0.0,0.0,0.0,0.0,0.0,0.0,0.0,0.0,0.0,0.0,0.0,0.0,0.0,0.0,0.0,0.0,0.0,0.0,0.0,0.0,0.0,0.0,0.0,0.0,0.0,0.0,0.0,0.0,0.0,0.0,0.0,0.0,0.0,0.0,0.0,0.0,0.0,0.0,0.0,0.0,0.0,0.0,0.0,0.0,0.0,0.0,0.0,0.0,0.0,0.0,0.0,0.0,0.0,0.0,0.0,0.0,0.0,0.0,0.0,0.0,0.0,0.0,0.0,0.0,0.0,0.0,0.0,0.0,0.0,0.0,0.0,0.0,0.0,0.0,0.0,0.0,0.0,0.0,0.0,0.0,0.0,0.0,0.0,0.0,0.0,0.0,0.0,0.0,0.0,0.0,0.0,0.0,0.0,0.0,0.0,0.0,0.0,0.0,0.0,0.0,0.0,0.0,0.0,0.0,0.0,0.0,0.0,0.0,0.0,0.0,0.0,0.0,0.0,0.0,0.0,0.0,0.0,0.0,0.0,0.0,0.0,0.0,0.0,0.0,0.0,0.0,0.0,0.0,0.0,0.0,0.0,0.0,0.0,0.0,0.0,0.0,0.0,0.0,0.0,0.0,0.0,0.0,0.0,0.0,0.0,0.0,0.0,0.0,0.0,0.0,0.0,0.0,0.0,0.0,0.0,0.0,0.0,0.0,0.0,0.0,0.0,0.0,0.0,0.0,0.0,0.0,0.0,0.0,0.0,0.0,0.0,0.0,0.0,0.0,0.0,0.0,0.0,0.0,0.0,0.0,0.0,0.0,0.0,0.0,0.0,0.0,0.0,0.0,0.0,0.0,0.0,0.0,0.0,0.0,0.0,0.0,0.0,0.0,0.0,0.0,0.0,0.0,0.0,0.0,0.0,0.0,0.0,0.0,0.0,0.0,0.0,0.0,0.0,0.0,0.0,0.0,0.0,0.0,0.0,0.0,0.0,0.0,0.0,0.0,0.0,0.0,0.0,0.0,0.0,0.0,0.0,0.0,0.0,0.0,0.0,0.0,0.0,0.0,0.0,0.0,0.0,0.0,0.0,0.0,0.0,0.0,0.0,0.0,0.0,0.0,0.0,0.0,0.0,0.0,0.0,0.0,0.0,0.0,0.0,0.0,0.0,0.0,0.0,0.0,0.0,0.0,0.0,0.0,0.0,0.0,0.0,0.0,0.0,0.0,0.0,0.0,0.0,0.0,0.0,0.0,0.0,0.0,0.0,0.0,0.0,0.0,0.0,0.0,0.0,0.0,0.0,0.0,0.0,0.0,0.0,0.0,0.0,0.0,0.0,0.0,0.0,0.0,0.0,0.0,0.0,0.0,0.0,0.0,0.0,0.0,0.0,0.0,0.0,0.0,0.0,0.0,0.0,0.0,0.0,0.0,0.0,0.0,0.0,0.0,0.0,0.0,0.0,0.0,0.0,0.0,0.0,0.0,0.0,0.0,0.0,0.0,0.0,0.0,0.0,0.0,0.0,0.0,0.0,0.0,0.0,0.0,0.0,0.0,0.0,0.0,0.0,0.0,0.0,0.0,0.0,0.0,0.0,0.0,0.0,0.0,0.0,0.0,0.0,0.0,0.0,0.0,0.0,0.0,0.0,0.0,0.0,0.0,0.0,0.0,0.0,0.0,0.0,0.0,0.0,0.0,0.0,0.0,0.0,0.0,0.0,0.0,0.0,0.0,0.0,0.0,0.0,0.0,0.0,0.0,0.0,0.0,0.0,0.0,0.0,0.0,0.0,0.0,0.0,0.0,0.0,0.0,0.0,0.0,0.0,0.0,0.0,0.0,0.0,0.0,0.0,0.0,0.0,0.0,0.0,0.0,0.0,0.0,0.0,0.0,0.0,0.0,0.0,0.0,0.0,0.0,0.0,0.0,0.0,0.0,0.0,0.0,0.0,0.0,0.0,0.0,0.0,0.0,0.0,0.0,0.0,0.0,0.0,0.0,0.0,0.0,0.0,0.0,0.0,0.0,0.0,0.0,0.0,0.0,0.0,0.0,0.0,0.0,0.0,0.0,0.0,0.0,0.0,0.0,0.0,0.0,0.0,0.0,0.0,0.0,0.0,0.0,0.0,0.0,0.0,0.0,0.0,0.0,0.0,0.0,0.0,0.0,0.0,0.0,0.0,0.0,0.0,0.0,0.0,0.0,0.0,0.0,0.0,0.0,0.0,0.0,0.0,0.0,0.0,0.0,0.0,0.0,0.0,0.0,0.0,0.0,0.0,0.0,0.0,0.0,0.0,0.0,0.0,0.0,0.0,0.0,0.0,0.0,0.0,0.0,0.0,0.0,0.0,0.0,0.0,0.0,0.0,0.0,0.0,0.0,0.0,0.0,0.0,0.0,0.0,0.0,0.0,0.0,0.0,0.0,0.0,0.0,0.0,0.0,0.0,0.0,0.0,0.0,0.0,0.0,0.0,0.0,0.0,0.0,0.0,0.0,0.0,0.0,0.0,0.0,0.0,0.0,0.0,0.0,0.0,0.0,0.0,0.0,0.0,0.0,0.0,0.0,0.0,0.0,0.0]}]]]